[[{"header":{"parameterUnit":"m.s-1","parameterCategory":1,"la1":31.0,"la2":29.5877,"lo1":-88.7671,"lo2":-86.6584,"dx":0.0162,"dy":0.0185,"nx":115,"ny":88,"refTime":"2022-12-02T18:00:00:Z","depth":0,"parameterNumber":2,"parameterNumberName":"U-component_of_WINDS"},"data":[0.0,0.0,0.0,0.0,0.0,0.0,0.0,0.0,0.0,0.0,0.0,0.0,0.0,0.0,0.0,0.0,0.0,0.0,0.0,0.0,0.0,0.0,0.0,0.0,0.0,0.0,0.0,0.0,0.0,0.0,0.0,0.0,0.0,0.0,0.0,0.0,0.0,0.0,0.0,0.0,0.0,0.0,0.0,0.0,0.0,0.0,0.0,0.0,0.0,0.0,0.0,0.0,0.0,0.0,0.0,0.0,0.0,0.0,0.0,0.0,0.0,0.0,0.0,0.0,0.0,0.0,0.0,0.0,0.0,0.0,0.0,0.0,0.0,0.0,0.0,0.0,0.0,0.0,0.0,0.0,0.0,0.0,0.0,0.0,0.0,0.0,0.0,0.0,0.0,0.0,0.0,0.0,0.0,0.0,0.0,0.0,0.0,0.0,0.0,0.0,0.0,0.0,0.0,0.0,0.0,0.0,0.0,0.0,0.0,0.0,0.0,0.0,0.0,0.0,0.0,0.0,0.0,0.0,0.0,0.0,0.0,0.0,0.0,0.0,0.0,0.0,0.0,0.0,0.0,0.0,0.0,0.0,0.0,0.0,0.0,0.0,0.0,0.0,0.0,0.0,0.0,0.0,0.0,0.0,0.0,0.0,0.0,0.0,0.0,0.0,0.0,0.0,0.0,0.0,0.0,0.0,0.0,0.0,0.0,0.0,0.0,0.0,0.0,0.0,0.0,0.0,0.0,0.0,0.0,0.0,0.0,0.0,0.0,0.0,0.0,0.0,0.0,0.0,0.0,0.0,0.0,0.0,0.0,0.0,0.0,0.0,0.0,0.0,0.0,0.0,0.0,0.0,0.0,0.0,0.0,0.0,0.0,0.0,0.0,0.0,0.0,0.0,0.0,0.0,0.0,0.0,0.0,0.0,0.0,0.0,0.0,0.0,0.0,0.0,0.0,0.0,0.0,0.0,0.0,0.0,0.0,0.0,0.0,0.0,0.0,0.0,0.0,0.0,0.0,0.0,0.0,0.0,0.0,0.0,0.0,0.0,0.0,0.0,0.0,0.0,0.0,0.0,0.0,0.0,0.0,0.0,0.0,0.0,0.0,0.0,0.0,0.0,0.0,0.0,0.0,0.0,0.0,0.0,0.0,0.0,0.0,0.0,0.0,0.0,0.0,0.0,0.0,0.0,0.0,0.0,0.0,0.0,0.0,0.0,0.0,0.0,0.0,0.0,0.0,0.0,0.0,0.0,0.0,0.0,0.0,0.0,0.0,0.0,0.0,0.0,0.0,0.0,0.0,0.0,0.0,0.0,0.0,0.0,0.0,0.0,0.0,0.0,0.0,0.0,0.0,0.0,0.0,0.0,0.0,0.0,0.0,0.0,0.0,0.0,0.0,0.0,0.0,0.0,0.0,0.0,0.0,0.0,0.0,0.0,0.0,0.0,0.0,0.0,0.0,0.0,0.0,0.0,0.0,0.0,0.0,0.0,0.0,0.0,0.0,0.0,0.0,0.0,0.0,0.0,0.0,0.0,0.0,0.0,0.0,0.0,0.0,0.0,0.0,0.0,0.0,0.0,0.0,0.0,0.0,0.0,0.0,0.0,0.0,0.0,0.0,0.0,0.0,0.0,0.0,0.0,0.0,0.0,0.0,0.0,0.0,0.0,0.0,0.0,0.0,0.0,0.0,0.0,0.0,0.0,0.0,0.0,0.0,0.0,0.0,0.0,0.0,0.0,0.0,0.0,0.0,0.0,0.0,0.0,0.0,0.0,0.0,0.0,0.0,0.0,0.0,0.0,0.0,0.0,0.0,0.0,0.0,0.0,0.0,0.0,0.0,0.0,0.0,0.0,0.0,0.0,0.0,0.0,0.0,0.0,0.0,0.0,0.0,0.0,0.0,0.0,0.0,0.0,0.0,0.0,0.0,0.0,0.0,0.0,0.0,0.0,0.0,0.0,0.0,0.0,0.0,0.0,0.0,0.0,0.0,0.0,0.0,0.0,0.0,0.0,0.0,0.0,0.0,0.0,0.0,0.0,0.0,0.0,0.0,0.0,0.0,0.0,0.0,0.0,0.0,0.0,0.0,0.0,0.0,0.0,0.0,0.0,0.0,0.0,0.0,0.0,0.0,0.0,0.0,0.0,0.0,0.0,0.0,0.0,0.0,0.0,0.0,0.0,0.0,0.0,0.0,0.0,0.0,0.0,0.0,0.0,0.0,0.0,0.0,0.0,0.0,0.0,0.0,0.0,0.0,0.0,0.0,0.0,0.0,0.0,0.0,0.0,0.0,0.0,0.0,0.0,0.0,0.0,0.0,0.0,0.0,0.0,0.0,0.0,0.0,0.0,0.0,0.0,0.0,0.0,0.0,0.0,0.0,0.0,0.0,0.0,0.0,0.0,0.0,0.0,0.0,0.0,0.0,0.0,0.0,0.0,0.0,0.0,0.0,0.0,0.0,0.0,0.0,0.0,0.0,0.0,0.0,0.0,0.0,0.0,0.0,0.0,0.0,0.0,0.0,0.0,0.0,0.0,0.0,0.0,0.0,0.0,0.0,0.0,0.0,0.0,0.0,0.0,0.0,0.0,0.0,0.0,0.0,0.0,0.0,0.0,0.0,0.0,0.0,0.0,0.0,0.0,0.0,0.0,0.0,0.0,0.0,0.0,0.0,0.0,0.0,0.0,0.0,0.0,0.0,0.0,0.0,0.0,0.0,0.0,0.0,0.0,0.0,0.0,0.0,0.0,0.0,0.0,0.0,0.0,0.0,0.0,0.0,0.0,0.0,0.0,0.0,0.0,0.0,0.0,0.0,0.0,0.0,0.0,0.0,0.0,0.0,0.0,0.0,0.0,0.0,0.0,0.0,0.0,0.0,0.0,0.0,0.0,0.0,0.0,0.0,0.0,0.0,0.0,0.0,0.0,0.0,0.0,0.0,0.0,0.0,0.0,0.0,0.0,0.0,0.0,0.0,0.0,0.0,0.0,0.0,0.0,0.0,0.0,0.0,0.0,0.0,0.0,0.0,0.0,0.0,0.0,0.0,0.0,0.0,0.0,0.0,0.0,0.0,0.0,0.0,0.0,0.0,0.0,0.0,0.0,0.0,0.0,0.0,0.0,0.0,0.0,0.0,0.0,0.0,0.0,0.0,0.0,0.0,0.0,0.0,0.0,0.0,0.0,0.0,0.0,0.0,0.0,0.0,0.0,0.0,0.0,0.0,0.0,0.0,0.0,0.0,0.0,0.0,0.0,0.0,0.0,0.0,0.0,0.0,0.0,0.0,0.0,0.0,0.0,0.0,0.0,0.0,0.0,0.0,0.0,0.0,0.0,0.0,0.0,0.0,0.0,0.0,0.0,0.0,0.0,0.0,0.0,0.0,0.0,0.0,0.0,0.0,0.0,0.0,0.0,0.0,0.0,0.0,0.0,0.0,0.0,0.0,0.0,0.0,0.0,0.0,0.0,0.0,0.0,0.0,0.0,0.0,0.0,0.0,0.0,0.0,0.0,0.0,0.0,0.0,0.0,0.0,0.0,0.0,0.0,0.0,0.0,0.0,0.0,0.0,0.0,0.0,0.0,0.0,0.0,0.0,0.0,0.0,0.0,0.0,0.0,0.0,0.0,0.0,0.0,0.0,0.0,0.0,0.0,0.0,0.0,0.0,0.0,0.0,0.0,0.0,0.0,0.0,0.0,0.0,0.0,0.0,0.0,0.0,0.0,0.0,0.0,0.0,0.0,0.0,0.0,0.0,0.0,0.0,0.0,0.0,0.0,0.0,0.0,0.0,0.0,0.0,0.0,0.0,0.0,0.0,0.0,0.0,0.0,0.0,0.0,0.0,0.0,0.0,0.0,0.0,0.0,0.0,0.0,0.0,0.0,0.0,0.0,0.0,0.0,0.0,0.0,0.0,0.0,0.0,0.0,0.0,0.0,0.0,0.0,0.0,0.0,0.0,0.0,0.0,0.0,0.0,0.0,0.0,0.0,0.0,0.0,0.0,0.0,0.0,0.0,0.0,0.0,0.0,0.0,0.0,0.0,0.0,0.0,0.0,0.0,0.0,0.0,0.0,0.0,0.0,0.0,0.0,0.0,0.0,0.0,0.0,0.0,0.0,0.0,0.0,0.0,0.0,0.0,0.0,0.0,0.0,0.0,0.0,0.0,0.0,0.0,0.0,0.0,0.0,0.0,0.0,0.0,0.0,0.0,0.0,0.0,0.0,0.0,0.0,0.0,0.0,0.0,0.0,0.0,0.0,0.0,-1.3452,0.0,0.0,0.0,-1.2983,0.0,0.0,0.0,0.0,0.0,0.0,0.0,0.0,0.0,0.0,0.0,0.0,0.0,0.0,0.0,0.0,0.0,0.0,0.0,0.0,0.0,0.0,0.0,0.0,0.0,0.0,0.0,0.0,0.0,0.0,0.0,0.0,0.0,0.0,0.0,0.0,0.0,0.0,0.0,0.0,0.0,0.0,0.0,0.0,0.0,0.0,0.0,0.0,0.0,0.0,0.0,0.0,0.0,0.0,0.0,0.0,0.0,0.0,0.0,0.0,0.0,0.0,0.0,0.0,0.0,0.0,0.0,0.0,0.0,0.0,0.0,0.0,0.0,0.0,0.0,0.0,0.0,0.0,0.0,0.0,0.0,0.0,0.0,0.0,0.0,0.0,0.0,0.0,0.0,0.0,0.0,0.0,0.0,0.0,0.0,0.0,0.0,0.0,0.0,0.0,0.0,0.0,0.0,0.0,0.0,0.0,0.0,0.0,0.0,0.0,-1.346,-1.292,-1.2913,-1.2913,-1.2913,0.0,0.0,0.0,0.0,0.0,0.0,0.0,0.0,0.0,0.0,0.0,0.0,0.0,0.0,0.0,0.0,0.0,0.0,0.0,0.0,0.0,0.0,0.0,0.0,0.0,0.0,0.0,0.0,0.0,0.0,0.0,0.0,0.0,0.0,0.0,0.0,0.0,0.0,0.0,0.0,0.0,0.0,0.0,0.0,0.0,0.0,0.0,0.0,0.0,0.0,0.0,0.0,0.0,0.0,0.0,0.0,0.0,0.0,0.0,0.0,0.0,0.0,0.0,0.0,0.0,0.0,0.0,0.0,0.0,0.0,0.0,0.0,0.0,0.0,0.0,0.0,0.0,0.0,0.0,0.0,0.0,0.0,0.0,0.0,0.0,0.0,0.0,0.0,0.0,0.0,0.0,0.0,0.0,0.0,0.0,0.0,0.0,0.0,0.0,0.0,0.0,0.0,0.0,0.0,0.0,0.0,0.0,0.0,0.0,0.0,0.0,0.0,-1.2822,-1.2791,-1.2791,0.0,0.0,0.0,0.0,0.0,0.0,0.0,0.0,0.0,0.0,0.0,0.0,0.0,0.0,0.0,0.0,0.0,0.0,0.0,0.0,0.0,0.0,0.0,0.0,0.0,0.0,0.0,0.0,0.0,0.0,0.0,0.0,0.0,0.0,0.0,0.0,0.0,0.0,0.0,0.0,0.0,0.0,0.0,0.0,0.0,0.0,0.0,0.0,0.0,0.0,0.0,0.0,0.0,0.0,0.0,0.0,0.0,0.0,0.0,0.0,0.0,0.0,0.0,0.0,0.0,0.0,0.0,0.0,0.0,0.0,0.0,0.0,0.0,0.0,0.0,0.0,0.0,0.0,0.0,0.0,0.0,0.0,0.0,0.0,0.0,0.0,0.0,0.0,0.0,0.0,0.0,0.0,0.0,0.0,0.0,0.0,0.0,0.0,0.0,0.0,0.0,0.0,0.0,0.0,0.0,0.0,0.0,0.0,0.0,0.0,-1.3753,-1.3094,-1.2679,0.0,-1.2437,0.0,0.0,0.0,0.0,0.0,0.0,0.0,0.0,0.0,0.0,0.0,0.0,0.0,0.0,0.0,0.0,0.0,0.0,0.0,0.0,0.0,0.0,0.0,0.0,0.0,0.0,0.0,0.0,0.0,0.0,0.0,0.0,0.0,0.0,0.0,0.0,0.0,0.0,0.0,0.0,0.0,0.0,0.0,0.0,0.0,0.0,0.0,0.0,0.0,0.0,0.0,0.0,0.0,0.0,0.0,0.0,0.0,0.0,0.0,0.0,0.0,0.0,0.0,0.0,0.0,0.0,0.0,0.0,0.0,0.0,0.0,0.0,0.0,0.0,0.0,0.0,0.0,0.0,0.0,0.0,0.0,0.0,0.0,0.0,0.0,0.0,0.0,0.0,0.0,0.0,0.0,0.0,0.0,0.0,0.0,0.0,0.0,0.0,0.0,0.0,0.0,0.0,0.0,0.0,0.0,0.0,0.0,0.0,0.0,0.0,-1.3702,-1.3107,-1.2647,-1.2383,0.0,0.0,0.0,0.0,0.0,0.0,0.0,0.0,0.0,0.0,0.0,0.0,0.0,0.0,0.0,0.0,0.0,0.0,0.0,0.0,0.0,0.0,0.0,0.0,0.0,0.0,0.0,0.0,0.0,0.0,0.0,0.0,0.0,0.0,0.0,0.0,0.0,0.0,0.0,0.0,0.0,0.0,0.0,0.0,0.0,0.0,0.0,0.0,0.0,0.0,0.0,0.0,0.0,0.0,0.0,0.0,0.0,0.0,0.0,0.0,0.0,0.0,0.0,0.0,0.0,0.0,0.0,0.0,0.0,0.0,0.0,0.0,0.0,0.0,0.0,0.0,0.0,0.0,0.0,0.0,0.0,0.0,0.0,0.0,0.0,0.0,0.0,0.0,0.0,0.0,0.0,0.0,0.0,0.0,0.0,0.0,0.0,0.0,0.0,0.0,0.0,0.0,0.0,0.0,0.0,0.0,0.0,0.0,0.0,0.0,-1.439,-1.3723,-1.3016,-1.2482,-1.2291,-1.2413,0.0,0.0,0.0,0.0,0.0,0.0,0.0,0.0,0.0,0.0,0.0,0.0,0.0,0.0,0.0,0.0,0.0,0.0,0.0,0.0,0.0,0.0,0.0,0.0,0.0,0.0,0.0,0.0,0.0,0.0,0.0,0.0,0.0,0.0,0.0,0.0,0.0,0.0,0.0,0.0,0.0,0.0,0.0,0.0,0.0,0.0,0.0,0.0,0.0,0.0,0.0,0.0,0.0,0.0,0.0,0.0,0.0,0.0,0.0,0.0,0.0,0.0,0.0,0.0,0.0,0.0,0.0,0.0,0.0,0.0,0.0,0.0,0.0,0.0,0.0,0.0,0.0,0.0,0.0,0.0,0.0,0.0,0.0,0.0,0.0,0.0,0.0,0.0,0.0,0.0,0.0,0.0,0.0,0.0,0.0,0.0,0.0,0.0,0.0,0.0,0.0,0.0,0.0,0.0,0.0,0.0,0.0,0.0,-1.5266,-1.4753,-1.3928,-1.2787,-1.2152,-1.205,0.0,0.0,0.0,0.0,0.0,0.0,0.0,0.0,0.0,0.0,0.0,0.0,0.0,0.0,0.0,0.0,0.0,0.0,0.0,0.0,0.0,0.0,0.0,0.0,0.0,0.0,0.0,0.0,0.0,0.0,0.0,0.0,0.0,0.0,0.0,0.0,0.0,0.0,0.0,0.0,0.0,0.0,0.0,0.0,0.0,0.0,0.0,0.0,0.0,0.0,0.0,0.0,0.0,0.0,0.0,0.0,0.0,0.0,0.0,0.0,0.0,0.0,0.0,0.0,0.0,0.0,0.0,0.0,0.0,0.0,0.0,0.0,0.0,0.0,0.0,0.0,0.0,0.0,0.0,0.0,0.0,0.0,0.0,0.0,0.0,0.0,0.0,0.0,0.0,0.0,0.0,0.0,0.0,0.0,0.0,0.0,0.0,0.0,0.0,0.0,0.0,0.0,0.0,0.0,0.0,0.0,0.0,0.0,0.0,-1.5289,-1.4648,-1.3902,-1.306,-1.2798,-1.2778,0.0,0.0,0.0,0.0,0.0,0.0,0.0,0.0,0.0,0.0,0.0,0.0,0.0,0.0,0.0,0.0,0.0,0.0,0.0,0.0,0.0,0.0,0.0,0.0,0.0,0.0,0.0,0.0,0.0,0.0,0.0,0.0,0.0,0.0,0.0,0.0,0.0,0.0,0.0,0.0,0.0,0.0,0.0,0.0,0.0,0.0,0.0,0.0,0.0,0.0,0.0,0.0,0.0,0.0,0.0,0.0,0.0,0.0,0.0,0.0,0.0,0.0,0.0,0.0,0.0,0.0,0.0,0.0,0.0,0.0,0.0,0.0,0.0,0.0,0.0,0.0,0.0,0.0,0.0,0.0,0.0,0.0,0.0,0.0,0.0,0.0,0.0,0.0,0.0,0.0,0.0,0.0,0.0,0.0,0.0,0.0,0.0,0.0,0.0,0.0,0.0,0.0,0.0,0.0,0.0,0.0,0.0,0.0,0.0,-1.5267,-1.456,-1.3933,-1.3491,-1.327,-1.3228,0.0,0.0,0.0,0.0,0.0,0.0,0.0,0.0,0.0,0.0,0.0,0.0,0.0,0.0,0.0,0.0,0.0,0.0,0.0,0.0,0.0,0.0,0.0,0.0,0.0,0.0,0.0,0.0,0.0,0.0,0.0,0.0,0.0,0.0,0.0,0.0,0.0,0.0,0.0,0.0,0.0,0.0,0.0,0.0,0.0,0.0,0.0,0.0,0.0,0.0,0.0,0.0,0.0,0.0,0.0,0.0,0.0,0.0,0.0,0.0,0.0,0.0,0.0,0.0,0.0,0.0,0.0,0.0,0.0,0.0,0.0,0.0,0.0,0.0,0.0,0.0,0.0,0.0,0.0,0.0,0.0,0.0,0.0,0.0,0.0,0.0,0.0,0.0,0.0,0.0,0.0,0.0,0.0,0.0,0.0,0.0,0.0,0.0,0.0,0.0,0.0,0.0,0.0,0.0,0.0,0.0,0.0,0.0,-1.614,-1.5154,-1.4607,-1.4248,-1.4026,-1.3539,-1.3366,0.0,0.0,0.0,0.0,0.0,0.0,0.0,0.0,0.0,0.0,0.0,0.0,0.0,0.0,0.0,0.0,0.0,0.0,0.0,0.0,0.0,0.0,0.0,0.0,0.0,0.0,0.0,0.0,0.0,0.0,0.0,0.0,0.0,0.0,0.0,0.0,0.0,0.0,0.0,0.0,0.0,0.0,0.0,0.0,0.0,0.0,0.0,0.0,0.0,0.0,0.0,0.0,0.0,0.0,0.0,0.0,0.0,0.0,0.0,0.0,0.0,0.0,0.0,0.0,0.0,0.0,0.0,0.0,0.0,0.0,0.0,0.0,0.0,0.0,0.0,0.0,0.0,0.0,0.0,0.0,0.0,0.0,0.0,0.0,0.0,0.0,0.0,0.0,0.0,0.0,0.0,0.0,0.0,0.0,0.0,0.0,0.0,0.0,0.0,0.0,0.0,0.0,0.0,0.0,0.0,0.0,0.0,0.0,0.0,-1.6564,-1.6232,-1.5995,-1.592,-1.5612,-1.5157,0.0,0.0,0.0,0.0,0.0,0.0,0.0,0.0,0.0,0.0,0.0,0.0,0.0,0.0,0.0,0.0,0.0,0.0,0.0,0.0,0.0,0.0,0.0,0.0,0.0,0.0,0.0,0.0,0.0,0.0,0.0,0.0,0.0,0.0,0.0,0.0,0.0,0.0,0.0,0.0,0.0,0.0,0.0,0.0,0.0,0.0,0.0,0.0,0.0,0.0,0.0,0.0,0.0,0.0,0.0,0.0,0.0,0.0,0.0,0.0,0.0,0.0,0.0,0.0,0.0,0.0,0.0,0.0,0.0,0.0,0.0,0.0,0.0,0.0,0.0,0.0,0.0,0.0,0.0,0.0,0.0,0.0,0.0,0.0,0.0,0.0,0.0,0.0,0.0,0.0,0.0,0.0,0.0,0.0,0.0,0.0,0.0,0.0,0.0,0.0,0.0,0.0,0.0,0.0,0.0,0.0,0.0,0.0,0.0,-1.91,-1.8385,-1.7946,-1.7861,-1.7368,-1.6601,-1.5506,0.0,0.0,0.0,0.0,0.0,0.0,0.0,0.0,0.0,0.0,0.0,0.0,0.0,0.0,0.0,0.0,0.0,0.0,0.0,0.0,0.0,0.0,0.0,0.0,0.0,0.0,0.0,0.0,0.0,0.0,0.0,0.0,0.0,0.0,0.0,0.0,0.0,0.0,0.0,0.0,0.0,0.0,0.0,0.0,0.0,0.0,0.0,0.0,0.0,0.0,0.0,0.0,0.0,0.0,0.0,0.0,0.0,0.0,0.0,0.0,0.0,0.0,0.0,0.0,0.0,0.0,0.0,0.0,0.0,0.0,0.0,0.0,0.0,0.0,0.0,0.0,0.0,0.0,0.0,0.0,0.0,0.0,0.0,0.0,0.0,0.0,0.0,0.0,0.0,0.0,0.0,0.0,0.0,0.0,0.0,0.0,0.0,0.0,0.0,0.0,0.0,0.0,0.0,0.0,0.0,0.0,0.0,0.0,-2.249,-2.0971,-2.0065,-1.9805,-1.8931,-1.7779,0.0,0.0,0.0,0.0,0.0,0.0,0.0,0.0,0.0,0.0,0.0,0.0,0.0,0.0,0.0,0.0,0.0,0.0,0.0,0.0,0.0,0.0,0.0,0.0,0.0,0.0,0.0,0.0,0.0,0.0,0.0,0.0,0.0,0.0,0.0,0.0,0.0,0.0,0.0,0.0,0.0,0.0,0.0,0.0,0.0,0.0,0.0,0.0,0.0,0.0,0.0,0.0,0.0,0.0,0.0,0.0,0.0,0.0,0.0,0.0,0.0,0.0,0.0,0.0,0.0,0.0,0.0,0.0,0.0,0.0,0.0,0.0,0.0,0.0,0.0,0.0,0.0,0.0,0.0,0.0,0.0,0.0,0.0,0.0,0.0,0.0,0.0,0.0,0.0,0.0,0.0,0.0,0.0,0.0,0.0,0.0,0.0,0.0,0.0,0.0,0.0,0.0,0.0,0.0,0.0,0.0,0.0,0.0,0.0,-2.4069,-2.426,-2.3753,-2.259,-2.1349,-1.9791,0.0,0.0,0.0,0.0,0.0,0.0,0.0,0.0,0.0,0.0,0.0,0.0,0.0,0.0,0.0,0.0,0.0,0.0,0.0,0.0,0.0,0.0,0.0,0.0,0.0,0.0,0.0,0.0,0.0,0.0,0.0,0.0,0.0,0.0,0.0,0.0,0.0,0.0,0.0,0.0,0.0,0.0,0.0,0.0,0.0,0.0,0.0,0.0,0.0,0.0,0.0,0.0,0.0,0.0,0.0,0.0,0.0,0.0,0.0,0.0,0.0,0.0,0.0,0.0,0.0,0.0,0.0,0.0,0.0,0.0,0.0,0.0,0.0,0.0,0.0,0.0,0.0,0.0,0.0,0.0,0.0,0.0,0.0,0.0,0.0,0.0,0.0,0.0,0.0,0.0,0.0,0.0,0.0,0.0,0.0,0.0,0.0,0.0,0.0,0.0,0.0,0.0,0.0,0.0,0.0,0.0,0.0,0.0,-2.3505,-2.5494,-2.6444,-2.6506,-2.5497,-2.3533,-2.1355,0.0,0.0,0.0,0.0,0.0,0.0,0.0,0.0,0.0,0.0,0.0,0.0,0.0,0.0,0.0,0.0,0.0,0.0,0.0,0.0,0.0,0.0,0.0,0.0,0.0,0.0,0.0,0.0,0.0,0.0,0.0,0.0,0.0,0.0,0.0,0.0,0.0,0.0,0.0,0.0,0.0,0.0,0.0,0.0,0.0,0.0,0.0,0.0,0.0,0.0,0.0,0.0,0.0,0.0,0.0,0.0,0.0,0.0,0.0,0.0,0.0,0.0,0.0,0.0,0.0,0.0,0.0,0.0,0.0,0.0,0.0,0.0,0.0,0.0,0.0,0.0,0.0,0.0,0.0,0.0,0.0,0.0,0.0,0.0,0.0,0.0,0.0,0.0,0.0,0.0,0.0,0.0,0.0,0.0,0.0,0.0,0.0,0.0,0.0,0.0,0.0,0.0,0.0,0.0,0.0,0.0,0.0,0.0,-2.4559,-2.6595,-2.781,-2.8322,-2.8074,-2.5323,-2.2576,0.0,0.0,0.0,0.0,0.0,0.0,0.0,0.0,0.0,0.0,0.0,0.0,0.0,0.0,0.0,0.0,0.0,0.0,0.0,0.0,0.0,0.0,0.0,0.0,0.0,0.0,0.0,0.0,0.0,0.0,0.0,0.0,0.0,0.0,0.0,0.0,0.0,0.0,0.0,0.0,0.0,0.0,0.0,0.0,0.0,0.0,0.0,0.0,0.0,0.0,0.0,0.0,0.0,0.0,0.0,0.0,0.0,0.0,0.0,0.0,0.0,0.0,0.0,0.0,0.0,0.0,0.0,0.0,0.0,0.0,0.0,0.0,0.0,0.0,0.0,0.0,0.0,0.0,0.0,0.0,0.0,0.0,0.0,0.0,0.0,0.0,0.0,0.0,0.0,0.0,0.0,0.0,0.0,0.0,0.0,0.0,0.0,0.0,0.0,0.0,0.0,0.0,0.0,0.0,0.0,0.0,0.0,0.0,-2.5303,-2.6899,-2.7878,-2.8387,-2.8321,-2.5928,-2.3608,0.0,0.0,0.0,0.0,0.0,0.0,0.0,0.0,0.0,0.0,0.0,0.0,0.0,0.0,0.0,0.0,0.0,0.0,0.0,0.0,0.0,0.0,0.0,0.0,0.0,0.0,0.0,0.0,0.0,0.0,0.0,0.0,0.0,0.0,0.0,0.0,0.0,0.0,0.0,0.0,0.0,0.0,0.0,0.0,0.0,0.0,0.0,0.0,-1.4528,0.0,0.0,0.0,0.0,0.0,0.0,0.0,0.0,0.0,0.0,0.0,0.0,0.0,0.0,0.0,0.0,0.0,0.0,0.0,0.0,0.0,0.0,0.0,0.0,0.0,0.0,0.0,0.0,0.0,0.0,0.0,0.0,0.0,0.0,0.0,0.0,0.0,0.0,0.0,0.0,0.0,0.0,0.0,0.0,0.0,0.0,0.0,0.0,0.0,0.0,0.0,0.0,0.0,0.0,0.0,0.0,0.0,0.0,0.0,-2.6025,-2.7474,-2.8411,-2.8811,-2.8499,-2.6541,-2.4392,0.0,0.0,0.0,0.0,0.0,0.0,0.0,0.0,0.0,0.0,0.0,0.0,0.0,0.0,0.0,0.0,0.0,0.0,0.0,0.0,0.0,0.0,0.0,0.0,0.0,0.0,0.0,0.0,0.0,0.0,0.0,0.0,0.0,0.0,0.0,0.0,0.0,0.0,0.0,0.0,0.0,0.0,0.0,0.0,0.0,0.0,0.0,0.0,0.0,0.0,0.0,0.0,0.0,0.0,0.0,0.0,0.0,0.0,0.0,0.0,0.0,0.0,0.0,0.0,0.0,0.0,0.0,0.0,0.0,0.0,0.0,0.0,0.0,0.0,0.0,0.0,0.0,0.0,0.0,0.0,0.0,0.0,0.0,0.0,0.0,0.0,0.0,0.0,0.0,0.0,0.0,0.0,0.0,0.0,0.0,0.0,0.0,0.0,0.0,0.0,0.0,0.0,0.0,0.0,0.0,0.0,0.0,-2.4954,-2.6813,-2.8162,-2.9104,-2.9373,-2.8858,-2.7127,-2.5125,-2.2793,0.0,0.0,0.0,0.0,0.0,0.0,0.0,0.0,0.0,0.0,0.0,0.0,0.0,0.0,0.0,0.0,0.0,0.0,0.0,0.0,0.0,0.0,0.0,0.0,0.0,0.0,0.0,0.0,0.0,0.0,0.0,0.0,0.0,0.0,0.0,0.0,0.0,0.0,-1.6977,-1.799,0.0,0.0,0.0,0.0,0.0,0.0,0.0,0.0,-1.7135,0.0,0.0,0.0,0.0,0.0,0.0,0.0,0.0,0.0,0.0,0.0,0.0,0.0,0.0,0.0,0.0,0.0,0.0,0.0,0.0,0.0,0.0,0.0,0.0,0.0,0.0,0.0,0.0,0.0,0.0,0.0,0.0,0.0,0.0,0.0,0.0,0.0,0.0,0.0,0.0,0.0,0.0,0.0,0.0,0.0,0.0,0.0,0.0,0.0,0.0,0.0,0.0,0.0,0.0,0.0,0.0,-2.4365,-2.6155,-2.7601,-2.8634,-2.962,-2.9726,-2.9074,-2.7817,-2.6064,-2.3737,0.0,0.0,0.0,0.0,0.0,0.0,0.0,0.0,0.0,0.0,0.0,0.0,0.0,0.0,0.0,0.0,0.0,0.0,0.0,0.0,0.0,0.0,0.0,0.0,0.0,0.0,0.0,0.0,0.0,0.0,0.0,0.0,0.0,0.0,0.0,0.0,0.0,0.0,0.0,-2.0162,-2.0908,0.0,0.0,0.0,0.0,0.0,0.0,0.0,0.0,-1.8731,0.0,0.0,0.0,0.0,0.0,0.0,0.0,0.0,0.0,0.0,0.0,0.0,0.0,0.0,0.0,0.0,0.0,0.0,0.0,0.0,0.0,0.0,0.0,0.0,0.0,0.0,0.0,0.0,0.0,0.0,0.0,0.0,0.0,0.0,0.0,0.0,0.0,0.0,0.0,0.0,0.0,0.0,0.0,0.0,0.0,0.0,0.0,0.0,0.0,0.0,0.0,0.0,0.0,0.0,0.0,-2.4797,-2.6733,-2.8229,-2.9331,-3.0206,-3.0334,-2.9724,-2.8348,-2.6494,0.0,0.0,0.0,0.0,0.0,0.0,0.0,0.0,0.0,0.0,0.0,0.0,0.0,0.0,0.0,0.0,0.0,0.0,0.0,0.0,0.0,0.0,0.0,0.0,0.0,0.0,0.0,0.0,0.0,0.0,0.0,0.0,0.0,0.0,0.0,0.0,0.0,0.0,0.0,0.0,-2.1268,-2.2272,-2.2176,0.0,0.0,0.0,0.0,0.0,0.0,-2.1431,-2.0837,0.0,0.0,0.0,0.0,0.0,0.0,0.0,0.0,0.0,0.0,0.0,0.0,0.0,0.0,0.0,0.0,0.0,0.0,0.0,0.0,0.0,0.0,0.0,0.0,0.0,0.0,0.0,0.0,0.0,0.0,0.0,0.0,0.0,0.0,0.0,0.0,0.0,0.0,0.0,0.0,0.0,0.0,0.0,0.0,0.0,0.0,0.0,0.0,0.0,0.0,0.0,0.0,0.0,0.0,0.0,-2.5454,-2.7381,-2.8992,-3.0215,-3.0864,-3.09,-3.027,-2.8705,-2.6841,0.0,0.0,0.0,0.0,0.0,0.0,0.0,0.0,0.0,0.0,0.0,0.0,0.0,0.0,0.0,0.0,0.0,0.0,0.0,0.0,0.0,0.0,0.0,0.0,0.0,0.0,0.0,0.0,0.0,0.0,0.0,0.0,0.0,0.0,0.0,0.0,0.0,0.0,0.0,0.0,0.0,-2.3486,-2.4038,-2.4378,0.0,0.0,0.0,0.0,-2.4396,-2.382,0.0,0.0,0.0,0.0,0.0,0.0,0.0,0.0,0.0,0.0,0.0,0.0,0.0,0.0,0.0,0.0,0.0,0.0,0.0,0.0,0.0,0.0,0.0,0.0,0.0,0.0,0.0,0.0,0.0,0.0,0.0,0.0,0.0,0.0,0.0,0.0,0.0,0.0,0.0,0.0,0.0,0.0,0.0,0.0,0.0,0.0,0.0,0.0,0.0,0.0,0.0,0.0,0.0,0.0,0.0,0.0,-2.7626,-2.8768,-3.0031,-3.15,-3.1589,-3.1188,-3.0292,-2.9011,-2.7209,0.0,0.0,0.0,0.0,0.0,0.0,0.0,0.0,0.0,0.0,0.0,0.0,0.0,0.0,0.0,0.0,0.0,0.0,0.0,0.0,0.0,0.0,0.0,0.0,0.0,0.0,0.0,0.0,0.0,0.0,0.0,0.0,0.0,0.0,0.0,0.0,0.0,0.0,0.0,0.0,0.0,-2.5041,-2.6038,-2.6581,-2.6636,0.0,0.0,-2.6574,-2.7053,-2.5852,0.0,0.0,0.0,0.0,0.0,0.0,0.0,0.0,0.0,0.0,0.0,0.0,0.0,0.0,0.0,0.0,0.0,0.0,0.0,0.0,0.0,0.0,0.0,0.0,0.0,0.0,0.0,0.0,0.0,0.0,0.0,0.0,0.0,0.0,0.0,0.0,0.0,0.0,0.0,0.0,0.0,0.0,0.0,0.0,0.0,0.0,0.0,0.0,0.0,0.0,0.0,0.0,0.0,0.0,0.0,-2.5632,-2.8179,-2.9489,-3.0829,-3.2144,-3.218,-3.1793,-3.1099,-2.9767,-2.7865,0.0,0.0,0.0,0.0,0.0,0.0,0.0,0.0,0.0,0.0,0.0,0.0,0.0,0.0,0.0,0.0,0.0,0.0,0.0,0.0,0.0,0.0,0.0,0.0,0.0,0.0,0.0,0.0,0.0,0.0,0.0,0.0,0.0,0.0,0.0,0.0,0.0,0.0,0.0,0.0,0.0,0.0,-2.7885,-2.8858,0.0,0.0,0.0,-2.9303,-2.9669,0.0,0.0,0.0,0.0,0.0,0.0,0.0,0.0,0.0,0.0,0.0,0.0,0.0,0.0,0.0,0.0,0.0,0.0,0.0,0.0,0.0,0.0,0.0,0.0,0.0,0.0,0.0,0.0,0.0,0.0,0.0,0.0,0.0,0.0,0.0,0.0,0.0,0.0,0.0,0.0,0.0,0.0,0.0,0.0,0.0,0.0,0.0,0.0,0.0,0.0,0.0,0.0,0.0,0.0,0.0,0.0,0.0,-2.8761,-3.0397,-3.1791,-3.2833,-3.2881,-3.2532,-3.1905,-3.0458,0.0,0.0,0.0,0.0,0.0,0.0,0.0,0.0,0.0,0.0,0.0,0.0,0.0,0.0,0.0,0.0,0.0,0.0,0.0,0.0,0.0,0.0,0.0,0.0,0.0,0.0,0.0,-1.845,0.0,0.0,0.0,0.0,0.0,0.0,0.0,0.0,0.0,0.0,0.0,0.0,0.0,0.0,-2.7592,-2.9719,-3.0892,-3.1482,0.0,0.0,-3.1775,-3.2,-3.0784,-2.9134,0.0,0.0,0.0,0.0,0.0,0.0,0.0,0.0,0.0,0.0,0.0,0.0,0.0,0.0,0.0,0.0,0.0,0.0,0.0,0.0,0.0,0.0,0.0,0.0,0.0,0.0,0.0,0.0,0.0,0.0,0.0,0.0,0.0,0.0,0.0,0.0,0.0,0.0,0.0,0.0,0.0,0.0,0.0,0.0,0.0,0.0,0.0,0.0,0.0,0.0,0.0,0.0,0.0,0.0,-2.7381,-2.9784,-3.176,-3.3138,-3.3889,-3.3847,-3.3384,-3.2471,-3.0965,-2.9248,0.0,0.0,0.0,0.0,0.0,0.0,0.0,0.0,0.0,0.0,0.0,0.0,0.0,0.0,0.0,0.0,0.0,0.0,0.0,0.0,0.0,0.0,0.0,0.0,0.0,0.0,0.0,0.0,0.0,0.0,0.0,0.0,0.0,0.0,0.0,0.0,0.0,0.0,0.0,0.0,0.0,-2.8645,-3.1535,-3.2636,-3.3327,0.0,-3.3714,-3.3682,-3.3866,-3.2051,-3.0156,-2.8673,0.0,0.0,0.0,0.0,0.0,0.0,0.0,0.0,0.0,0.0,0.0,0.0,0.0,0.0,0.0,0.0,0.0,0.0,0.0,0.0,0.0,0.0,0.0,0.0,0.0,0.0,0.0,0.0,0.0,0.0,0.0,0.0,0.0,0.0,0.0,0.0,0.0,0.0,0.0,0.0,0.0,0.0,0.0,0.0,0.0,0.0,0.0,0.0,0.0,0.0,0.0,0.0,0.0,-2.8642,-3.146,-3.2948,-3.3989,-3.4675,-3.4409,-3.3952,-3.3384,-3.1891,-3.0319,0.0,0.0,0.0,0.0,0.0,0.0,0.0,0.0,0.0,0.0,0.0,0.0,0.0,0.0,0.0,0.0,0.0,0.0,0.0,0.0,0.0,0.0,0.0,0.0,0.0,0.0,0.0,0.0,-2.3688,-2.3956,-2.3526,0.0,0.0,0.0,0.0,0.0,0.0,0.0,0.0,0.0,0.0,-3.0637,-3.2982,-3.4318,0.0,0.0,-3.5167,-3.496,-3.4658,-3.3334,-3.182,-3.0208,-2.7351,0.0,0.0,0.0,0.0,0.0,0.0,0.0,0.0,0.0,0.0,0.0,0.0,0.0,0.0,0.0,0.0,0.0,0.0,0.0,0.0,0.0,0.0,0.0,0.0,0.0,0.0,0.0,0.0,0.0,0.0,0.0,0.0,0.0,0.0,0.0,0.0,0.0,0.0,0.0,0.0,0.0,0.0,0.0,0.0,0.0,0.0,0.0,0.0,0.0,0.0,0.0,0.0,-2.9695,-3.2746,-3.4073,-3.5135,-3.5883,-3.5392,-3.4918,-3.4494,-3.3005,-3.1519,0.0,0.0,0.0,0.0,0.0,0.0,0.0,0.0,0.0,0.0,0.0,0.0,0.0,0.0,0.0,0.0,0.0,0.0,0.0,0.0,0.0,0.0,0.0,0.0,0.0,0.0,0.0,0.0,-2.5034,-2.5084,-2.4609,0.0,0.0,0.0,0.0,0.0,0.0,0.0,0.0,0.0,0.0,-3.2433,-3.4452,-3.56,-3.6304,-3.6371,-3.6289,-3.5922,-3.5174,-3.428,-3.3089,-3.1439,0.0,0.0,0.0,0.0,0.0,0.0,0.0,0.0,0.0,0.0,0.0,0.0,0.0,0.0,0.0,0.0,0.0,0.0,0.0,0.0,0.0,0.0,0.0,0.0,0.0,0.0,0.0,-2.2546,0.0,0.0,-2.1929,0.0,0.0,0.0,0.0,0.0,0.0,0.0,0.0,0.0,0.0,0.0,0.0,0.0,0.0,0.0,0.0,0.0,0.0,0.0,0.0,0.0,0.0,-3.0596,-3.3375,-3.5378,-3.678,-3.7518,-3.6974,-3.6433,-3.5945,-3.4336,-3.2819,-3.1357,0.0,0.0,0.0,0.0,0.0,0.0,0.0,0.0,0.0,0.0,0.0,0.0,0.0,0.0,0.0,0.0,0.0,0.0,0.0,0.0,0.0,0.0,0.0,0.0,0.0,0.0,-2.6106,-2.5664,-2.5182,0.0,0.0,0.0,0.0,0.0,0.0,0.0,0.0,0.0,0.0,-3.2291,-3.3784,-3.5897,-3.6438,-3.669,-3.7001,-3.7057,-3.6673,-3.5526,-3.4736,-3.3738,0.0,0.0,0.0,0.0,0.0,0.0,0.0,0.0,0.0,0.0,0.0,0.0,0.0,0.0,0.0,0.0,0.0,0.0,0.0,0.0,0.0,0.0,0.0,0.0,0.0,0.0,0.0,-2.584,-2.5234,0.0,0.0,0.0,0.0,0.0,0.0,0.0,0.0,0.0,0.0,0.0,-2.7565,-2.7169,0.0,0.0,0.0,0.0,0.0,0.0,0.0,0.0,0.0,0.0,0.0,0.0,-3.2412,-3.5642,-3.7617,-3.8953,-3.9766,-3.8819,-3.803,-3.7378,-3.5519,-3.3331,-3.0673,0.0,0.0,0.0,0.0,0.0,0.0,0.0,0.0,0.0,0.0,0.0,0.0,0.0,0.0,0.0,0.0,0.0,0.0,0.0,0.0,0.0,0.0,0.0,0.0,0.0,-2.7152,0.0,0.0,0.0,0.0,0.0,0.0,0.0,0.0,0.0,0.0,0.0,-3.0427,-3.2947,-3.4093,-3.5113,-3.6335,-3.6779,-3.6996,0.0,0.0,0.0,0.0,0.0,0.0,0.0,0.0,0.0,0.0,0.0,0.0,0.0,0.0,-2.6588,-2.4129,-2.4296,-2.4902,-2.5192,0.0,0.0,0.0,0.0,0.0,0.0,0.0,0.0,0.0,0.0,0.0,0.0,0.0,0.0,-2.7729,0.0,-2.7311,0.0,0.0,0.0,0.0,0.0,0.0,0.0,0.0,-2.963,-3.003,-3.0488,-3.0148,-3.0011,0.0,-3.0592,-2.9659,0.0,0.0,0.0,0.0,0.0,0.0,0.0,0.0,-3.3973,-3.7364,-3.9121,-4.0487,-4.1417,-4.05,-3.9682,-3.9008,-3.6874,-3.4283,-3.1305,-3.0758,-2.9437,0.0,0.0,0.0,0.0,0.0,0.0,0.0,0.0,0.0,0.0,0.0,0.0,0.0,0.0,0.0,0.0,0.0,0.0,0.0,0.0,0.0,0.0,0.0,-2.8991,0.0,0.0,0.0,0.0,0.0,0.0,0.0,0.0,0.0,-3.0298,-3.1316,-3.2765,-3.4659,-3.5396,-3.5974,-3.6559,0.0,0.0,0.0,0.0,0.0,0.0,0.0,-3.5884,-3.5311,-3.5408,-3.5415,-3.4903,-3.3964,-3.315,-3.2856,0.0,0.0,-2.8958,-2.8787,-2.9324,-2.9701,-2.9809,-2.9851,-2.9851,-2.9935,-3.0044,0.0,0.0,0.0,0.0,0.0,0.0,0.0,0.0,-2.9207,-2.9418,0.0,-2.9542,0.0,0.0,0.0,0.0,-2.7461,-2.8973,0.0,0.0,-3.1854,-3.2642,-3.3817,-3.3618,-3.3534,-3.3551,-3.3839,-3.4073,-3.4131,-3.1296,0.0,0.0,0.0,0.0,0.0,0.0,-3.5215,-3.8507,-3.9929,-4.1286,-4.2604,-4.1889,-4.1275,-4.0823,-3.8281,-3.5733,-3.3319,-3.2761,-3.1584,-2.9657,-2.886,0.0,0.0,0.0,0.0,0.0,0.0,0.0,0.0,0.0,0.0,0.0,0.0,0.0,0.0,0.0,0.0,0.0,0.0,0.0,0.0,-3.0718,0.0,0.0,0.0,0.0,0.0,0.0,0.0,0.0,0.0,0.0,-3.2508,-3.3785,-3.5102,-3.6231,0.0,0.0,0.0,0.0,-3.6893,-3.7258,-3.7285,-3.7109,-3.6628,-3.6958,-3.723,-3.6963,0.0,0.0,-3.748,-3.7287,-3.7116,-3.7116,-3.7891,-3.7469,-3.3582,-3.3068,-3.3325,-3.3766,-3.4026,-3.4118,-3.4118,-3.4325,-3.4487,-3.1567,0.0,0.0,0.0,0.0,-3.0398,-3.0555,-3.0625,-3.1394,-3.1829,-3.2063,-3.2293,0.0,0.0,0.0,0.0,0.0,0.0,-3.3263,-3.4484,-3.4762,-3.5479,-3.6558,-3.6302,-3.6384,-3.6769,-3.7414,-3.7767,-3.7785,-3.7121,-3.5207,-3.2147,0.0,0.0,0.0,0.0,-3.7954,-4.0205,-4.2035,-4.3335,-4.4118,-4.33,-4.2138,-4.0656,-3.9248,-3.7457,-3.5192,-3.4623,-3.3385,-3.137,-3.0421,0.0,0.0,0.0,0.0,0.0,0.0,0.0,0.0,0.0,0.0,0.0,0.0,0.0,0.0,0.0,0.0,0.0,0.0,0.0,-3.2019,-3.203,-3.1879,0.0,0.0,0.0,0.0,0.0,0.0,0.0,0.0,0.0,-3.5962,-3.6386,-3.7169,0.0,0.0,-3.842,-3.8479,-3.8313,-3.8395,-3.8885,-3.8987,0.0,-3.8781,-3.9241,-3.9622,-3.9519,-4.0287,-4.0799,-4.0541,-4.0594,-4.0567,-4.0236,-4.0875,-4.1003,-4.0007,-3.8791,-3.8263,-3.8488,-3.8612,-3.8686,-3.8686,-3.8736,-3.8759,-3.3508,-3.3021,-3.2294,-3.185,-3.162,-3.1856,-3.1987,-3.2061,-3.284,-3.3457,-3.3933,-3.428,-3.4102,-3.3655,-3.3549,0.0,0.0,0.0,-3.5747,-3.6834,-3.7315,-3.8056,-3.8911,-3.8936,-3.9146,-3.9563,-4.0149,-4.0488,-4.0594,-4.0899,-3.9541,-3.6723,0.0,0.0,-3.6125,-3.7878,-3.9749,-4.1646,-4.3127,-4.4147,-4.4642,-4.4139,-4.3025,-4.1384,-4.0648,-3.9275,-3.7316,-3.6613,-3.5472,-3.3781,-3.2731,-3.1728,0.0,0.0,0.0,0.0,0.0,0.0,0.0,0.0,0.0,0.0,0.0,-2.6719,-2.7507,0.0,0.0,0.0,-3.1191,-3.2615,-3.4266,-3.3891,0.0,0.0,0.0,0.0,0.0,0.0,0.0,-3.5466,-3.6724,-3.7852,-3.8696,-3.9177,-3.9459,-3.9767,-3.9696,-3.9602,-3.9762,0.0,-3.9721,-4.0285,-4.0388,-4.0362,-4.0362,-4.0875,-4.1338,-4.1673,-4.2163,-4.2526,-4.2658,-4.2786,-4.2759,-4.2578,-4.2969,-4.3411,-4.3411,-4.2629,-4.1853,-4.1621,-4.1569,-4.1569,-4.1569,-4.1569,-4.1518,-3.5136,-3.5453,-3.3977,-3.316,-3.2922,-3.3095,-3.318,-3.3234,-3.379,-3.4502,-3.5387,-3.5676,-3.6033,-3.6355,-3.643,0.0,-3.6106,-3.7173,-3.8004,-3.8753,-3.9586,-4.0372,-4.1056,-4.1379,-4.1648,-4.1968,-4.2232,-4.2497,-4.2683,-4.297,-4.271,-4.1905,-3.9413,-3.8324,-3.8708,-3.9592,-4.0924,-4.2683,-4.3519,-4.4147,-4.4668,-4.4476,-4.3836,-4.2754,-4.2263,-4.1139,-3.9395,-3.8556,-3.7622,-3.644,-3.5442,-3.4372,-3.3156,0.0,0.0,0.0,0.0,0.0,0.0,0.0,0.0,0.0,0.0,0.0,0.0,0.0,0.0,0.0,-3.4234,0.0,-3.6253,-3.6103,0.0,0.0,0.0,-3.5678,-3.6162,-3.6335,-3.6841,-3.8079,0.0,0.0,-4.0869,-4.172,-4.1822,-4.0608,-4.04,-4.0456,-4.0823,-4.0926,-4.1055,-4.1749,-4.1775,-4.1801,-4.2059,-4.2392,-4.2909,-4.3616,-4.3491,-4.3545,-4.4016,-4.4121,-4.4095,-4.4121,-4.4513,-4.4798,-4.4853,-4.4746,-4.4539,-4.3467,-4.318,-4.3101,-4.3101,-4.3101,-4.3101,-3.5903,-3.6143,-3.5738,-3.5229,-3.4553,-3.406,-3.3963,-3.424,-3.4768,-3.5627,-3.6703,-3.7432,-3.8166,-3.8838,-3.905,-3.9102,-3.9074,-3.9978,-4.0536,-4.0714,-4.116,-4.1727,-4.2474,-4.2608,-4.2744,-4.3038,-4.3584,-4.3719,-4.3596,-4.4067,-4.3989,-4.3388,-4.2268,-4.1257,-4.0383,-4.1363,-4.2294,-4.2919,-4.3572,-4.4147,-4.4722,-4.4613,-4.4398,-4.3888,-4.3534,-4.2503,-4.0548,-3.9855,-3.8803,-3.7304,-3.6456,-3.5614,-3.4704,-3.3731,0.0,0.0,0.0,0.0,0.0,0.0,0.0,0.0,0.0,-3.0354,-3.2041,0.0,-3.4135,0.0,-3.6513,-3.7462,-3.8031,-3.7508,0.0,0.0,-3.7891,-3.8082,-3.821,-3.91,-3.9891,-4.015,-4.0943,-4.1613,-4.1874,-4.2423,-4.3049,-4.3466,-4.284,-4.2527,-4.2997,-4.3101,-4.3465,-4.4323,-4.4531,-4.4739,-4.5106,-4.5392,-4.5497,-4.5735,-4.5715,-4.5715,-4.582,-4.5872,-4.5872,-4.5872,-4.595,-4.6055,-4.6029,-4.6055,-4.5976,-4.5663,-4.4957,-4.433,-4.4276,-4.4276,-4.4304,-3.6589,-3.7038,-3.6838,-3.6573,-3.6228,-3.565,-3.5508,-3.5825,-3.6274,-3.6969,-3.7915,-3.9043,-3.9859,-4.0479,-4.0852,-4.1039,-4.1115,-4.2059,-4.2493,-4.2573,-4.3329,-4.3903,-4.4351,-4.4487,-4.4497,-4.4372,-4.471,-4.4663,-4.4304,-4.4565,-4.4565,-4.4251,-4.3938,-4.3231,-4.2268,-4.2372,-4.2606,-4.3023,-4.3572,-4.4147,-4.4696,-4.4487,-4.4302,-4.4141,-4.3558,-4.2716,-4.1465,-4.0761,-3.9882,-3.8867,-3.8198,-3.7508,-3.6723,-3.6018,-3.4885,0.0,0.0,0.0,0.0,0.0,0.0,0.0,0.0,0.0,0.0,0.0,-3.6548,-3.7944,-3.8877,-3.9547,-3.986,-3.9477,-3.9433,-4.0054,-4.0244,-4.0456,-4.0689,-4.136,-4.1852,-4.1878,-4.2527,-4.3075,-4.3284,-4.3807,-4.4513,-4.5375,-4.4957,-4.467,-4.4957,-4.509,-4.5271,-4.5898,-4.6003,-4.6107,-4.6447,-4.6499,-4.6578,-4.6787,-4.6656,-4.6552,-4.6787,-4.6656,-4.6499,-4.6499,-4.6499,-4.6499,-4.6499,-4.6499,-4.6499,-4.6395,-4.5976,-4.5454,-4.5111,-4.4905,-4.4694,-3.7383,-3.7954,-3.7651,-3.7649,-3.7839,-3.7504,-3.7451,-3.7508,-3.7849,-3.8381,-3.9157,-4.0556,-4.1393,-4.1746,-4.2228,-4.2441,-4.2518,-4.3521,-4.3958,-4.4035,-4.5344,-4.5948,-4.5948,-4.6334,-4.6212,-4.5741,-4.5663,-4.5349,-4.4853,-4.472,-4.4694,-4.4722,-4.467,-4.4356,-4.3912,-4.2814,-4.2526,-4.3023,-4.365,-4.4225,-4.4642,-4.4251,-4.3938,-4.3859,-4.3125,-4.2525,-4.2081,-4.1384,-4.0817,-4.0427,-4.0027,-3.9446,-3.8741,-3.8412,-3.7491,0.0,-3.5454,0.0,0.0,0.0,0.0,0.0,0.0,0.0,0.0,-3.7345,-3.8943,-4.0376,-4.1119,-4.1533,-4.1533,-4.1533,-4.1742,-4.2213,-4.2395,-4.2579,-4.3049,-4.318,-4.3284,-4.3337,-4.3807,-4.4304,-4.4879,-4.5428,-4.595,-4.6447,-4.6604,-4.6656,-4.6787,-4.663,-4.6552,-4.6682,-4.6682,-4.6787,-4.6787,-4.6761,-4.6917,-4.7283,-4.71,-4.6865,-4.7362,-4.7048,-4.6734,-4.6734,-4.6787,-4.6761,-4.6708,-4.6734,-4.6734,-4.6843,-4.6656,-4.6369,-4.5846,-4.5375,-4.4983,-3.8484,-3.867,-3.9134,-3.9323,-3.9405,-3.9814,-3.9138,-3.7803,-3.8615,-3.9746,-4.1182,-4.2182,-4.2881,-4.3431,-4.3759,-4.3893,-4.3948,-4.4346,-4.4396,-4.4284,-4.5233,-4.5656,-4.5709,-4.6264,-4.6421,-4.629,-4.5872,-4.5529,-4.5399,-4.4903,-4.4694,-4.4668,-4.4251,-4.3964,-4.3886,0.0,0.0,0.0,-4.4042,-4.4617,-4.4668,-4.4617,-4.433,-4.3885,-4.3728,0.0,-4.1931,-4.1725,-4.1235,-4.0543,-4.0415,0.0,0.0,0.0,0.0,0.0,0.0,0.0,0.0,0.0,0.0,0.0,-3.9342,-3.9393,-3.8662,-4.0438,-4.1879,-4.2423,-4.2579,-4.2709,-4.2683,-4.2709,-4.2735,-4.2866,-4.3258,-4.3651,-4.3729,-4.4121,-4.4591,-4.5088,-4.5245,-4.5506,-4.6029,-4.6264,-4.6552,-4.7127,-4.7571,-4.8041,-4.8512,-4.778,-4.7388,-4.7754,-4.7858,-4.7858,-4.7858,-4.7832,-4.7832,-4.7989,-4.7963,-4.7885,-4.7937,-4.7937,-4.7832,-4.7806,-4.7858,-4.7832,-4.7832,-4.7858,-4.778,-4.7832,-4.7492,-4.6996,-4.6447,-4.6238,-4.6133,-3.9321,-3.9521,-4.0048,-4.0339,0.0,-4.1148,-4.0868,-4.0161,-4.0331,-4.1118,-4.2418,-4.3139,-4.3708,-4.4094,-4.4367,-4.4505,-4.4531,-4.4926,-4.5057,-4.4999,-4.5738,-4.6055,-4.6055,-4.663,-4.6761,-4.6473,-4.6473,-4.6186,-4.5581,-4.5268,-4.5036,-4.4722,-4.4434,-4.4304,-4.4278,-4.4016,-4.3729,-4.3441,-4.4016,-4.4434,-4.4696,-4.446,-4.4173,-4.3885,-4.3598,0.0,0.0,0.0,0.0,0.0,0.0,0.0,0.0,0.0,0.0,-4.0185,-3.9753,-3.9601,-3.9699,-3.9853,-4.0183,-4.074,-4.1666,-4.1874,-4.0947,-4.2343,-4.3283,-4.3441,-4.3702,-4.3885,-4.3806,-4.3859,-4.3859,-4.3885,-4.4382,-4.4722,-4.48,-4.5245,-4.5715,-4.5976,-4.6055,-4.6264,-4.6839,-4.7179,-4.7545,-4.812,-4.8669,-4.9139,-4.9374,-4.9008,-4.8747,-4.8982,-4.9035,-4.893,-4.8695,-4.8616,-4.8486,-4.8277,-4.8172,-4.8172,-4.8172,-4.8172,-4.8172,-4.8172,-4.8172,-4.8172,-4.8172,-4.8172,-4.8172,-4.8172,-4.7963,-4.7675,-4.7336,-4.6891,-4.6499,-4.0257,-4.0513,-4.0918,-4.1206,-4.1378,-4.2037,-4.2513,-4.2681,0.0,0.0,0.0,-4.3764,-4.4094,-4.4367,-4.4613,-4.4694,-4.472,-4.519,-4.548,-4.5451,-4.6055,-4.6342,-4.6369,-4.7022,-4.7074,-4.6656,-4.71,-4.6839,-4.5895,-4.582,-4.5532,-4.5088,-4.5036,-4.4981,-4.5036,-4.5036,-4.48,-4.441,-4.4121,-4.4251,-4.4696,-4.4278,-4.3964,-4.3859,-4.3415,-4.3127,-4.3023,-4.3023,-4.3023,-4.3023,-4.3023,-4.3023,-4.2971,-4.2788,-4.2476,-4.2061,-4.1802,-4.175,-4.1827,-4.1827,-4.2136,-4.2727,-4.3588,-4.3695,-4.2891,-4.3675,-4.4199,-4.4199,-4.4696,-4.5036,-4.5036,-4.5036,-4.5036,-4.5036,-4.548,-4.5767,-4.5794,-4.6186,-4.6473,-4.6604,-4.6734,-4.7022,-4.7597,-4.8146,-4.8643,-4.9165,-4.9636,-5.0054,-5.0028,-4.9871,-4.974,-4.9766,-4.961,-4.9505,-4.9191,-4.8904,-4.8747,-4.8277,-4.8172,-4.8172,-4.8172,-4.8172,-4.8172,-4.8172,-4.8172,-4.8172,-4.8172,-4.8172,-4.8172,-4.8172,-4.8172,-4.8172,-4.8094,-4.744,-4.6865,-4.1606,-4.1492,-4.2344,-4.2513,-4.2344,-4.2961,-4.3406,-4.3653,-4.3623,-4.3764,-4.4094,-4.4203,-4.4367,-4.4613,-4.4668,-4.4694,-4.4694,-4.48,-4.4798,-4.4824,-4.548,-4.5741,-4.582,-4.6782,-4.7283,-4.7174,-4.731,-4.7257,-4.6991,-4.6604,-4.6316,-4.6238,-4.6238,-4.6212,-4.6238,-4.6238,-4.6186,-4.6163,-4.5114,-4.4643,-4.4722,-4.4589,-4.4382,-4.3885,-4.3807,-4.352,-4.3049,-4.3049,-4.3023,-4.3023,-4.3023,-4.3023,-4.3023,-4.3023,-4.2919,-4.2814,-4.2788,-4.2997,-4.3492,-4.3518,-4.3988,-4.5057,-4.5738,-4.5399,-4.3884,-4.4694,-4.5375,-4.5401,-4.5846,-4.6238,-4.6238,-4.6186,-4.6159,-4.6186,-4.629,-4.6369,-4.6369,-4.6473,-4.6734,-4.7205,-4.7649,-4.8146,-4.8669,-4.9244,-4.9557,-4.9793,-5.0106,-5.0603,-5.0472,-5.0211,-4.9923,-4.9819,-4.9479,-4.9218,-4.9061,-4.8643,-4.8381,-4.8198,-4.8172,-4.8172,-4.8172,-4.8172,-4.8172,-4.8172,-4.8172,-4.8172,-4.8172,-4.8172,-4.8172,-4.8172,-4.8172,-4.8172,-4.8172,-4.7963,-4.7858,-4.2712,-4.2681,-4.3265,-4.3376,-4.3265,-4.3683,-4.4068,-4.4313,-4.4367,-4.4313,-4.4313,-4.4476,-4.4559,-4.4694,-4.4694,-4.4694,-4.4694,-4.4694,-4.4694,-4.4694,-4.5009,-4.5085,-4.5245,-4.6342,-4.6865,-4.6891,-4.7519,-4.7649,-4.7278,-4.7017,-4.6787,-4.6499,-4.6499,-4.6499,-4.6499,-4.6499,-4.6499,-4.6473,-4.595,-4.5689,-4.5689,-4.5689,-4.5558,-4.5352,-4.5271,-4.5166,-4.4905,-4.4591,-4.438,-4.438,-4.4434,-4.438,-4.4434,-4.4722,-4.4905,-4.4905,-4.4905,-4.5009,-4.5271,-4.5271,-4.5532,-4.6055,-4.6316,-4.6159,-4.5404,-4.5767,-4.6081,-4.6107,-4.6342,-4.6499,-4.6499,-4.6499,-4.6499,-4.6499,-4.6734,-4.6944,-4.697,-4.7231,-4.7623,-4.8172,-4.8512,-4.8773,-4.9035,-4.9557,-4.974,-4.9584,-4.9949,-5.0289,-5.0315,-5.008,-4.9871,-4.9871,-4.9688,-4.9401,-4.9139,-4.8878,-4.8564,-4.825,-4.8172,-4.8172,-4.8172,-4.8172,-4.8172,-4.8172,-4.8172,-4.8172,-4.8172,-4.8172,-4.8172,-4.8172,-4.8172,-4.8172,-4.8172,-4.8172,-4.8172,-4.3602,-4.3628,-4.3929,-4.4064,-4.4094,-4.4313,-4.4505,-4.4668,-4.4694,-4.4585,-4.4422,-4.4613,-4.4694,-4.4694,-4.4694,-4.4694,-4.4694,-4.4694,-4.4694,-4.4694,-4.4694,-4.48,-4.5036,-4.6003,-4.6552,-4.6761,-4.7702,-4.7963,-4.7571,-4.7519,-4.731,-4.6891,-4.6865,-4.6865,-4.6922,-4.6865,-4.6865,-4.6865,-4.6865,-4.6734,-4.6499,-4.6499,-4.6473,-4.6499,-4.6473,-4.6499,-4.6473,-4.6055,-4.582,-4.582,-4.582,-4.582,-4.5846,-4.6238,-4.6499,-4.6499,-4.6499,-4.6499,-4.6499,-4.6604,-4.6682,-4.6682,-4.6787,-4.6865,-4.6865,-4.6865,-4.6813,-4.6708,-4.6813,-4.6891,-4.6917,-4.6891,-4.6865,-4.6891,-4.7257,-4.7519,-4.7571,-4.7911,-4.8355,-4.8799,-4.8982,-4.9087,-4.9165,-4.9557,-4.9714,-4.9479,-4.9557,-4.9688,-4.9714,-4.961,-4.9505,-4.9531,-4.961,-4.9531,-4.9139,-4.893,-4.8643,-4.8224,-4.8172,-4.8172,-4.8172,-4.8172,-4.8172,-4.8172,-4.8172,-4.8172,-4.8172,-4.8172,-4.8172,-4.8172,-4.8172,-4.8172,-4.8172,-4.8172,-4.8172,-4.4203,-4.4258,-4.4476,-4.4613,-4.4639,-4.4639,-4.4694,-4.4694,-4.4694,-4.4668,-4.4668,-4.4668,-4.4694,-4.4694,-4.4694,-4.4694,-4.4694,-4.4694,-4.4694,-4.4694,-4.4694,-4.4955,-4.5532,-4.6186,-4.6761,-4.7257,-4.7885,-4.8146,-4.8068,-4.8068,-4.8068,-4.8041,-4.8015,-4.7989,-4.7989,-4.7989,-4.8015,-4.8015,-4.8041,-4.7519,-4.6552,-4.6499,-4.6499,-4.6499,-4.6499,-4.6499,-4.6552,-4.6421,-4.6395,-4.6395,-4.6395,-4.6395,-4.6395,-4.6473,-4.6499,-4.6525,-4.6499,-4.6499,-4.6525,-4.697,-4.72,-4.7283,-4.7702,-4.7963,-4.7963,-4.7989,-4.778,-4.744,-4.7728,-4.7937,-4.8015,-4.7963,-4.7911,-4.7858,-4.7989,-4.812,-4.8094,-4.8146,-4.8198,-4.825,-4.8799,-4.9087,-4.9139,-4.9479,-4.9766,-4.9557,-4.9374,-4.927,-4.9218,-4.8956,-4.8695,-4.8616,-4.8826,-4.9165,-4.9008,-4.859,-4.8355,-4.8198,-4.8198,-4.825,-4.8277,-4.8303,-4.8198,-4.8355,-4.825,-4.8277,-4.8172,-4.8172,-4.8172,-4.8172,-4.8172,-4.8172,-4.8172,-4.8172,-4.8172,-4.4739,-4.508,-4.5216,-4.519,-4.5271,-4.5216,-4.5007,-4.4694,-4.4694,-4.4694,-4.4694,-4.4694,-4.4694,-4.4694,-4.4694,-4.4694,-4.4694,-4.4694,-4.4694,-4.472,-4.5033,-4.5401,-4.5634,-4.6578,-4.7127,-4.7304,-4.7911,-4.8172,-4.8172,-4.8172,-4.8172,-4.8172,-4.8172,-4.8172,-4.8172,-4.8172,-4.8172,-4.8172,-4.8172,-4.7937,-4.7571,-4.7492,-4.7492,-4.7492,-4.7492,-4.7492,-4.744,-4.7179,-4.6996,-4.6996,-4.697,-4.6996,-4.6996,-4.731,-4.7492,-4.7492,-4.7492,-4.7492,-4.7492,-4.7702,-4.7832,-4.7832,-4.8041,-4.8172,-4.8172,-4.8172,-4.8068,-4.7911,-4.8041,-4.8172,-4.8172,-4.8172,-4.8172,-4.8172,-4.8172,-4.8172,-4.8172,-4.8172,-4.8303,-4.8643,-4.893,-4.9087,-4.9061,-4.8956,-4.8904,-4.893,-4.8956,-4.9191,-4.9113,-4.9113,-4.9218,-4.927,-4.9714,-4.9557,-4.8852,-4.8381,-4.8224,-4.825,-4.8486,-4.8695,-4.8747,-4.9035,-4.9113,-4.8773,-4.8721,-4.8538,-4.8224,-4.8198,-4.8172,-4.8224,-4.8198,-4.8172,-4.8172,-4.8172,-4.8172,-4.5323,-4.582,-4.5846,-4.5846,-4.5872,-4.5846,-4.5611,-4.5245,-4.5218,-4.5192,-4.5218,-4.5192,-4.5192,-4.5166,-4.4879,-4.4694,-4.4694,-4.4694,-4.4772,-4.4955,-4.5373,-4.5794,-4.6104,-4.6861,-4.7357,-4.7623,-4.7989,-4.8172,-4.8172,-4.8172,-4.8172,-4.8172,-4.8172,-4.8172,-4.8172,-4.8172,-4.8277,-4.8407,-4.8277,-4.825,-4.8381,-4.8277,-4.8172,-4.8172,-4.8172,-4.8172,-4.8172,-4.778,-4.7571,-4.7571,-4.7571,-4.7571,-4.7597,-4.7963,-4.8172,-4.8172,-4.8172,-4.8172,-4.8172,-4.8172,-4.8172,-4.8172,-4.8172,-4.8172,-4.8172,-4.8172,-4.8172,-4.8172,-4.8329,-4.8407,-4.8198,-4.8172,-4.8172,-4.8172,-4.8172,-4.8172,-4.8172,-4.8172,-4.8329,-4.8747,-4.8747,-4.8904,-4.9008,-4.8904,-4.8852,-4.9113,-4.9505,-4.9766,-4.9819,-5.0132,-5.0368,-5.0368,-5.0629,-5.008,-4.8799,-4.8878,-4.8773,-4.859,-4.8904,-4.9296,-4.9296,-4.9688,-4.9845,-4.9322,-4.9296,-4.9244,-4.8982,-4.8773,-4.8616,-4.8616,-4.8564,-4.846,-4.8512,-4.8355,-4.8198,-4.5924,-4.6421,-4.6447,-4.6473,-4.6447,-4.6447,-4.6421,-4.6264,-4.6342,-4.6369,-4.6316,-4.6342,-4.6369,-4.6264,-4.5271,-4.472,-4.472,-4.4772,-4.5114,-4.5558,-4.5607,-4.6182,-4.7148,-4.7336,-4.7623,-4.8041,-4.812,-4.8172,-4.8172,-4.8172,-4.8172,-4.8172,-4.8172,-4.8198,-4.8224,-4.825,-4.8486,-4.893,-4.8564,-4.8486,-4.8904,-4.8512,-4.825,-4.8224,-4.8172,-4.8172,-4.8172,-4.8172,-4.812,-4.8146,-4.8146,-4.8146,-4.8146,-4.8198,-4.825,-4.825,-4.825,-4.8224,-4.8224,-4.8224,-4.8224,-4.8172,-4.8172,-4.8172,-4.8198,-4.825,-4.8277,-4.8198,-4.8747,-4.8826,-4.8407,-4.8407,-4.8329,-4.8303,-4.825,-4.8277,-4.825,-4.8355,-4.8198,-4.8355,-4.8512,-4.8799,-4.9113,-4.9531,-5.0002,-5.0472,-5.1073,-5.1387,-5.1335,-5.1439,-5.1465,-5.1361,-5.11,-5.042,-4.9427,-4.9479,-4.9714,-4.9531,-4.9427,-4.9845,-4.9845,-4.9871,-4.9897,-4.9897,-4.9871,-4.9871,-4.9819,-4.974,-4.9636,-4.9505,-4.9191,-4.9061,-4.9008,-4.8512,-4.8355,-4.6499,-4.7048,-4.7414,-4.7362,-4.7022,-4.7022,-4.6813,-4.6499,-4.6499,-4.6499,-4.6499,-4.6499,-4.6499,-4.6447,-4.6055,-4.5846,-4.5846,-4.5846,-4.5976,-4.6212,-4.6552,-4.6887,-4.7252,-4.7702,-4.7963,-4.8146,-4.8172,-4.8172,-4.8172,-4.8172,-4.8172,-4.8172,-4.8172,-4.8355,-4.8695,-4.8747,-4.9035,-4.9531,-4.9374,-4.9401,-4.9557,-4.9401,-4.9113,-4.8747,-4.8381,-4.8172,-4.8172,-4.8172,-4.8172,-4.8172,-4.8538,-4.8773,-4.8799,-4.9087,-4.927,-4.927,-4.927,-4.9113,-4.8826,-4.8747,-4.859,-4.8224,-4.8172,-4.8198,-4.825,-4.8538,-4.8773,-4.8852,-4.927,-4.9453,-4.9348,-4.927,-4.927,-4.927,-4.927,-4.9218,-4.927,-4.927,-4.927,-4.9322,-4.9584,-4.9949,-5.0132,-5.0655,-5.1047,-5.1309,-5.1805,-5.2119,-5.2171,-5.2171,-5.2171,-5.2145,-5.1988,-5.1492,-5.0368,-5.0054,-5.0028,-4.9976,-5.0002,-5.0342,-5.0472,-5.0734,-5.0838,-5.0524,-5.0472,-5.0315,-5.0263,-5.0106,-5.0106,-5.0002,-4.9714,-4.9636,-4.961,-4.9113,-4.8852,-4.7257,-4.7649,-4.8015,-4.7963,-4.7623,-4.7597,-4.7388,-4.7048,-4.7022,-4.7022,-4.7022,-4.7022,-4.7022,-4.7022,-4.7048,-4.7022,-4.697,-4.6682,-4.6578,-4.6787,-4.7153,-4.7357,-4.7649,-4.7989,-4.8172,-4.8172,-4.8172,-4.8277,-4.846,-4.8486,-4.8564,-4.8747,-4.8747,-4.893,-4.9296,-4.9348,-4.9636,-5.0054,-5.0002,-4.9949,-5.0132,-4.9976,-4.974,-4.9348,-4.893,-4.8538,-4.8224,-4.8355,-4.8486,-4.8538,-4.9035,-4.9348,-4.9401,-4.9688,-4.9897,-4.9871,-4.9714,-4.9479,-4.9113,-4.8904,-4.8695,-4.8512,-4.8486,-4.8538,-4.8721,-4.9113,-4.9322,-4.9453,-4.9845,-5.0185,-5.0211,-5.0315,-5.0289,-5.0002,-4.9897,-4.9897,-4.9897,-4.9871,-4.9949,-5.0159,-5.0446,-5.0786,-5.1073,-5.1544,-5.1805,-5.1884,-5.2406,-5.2746,-5.2798,-5.2798,-5.2798,-5.2772,-5.2563,-5.2145,-5.1413,-5.1021,-5.0577,-5.0446,-5.0577,-5.089,-5.1047,-5.1387,-5.1465,-5.1152,-5.0943,-5.0786,-5.0629,-5.0472,-5.042,-5.0368,-5.0289,-5.0211,-5.0002,-4.9714,-4.9479,-4.8146,-4.8146,-4.8172,-4.8172,-4.8094,-4.8094,-4.8146,-4.8068,-4.8068,-4.7989,-4.7963,-4.8094,-4.7989,-4.8094,-4.7989,-4.8094,-4.7858,-4.7074,-4.6917,-4.731,-4.7388,-4.7675,-4.8094,-4.8146,-4.8172,-4.8172,-4.8172,-4.8486,-4.8982,-4.9008,-4.9244,-4.974,-4.974,-4.974,-4.9897,-4.9923,-5.0185,-5.0577,-5.0315,-5.0289,-5.0629,-5.0315,-5.0028,-4.9923,-4.9845,-4.9348,-4.8329,-4.8799,-4.9087,-4.9139,-4.961,-4.9897,-4.9949,-5.0028,-4.9976,-4.9976,-4.9505,-4.9218,-4.9113,-4.8747,-4.8799,-4.8956,-4.9087,-4.927,-4.9584,-4.9819,-4.9897,-4.9976,-5.042,-5.0786,-5.0864,-5.1152,-5.1073,-5.0159,-5.0106,-5.0106,-5.0028,-4.9949,-5.0132,-5.0655,-5.0917,-5.1047,-5.157,-5.2119,-5.2485,-5.2589,-5.2929,-5.3269,-5.3217,-5.3164,-5.3295,-5.3164,-5.272,-5.2093,-5.204,-5.1962,-5.1413,-5.0995,-5.123,-5.1439,-5.1387,-5.1596,-5.1596,-5.1361,-5.1361,-5.1204,-5.1204,-5.1073,-5.1178,-5.1126,-5.0969,-5.076,-5.0603,-5.0368,-5.0054,-4.8172,-4.8172,-4.8172,-4.8172,-4.8172,-4.8172,-4.8172,-4.8172,-4.8172,-4.8172,-4.8172,-4.8172,-4.8172,-4.8172,-4.8172,-4.8172,-4.8146,-4.778,-4.7754,-4.7885,-4.7911,-4.7989,-4.8146,-4.8172,-4.8172,-4.8172,-4.8172,-4.8486,-4.9008,-4.9113,-4.9348,-4.9793,-4.9897,-5.0106,-5.0498,-5.0524,-5.0786,-5.1256,-5.1152,-5.1178,-5.1335,-5.1152,-5.089,-5.0551,-5.0498,-5.0132,-4.9427,-4.9531,-4.9636,-4.9662,-5.0211,-5.0681,-5.0969,-5.1073,-5.1073,-5.1047,-5.0917,-5.0629,-5.0289,-5.0054,-4.9766,-4.9714,-4.9636,-4.9714,-4.9897,-5.0289,-5.0498,-5.0551,-5.1021,-5.1335,-5.1387,-5.1465,-5.1413,-5.11,-5.1073,-5.0995,-5.0969,-5.1021,-5.1152,-5.1335,-5.1701,-5.2014,-5.225,-5.272,-5.2981,-5.2955,-5.3191,-5.3321,-5.3295,-5.2955,-5.2798,-5.272,-5.225,-5.1962,-5.1884,-5.1831,-5.157,-5.1282,-5.1465,-5.1596,-5.1596,-5.1596,-5.1596,-5.1596,-5.1596,-5.1596,-5.1596,-5.1596,-5.1596,-5.1596,-5.1361,-5.1256,-5.1256,-5.1021,-5.0629,-4.8172,-4.8172,-4.8172,-4.8172,-4.8172,-4.8172,-4.8172,-4.8172,-4.8172,-4.8172,-4.8172,-4.8172,-4.8172,-4.8172,-4.8172,-4.8172,-4.8172,-4.8172,-4.8172,-4.8172,-4.8172,-4.8172,-4.8224,-4.8433,-4.8512,-4.8564,-4.8721,-4.9113,-4.9688,-4.974,-5.0002,-5.0446,-5.0524,-5.0707,-5.1073,-5.11,-5.1282,-5.157,-5.1596,-5.1596,-5.1596,-5.1596,-5.1413,-5.1152,-5.11,-5.089,-5.0551,-5.0524,-5.042,-5.0368,-5.0786,-5.1256,-5.157,-5.1596,-5.1596,-5.157,-5.1361,-5.11,-5.0812,-5.0472,-5.0446,-5.0237,-5.0211,-5.0342,-5.0524,-5.0917,-5.1073,-5.1152,-5.1361,-5.1675,-5.1884,-5.1936,-5.1936,-5.1936,-5.1675,-5.1622,-5.1596,-5.1596,-5.1727,-5.1884,-5.2223,-5.2433,-5.2589,-5.2746,-5.2955,-5.2825,-5.272,-5.272,-5.2668,-5.2406,-5.2276,-5.2145,-5.191,-5.1727,-5.1648,-5.1622,-5.1622,-5.157,-5.157,-5.1596,-5.1596,-5.1596,-5.1596,-5.1596,-5.1596,-5.1596,-5.1596,-5.1596,-5.1596,-5.1596,-5.1596,-5.1544,-5.1439,-5.1361,-5.1073,-4.8172,-4.8172,-4.8172,-4.8172,-4.8172,-4.8172,-4.8172,-4.8172,-4.8172,-4.8172,-4.8172,-4.8172,-4.8172,-4.8172,-4.8172,-4.8172,-4.8172,-4.8172,-4.825,-4.8303,-4.8303,-4.8329,-4.8381,-4.8878,-4.9113,-4.9191,-4.9557,-5.0106,-5.0577,-5.0603,-5.1073,-5.1413,-5.1413,-5.1544,-5.1518,-5.157,-5.1544,-5.1596,-5.1596,-5.1596,-5.1596,-5.1596,-5.1596,-5.1544,-5.1544,-5.1492,-5.1439,-5.1413,-5.1256,-5.0969,-5.1282,-5.1544,-5.1596,-5.1596,-5.1596,-5.157,-5.1126,-5.0995,-5.076,-5.0551,-5.0394,-5.0786,-5.0838,-5.1021,-5.1361,-5.1439,-5.1544,-5.1648,-5.1701,-5.1936,-5.2406,-5.2537,-5.2563,-5.2485,-5.1988,-5.1648,-5.1596,-5.1596,-5.1779,-5.2197,-5.2433,-5.2433,-5.2354,-5.2406,-5.2197,-5.191,-5.1779,-5.1831,-5.1831,-5.1831,-5.1675,-5.1622,-5.1648,-5.1648,-5.1596,-5.1596,-5.1596,-5.1596,-5.1596,-5.1596,-5.1596,-5.1596,-5.1596,-5.1596,-5.1596,-5.1596,-5.1596,-5.1596,-5.1596,-5.1596,-5.1596,-5.1596,-5.1544,-5.1465,-5.1413,-4.8172,-4.8172,-4.8172,-4.8172,-4.8172,-4.8172,-4.8172,-4.8172,-4.8172,-4.8172,-4.8172,-4.8172,-4.8172,-4.8172,-4.8172,-4.8172,-4.8172,-4.8198,-4.846,-4.8799,-4.8852,-4.8852,-4.8956,-4.9401,-4.9688,-4.9714,-4.9897,-5.0211,-5.076,-5.0838,-5.11,-5.1596,-5.1596,-5.1596,-5.1596,-5.1596,-5.1596,-5.1596,-5.1596,-5.1596,-5.1596,-5.1596,-5.1596,-5.1596,-5.1596,-5.1596,-5.1596,-5.1596,-5.1544,-5.1413,-5.1492,-5.1596,-5.1596,-5.1596,-5.1596,-5.157,-5.1465,-5.1387,-5.1335,-5.1204,-5.123,-5.1335,-5.1335,-5.1439,-5.157,-5.1596,-5.1805,-5.2093,-5.2276,-5.2511,-5.3008,-5.3164,-5.3164,-5.3034,-5.2302,-5.1701,-5.1701,-5.1622,-5.1675,-5.1805,-5.191,-5.1962,-5.1962,-5.1936,-5.1831,-5.1675,-5.1596,-5.1596,-5.1596,-5.1596,-5.1596,-5.1596,-5.1622,-5.1622,-5.1596,-5.1596,-5.1596,-5.1596,-5.1596,-5.1596,-5.1596,-5.1596,-5.1596,-5.1596,-5.1596,-5.1596,-5.1596,-5.1596,-5.1596,-5.1596,-5.1596,-5.1596,-5.1596,-5.1544,-5.1544,-4.8172,-4.8172,-4.8172,-4.8172,-4.8172,-4.8172,-4.8172,-4.8172,-4.8172,-4.8172,-4.8172,-4.8172,-4.8172,-4.8172,-4.8172,-4.8172,-4.8198,-4.846,-4.8773,-4.9113,-4.9584,-4.9662,-4.9636,-5.0002,-5.0263,-5.0315,-5.0498,-5.0786,-5.11,-5.1126,-5.1309,-5.1544,-5.1596,-5.1596,-5.1596,-5.1596,-5.1596,-5.1596,-5.1596,-5.1596,-5.1596,-5.1596,-5.1596,-5.1596,-5.1596,-5.1596,-5.1596,-5.1596,-5.1596,-5.1596,-5.1596,-5.1596,-5.1596,-5.1596,-5.1596,-5.1596,-5.1596,-5.1596,-5.1596,-5.1596,-5.1596,-5.1596,-5.1596,-5.1596,-5.1675,-5.1805,-5.2197,-5.2406,-5.272,-5.3138,-5.3609,-5.3739,-5.3739,-5.3635,-5.2903,-5.238,-5.2354,-5.2406,-5.2354,-5.2354,-5.2354,-5.2223,-5.204,-5.1962,-5.1831,-5.1675,-5.1596,-5.1596,-5.1596,-5.1622,-5.1596,-5.1596,-5.1596,-5.1596,-5.1596,-5.1596,-5.1596,-5.1596,-5.1596,-5.1596,-5.1596,-5.1596,-5.1596,-5.1596,-5.1596,-5.1596,-5.1596,-5.1596,-5.1596,-5.1596,-5.1596,-5.1596,-5.1596,-5.1596,-5.1596,-4.8172,-4.8172,-4.8172,-4.8172,-4.8172,-4.8172,-4.8172,-4.8172,-4.8172,-4.8172,-4.8172,-4.8172,-4.8172,-4.8172,-4.8172,-4.8172,-4.8224,-4.8747,-4.9139,-4.961,-5.0211,-5.0577,-5.0263,-5.0629,-5.0838,-5.0917,-5.1387,-5.1492,-5.1518,-5.1544,-5.157,-5.1596,-5.1596,-5.1596,-5.1596,-5.1596,-5.1596,-5.1596,-5.1596,-5.1596,-5.1596,-5.1622,-5.1648,-5.1805,-5.1805,-5.1779,-5.1753,-5.1675,-5.1596,-5.1596,-5.1596,-5.1596,-5.1596,-5.1596,-5.1596,-5.1596,-5.1596,-5.1596,-5.1596,-5.1596,-5.1596,-5.1622,-5.1675,-5.1701,-5.1858,-5.225,-5.2668,-5.2877,-5.3191,-5.3713,-5.4184,-5.4288,-5.4288,-5.4236,-5.3818,-5.3609,-5.3556,-5.3478,-5.34,-5.3373,-5.3321,-5.3008,-5.2772,-5.2459,-5.225,-5.2276,-5.2093,-5.191,-5.191,-5.1936,-5.1805,-5.1596,-5.1596,-5.1596,-5.1596,-5.1596,-5.1596,-5.1596,-5.1596,-5.1596,-5.1596,-5.1596,-5.1596,-5.1596,-5.1596,-5.1596,-5.1596,-5.1596,-5.1596,-5.1596,-5.1596,-5.1596,-5.1596,-5.1596,-5.1596,-4.8172,-4.8172,-4.8172,-4.8172,-4.8172,-4.8172,-4.8172,-4.8172,-4.8172,-4.8172,-4.8172,-4.8172,-4.8172,-4.8172,-4.8172,-4.8172,-4.8329,-4.893,-4.9505,-5.0498,-5.1073,-5.1361,-5.1204,-5.1361,-5.1387,-5.1439,-5.1518,-5.1596,-5.1596,-5.1596,-5.1622,-5.1622,-5.1701,-5.1622,-5.1675,-5.1701,-5.1622,-5.1596,-5.1596,-5.1596,-5.1596,-5.1622,-5.1779,-5.2119,-5.225,-5.2276,-5.2197,-5.1858,-5.1622,-5.1596,-5.1596,-5.1596,-5.1596,-5.1596,-5.1596,-5.1596,-5.1596,-5.1596,-5.1622,-5.1648,-5.1622,-5.1753,-5.2093,-5.2302,-5.2328,-5.2851,-5.3373,-5.3713,-5.3975,-5.4288,-5.4733,-5.4889,-5.4837,-5.4785,-5.4733,-5.4654,-5.4576,-5.3949,-5.3556,-5.34,-5.3138,-5.2851,-5.3112,-5.2354,-5.2328,-5.2746,-5.2642,-5.2354,-5.2302,-5.2302,-5.2171,-5.2014,-5.1988,-5.204,-5.2014,-5.1936,-5.1727,-5.1648,-5.1596,-5.1596,-5.1596,-5.1596,-5.1596,-5.1596,-5.1596,-5.1596,-5.1596,-5.1596,-5.1596,-5.1596,-5.1596,-5.1596,-5.1596,-5.1596,-5.1596,-4.8172,-4.8172,-4.8172,-4.8172,-4.8172,-4.8172,-4.8172,-4.8172,-4.8172,-4.8172,-4.8172,-4.8172,-4.8172,-4.8172,-4.8198,-4.8303,-4.8773,-4.9505,-5.0342,-5.1073,-5.1492,-5.1596,-5.1596,-5.1596,-5.1596,-5.1622,-5.1596,-5.1596,-5.1596,-5.1648,-5.1753,-5.2014,-5.2014,-5.225,-5.2328,-5.2171,-5.204,-5.1962,-5.1727,-5.1596,-5.1596,-5.1622,-5.1675,-5.2093,-5.2302,-5.2406,-5.204,-5.1779,-5.1622,-5.1622,-5.1622,-5.1622,-5.1596,-5.1596,-5.1596,-5.1596,-5.1596,-5.1779,-5.191,-5.204,-5.2171,-5.2406,-5.2746,-5.2851,-5.3034,-5.3452,-5.3844,-5.4184,-5.4445,-5.4785,-5.5046,-5.5072,-5.5099,-5.5099,-5.5099,-5.5099,-5.4994,-5.455,-5.4184,-5.4131,-5.4027,-5.3818,-5.3478,-5.2746,-5.2668,-5.3191,-5.2746,-5.2485,-5.2903,-5.2903,-5.2851,-5.272,-5.2589,-5.2537,-5.2485,-5.2302,-5.1936,-5.1779,-5.1596,-5.1596,-5.1596,-5.1596,-5.1596,-5.1596,-5.1596,-5.1596,-5.1596,-5.1596,-5.1596,-5.1596,-5.1596,-5.1596,-5.1596,-5.1596,-5.1596,-4.8172,-4.8172,-4.8172,-4.8172,-4.8172,-4.8172,-4.8172,-4.8172,-4.8172,-4.8172,-4.8172,-4.8172,-4.825,-4.8329,-4.8355,-4.8695,-4.9453,-5.0185,-5.0969,-5.1465,-5.157,-5.1596,-5.1596,-5.1596,-5.1701,-5.1701,-5.1622,-5.1622,-5.1779,-5.1779,-5.2119,-5.2537,-5.2642,-5.2798,-5.3112,-5.2929,-5.2642,-5.2563,-5.225,-5.2067,-5.204,-5.2014,-5.2067,-5.2171,-5.2276,-5.2433,-5.2145,-5.1936,-5.1831,-5.1858,-5.1858,-5.1858,-5.1858,-5.1753,-5.1727,-5.1779,-5.1936,-5.225,-5.2537,-5.2668,-5.2851,-5.3373,-5.3504,-5.3504,-5.3609,-5.4001,-5.4314,-5.4524,-5.4759,-5.502,-5.5099,-5.5099,-5.5099,-5.5099,-5.5099,-5.5099,-5.5099,-5.5099,-5.4968,-5.4942,-5.455,-5.4236,-5.4001,-5.3478,-5.353,-5.3478,-5.2981,-5.2825,-5.3269,-5.3478,-5.34,-5.3191,-5.3008,-5.2694,-5.2589,-5.2537,-5.2197,-5.1805,-5.1596,-5.1596,-5.1596,-5.1596,-5.1596,-5.1596,-5.1596,-5.1596,-5.1596,-5.1596,-5.1596,-5.1596,-5.1596,-5.1596,-5.1596,-5.1596,-5.1596,-4.8172,-4.8172,-4.8172,-4.8172,-4.8172,-4.8172,-4.8172,-4.8172,-4.8172,-4.8172,-4.8198,-4.8198,-4.8512,-4.8799,-4.893,-4.9505,-5.0263,-5.0786,-5.1126,-5.1544,-5.1596,-5.1596,-5.1596,-5.1701,-5.1884,-5.2093,-5.1936,-5.1884,-5.2223,-5.238,-5.2537,-5.306,-5.3191,-5.3321,-5.3373,-5.3295,-5.3243,-5.3217,-5.3008,-5.2903,-5.2903,-5.2929,-5.2798,-5.2746,-5.2563,-5.2589,-5.2798,-5.2563,-5.2589,-5.3034,-5.3086,-5.306,-5.2929,-5.2589,-5.2406,-5.2406,-5.2694,-5.2981,-5.3191,-5.3243,-5.3295,-5.3478,-5.3766,-5.4027,-5.4158,-5.4497,-5.4602,-5.4837,-5.4942,-5.5099,-5.5099,-5.5099,-5.5099,-5.5099,-5.5099,-5.5099,-5.5099,-5.5099,-5.5099,-5.5072,-5.4785,-5.4524,-5.4314,-5.4079,-5.3922,-5.387,-5.3635,-5.3583,-5.3949,-5.4001,-5.3896,-5.3635,-5.3347,-5.2955,-5.2616,-5.2563,-5.2354,-5.1831,-5.1596,-5.1596,-5.1596,-5.1596,-5.1596,-5.1596,-5.1596,-5.1596,-5.1596,-5.1596,-5.1596,-5.1596,-5.1596,-5.1596,-5.1596,-5.1596,-5.1596,-4.8172,-4.8172,-4.8172,-4.8172,-4.8172,-4.8172,-4.8172,-4.8172,-4.8172,-4.8172,-4.8277,-4.8512,-4.8773,-4.9087,-4.9401,-5.0002,-5.0655,-5.1126,-5.1335,-5.1596,-5.1596,-5.1596,-5.1701,-5.1884,-5.2197,-5.2354,-5.2223,-5.2171,-5.2459,-5.2485,-5.2694,-5.2903,-5.3217,-5.353,-5.3766,-5.3818,-5.3792,-5.3739,-5.3556,-5.34,-5.34,-5.34,-5.3164,-5.2563,-5.2511,-5.2511,-5.238,-5.2616,-5.2616,-5.2903,-5.3217,-5.3373,-5.34,-5.3426,-5.3243,-5.3086,-5.3269,-5.3556,-5.3739,-5.3818,-5.3949,-5.4236,-5.4288,-5.421,-5.4184,-5.421,-5.4445,-5.468,-5.502,-5.5099,-5.5099,-5.5099,-5.5099,-5.5099,-5.5099,-5.5099,-5.5099,-5.5099,-5.5099,-5.5099,-5.4942,-5.4837,-5.4811,-5.455,-5.4288,-5.4184,-5.4158,-5.4314,-5.455,-5.4524,-5.4393,-5.4288,-5.4001,-5.3609,-5.3191,-5.2955,-5.2563,-5.1988,-5.1701,-5.1701,-5.1596,-5.1596,-5.1596,-5.1596,-5.1596,-5.1596,-5.1596,-5.1596,-5.1596,-5.1596,-5.1596,-5.1596,-5.1596,-5.1596,-5.1596,-4.8172,-4.8172,-4.8172,-4.8172,-4.8172,-4.8172,-4.8172,-4.8172,-4.8172,-4.8172,-4.8277,-4.8773,-4.9113,-4.9401,-4.9949,-5.0551,-5.0995,-5.1439,-5.157,-5.1596,-5.1622,-5.1648,-5.1936,-5.2223,-5.2642,-5.3008,-5.2746,-5.2668,-5.2694,-5.2563,-5.2563,-5.2877,-5.3243,-5.3583,-5.3896,-5.387,-5.4027,-5.3896,-5.3661,-5.3426,-5.34,-5.3217,-5.2798,-5.191,-5.225,-5.2328,-5.2302,-5.2746,-5.306,-5.3321,-5.3583,-5.3818,-5.3818,-5.4158,-5.4184,-5.3844,-5.3739,-5.4001,-5.4236,-5.4393,-5.455,-5.4863,-5.4471,-5.4341,-5.4367,-5.4288,-5.4079,-5.4393,-5.4759,-5.5099,-5.5099,-5.5099,-5.5099,-5.5099,-5.5099,-5.5099,-5.5099,-5.5099,-5.5099,-5.5099,-5.5099,-5.5072,-5.502,-5.468,-5.4314,-5.4445,-5.4445,-5.4524,-5.4733,-5.4889,-5.4863,-5.4942,-5.4733,-5.4341,-5.3949,-5.3583,-5.2981,-5.2197,-5.1962,-5.191,-5.1753,-5.1596,-5.1596,-5.1596,-5.1596,-5.1596,-5.1596,-5.1596,-5.1596,-5.1596,-5.1596,-5.1596,-5.1596,-5.1596,-5.1596,-4.8172,-4.8172,-4.8172,-4.8172,-4.8172,-4.8172,-4.8172,-4.8172,-4.8172,-4.8172,-4.8303,-4.8852,-4.9401,-4.9976,-5.089,-5.1361,-5.1492,-5.1518,-5.1648,-5.1701,-5.1727,-5.1962,-5.2328,-5.2406,-5.3138,-5.3556,-5.3373,-5.3321,-5.3086,-5.272,-5.272,-5.306,-5.3138,-5.3426,-5.3452,-5.3583,-5.3504,-5.3504,-5.3452,-5.3426,-5.3347,-5.2981,-5.2668,-5.2485,-5.2511,-5.2694,-5.2981,-5.3478,-5.3975,-5.4497,-5.4707,-5.4863,-5.4916,-5.4942,-5.4968,-5.4916,-5.4916,-5.4942,-5.4916,-5.4889,-5.4889,-5.4968,-5.455,-5.4576,-5.4524,-5.4707,-5.4654,-5.4942,-5.5072,-5.5099,-5.5099,-5.5099,-5.5099,-5.5099,-5.5099,-5.5099,-5.5099,-5.5125,-5.5099,-5.5177,-5.5203,-5.5177,-5.5151,-5.4707,-5.4367,-5.4576,-5.4733,-5.4811,-5.4863,-5.502,-5.5099,-5.5099,-5.502,-5.468,-5.4288,-5.3975,-5.3321,-5.2433,-5.225,-5.2093,-5.1805,-5.1596,-5.1596,-5.1596,-5.1596,-5.1596,-5.1596,-5.1596,-5.1596,-5.1596,-5.1596,-5.1596,-5.1596,-5.1596,-5.1596,-4.8172,-4.8172,-4.8172,-4.8172,-4.8172,-4.8172,-4.8172,-4.8172,-4.8172,-4.8381,-4.8747,-4.9296,-5.0028,-5.0812,-5.1465,-5.1596,-5.1596,-5.1596,-5.1805,-5.204,-5.2119,-5.2433,-5.2955,-5.3295,-5.387,-5.387,-5.3713,-5.3373,-5.3191,-5.2798,-5.2563,-5.2406,-5.272,-5.2851,-5.2929,-5.3217,-5.3373,-5.3504,-5.3635,-5.3687,-5.3504,-5.34,-5.3295,-5.3034,-5.3008,-5.3164,-5.3452,-5.3922,-5.4288,-5.4602,-5.4602,-5.4785,-5.4889,-5.4837,-5.468,-5.5072,-5.5072,-5.5072,-5.5072,-5.5099,-5.5099,-5.4968,-5.4576,-5.421,-5.4262,-5.4471,-5.4628,-5.4576,-5.4916,-5.5072,-5.5099,-5.5099,-5.5099,-5.5099,-5.5099,-5.5099,-5.5099,-5.5125,-5.5151,-5.5229,-5.5308,-5.5308,-5.5282,-5.4994,-5.4733,-5.4785,-5.4916,-5.4942,-5.4994,-5.5046,-5.5099,-5.5099,-5.502,-5.4863,-5.4471,-5.4105,-5.3504,-5.2798,-5.2459,-5.225,-5.1805,-5.1596,-5.1596,-5.1596,-5.1596,-5.1596,-5.1596,-5.1596,-5.1596,-5.1596,-5.1596,-5.1596,-5.1596,-5.1596,-5.1596,-4.8172,-4.8172,-4.8172,-4.8172,-4.8172,-4.8172,-4.8172,-4.8172,-4.8172,-4.8512,-4.9165,-4.9793,-5.0681,-5.1413,-5.157,-5.1596,-5.1596,-5.1596,-5.1962,-5.2302,-5.2589,-5.2903,-5.34,-5.3896,-5.3975,-5.4184,-5.34,-5.3138,-5.2955,-5.2563,-5.1988,-5.1622,-5.2093,-5.225,-5.238,-5.2616,-5.2851,-5.3112,-5.3426,-5.3504,-5.3478,-5.3739,-5.3635,-5.353,-5.3504,-5.3609,-5.3687,-5.4158,-5.4471,-5.4497,-5.4341,-5.4471,-5.468,-5.4497,-5.4445,-5.4785,-5.4942,-5.5099,-5.5099,-5.5099,-5.5099,-5.4968,-5.4759,-5.4341,-5.387,-5.4079,-5.4445,-5.4576,-5.4837,-5.5072,-5.5099,-5.5099,-5.5099,-5.5099,-5.5099,-5.5099,-5.5099,-5.5177,-5.5308,-5.5465,-5.5517,-5.5491,-5.5412,-5.5255,-5.5125,-5.5072,-5.5099,-5.5099,-5.5099,-5.5099,-5.5099,-5.5099,-5.5046,-5.4968,-5.4759,-5.4288,-5.3661,-5.3164,-5.2851,-5.2354,-5.1884,-5.1648,-5.1596,-5.1596,-5.1596,-5.1596,-5.1596,-5.1596,-5.1596,-5.1596,-5.1596,-5.1596,-5.1596,-5.1596,-5.1596,-4.8172,-4.8172,-4.8172,-4.8172,-4.8172,-4.8172,-4.8172,-4.8198,-4.8198,-4.8616,-4.9348,-5.0211,-5.1047,-5.1465,-5.1596,-5.1596,-5.1596,-5.1596,-5.2067,-5.2406,-5.2589,-5.3269,-5.3766,-5.3922,-5.3766,-5.3949,-5.3243,-5.272,-5.2485,-5.225,-5.1831,-5.1648,-5.1805,-5.1727,-5.1805,-5.2067,-5.2433,-5.2746,-5.3034,-5.3269,-5.34,-5.3609,-5.3609,-5.3661,-5.3896,-5.4158,-5.4184,-5.4654,-5.4916,-5.4889,-5.4367,-5.4184,-5.4341,-5.4184,-5.421,-5.4445,-5.4889,-5.5046,-5.5099,-5.5099,-5.5099,-5.5072,-5.4968,-5.4707,-5.4262,-5.468,-5.4968,-5.4942,-5.5046,-5.5072,-5.5099,-5.5099,-5.5099,-5.5099,-5.5125,-5.5203,-5.5229,-5.5255,-5.5412,-5.5674,-5.5726,-5.5647,-5.5517,-5.5334,-5.5177,-5.5099,-5.5099,-5.5099,-5.5099,-5.5099,-5.5099,-5.5099,-5.5099,-5.5072,-5.5072,-5.4654,-5.421,-5.3687,-5.3243,-5.2563,-5.191,-5.1753,-5.1622,-5.1596,-5.1596,-5.1596,-5.1596,-5.1596,-5.1596,-5.1596,-5.1596,-5.1596,-5.1596,-5.1596,-5.1596,-4.8172,-4.8172,-4.8172,-4.8172,-4.8172,-4.8172,-4.8172,-4.825,-4.859,-4.927,-5.0132,-5.0943,-5.1413,-5.157,-5.1596,-5.1596,-5.1675,-5.2014,-5.2485,-5.3008,-5.3452,-5.4027,-5.4367,-5.421,-5.4001,-5.387,-5.306,-5.2485,-5.2459,-5.2171,-5.2171,-5.2067,-5.1858,-5.1648,-5.1675,-5.204,-5.2485,-5.2981,-5.3347,-5.3687,-5.387,-5.4288,-5.4445,-5.4471,-5.455,-5.4759,-5.4785,-5.4968,-5.5072,-5.4863,-5.421,-5.4079,-5.4105,-5.3949,-5.3975,-5.4236,-5.4785,-5.5046,-5.5099,-5.5099,-5.5099,-5.5099,-5.5072,-5.4968,-5.468,-5.4994,-5.5072,-5.5072,-5.5099,-5.5099,-5.5099,-5.5099,-5.5099,-5.5099,-5.5177,-5.5308,-5.5438,-5.5517,-5.5752,-5.6118,-5.5961,-5.5778,-5.5595,-5.5412,-5.5229,-5.5099,-5.5099,-5.5099,-5.5099,-5.5099,-5.5099,-5.5099,-5.5099,-5.5099,-5.5099,-5.4942,-5.4785,-5.421,-5.3609,-5.2981,-5.2276,-5.1753,-5.1622,-5.1622,-5.1648,-5.1648,-5.1648,-5.1622,-5.1596,-5.1596,-5.1596,-5.1596,-5.1596,-5.1596,-5.1596,-4.8172,-4.8172,-4.8172,-4.8172,-4.8172,-4.8172,-4.8172,-4.825,-4.859,-4.9453,-5.0551,-5.123,-5.1596,-5.1596,-5.1596,-5.1753,-5.1936,-5.2328,-5.2955,-5.3478,-5.4001,-5.4445,-5.4497,-5.4236,-5.3687,-5.353,-5.2851,-5.2223,-5.2485,-5.2485,-5.2589,-5.2563,-5.238,-5.225,-5.2302,-5.2537,-5.306,-5.3609,-5.3949,-5.4341,-5.4471,-5.4811,-5.5046,-5.502,-5.502,-5.502,-5.502,-5.5072,-5.5072,-5.4811,-5.4367,-5.3975,-5.3949,-5.3949,-5.3896,-5.4262,-5.4707,-5.5072,-5.5099,-5.5099,-5.5099,-5.5099,-5.5099,-5.5099,-5.5099,-5.5099,-5.5099,-5.5099,-5.5099,-5.5099,-5.5099,-5.5099,-5.5099,-5.5099,-5.5412,-5.5595,-5.583,-5.5961,-5.6301,-5.6615,-5.6275,-5.5857,-5.5647,-5.5465,-5.5229,-5.5099,-5.5099,-5.5099,-5.5099,-5.5099,-5.5099,-5.5099,-5.5099,-5.5099,-5.5072,-5.4994,-5.4837,-5.4367,-5.3818,-5.3478,-5.2851,-5.225,-5.1884,-5.1988,-5.1962,-5.1805,-5.1701,-5.1622,-5.1596,-5.1596,-5.1596,-5.1596,-5.1596,-5.1596,-5.1596,-4.8172,-4.8172,-4.8172,-4.8198,-4.8224,-4.8198,-4.8198,-4.8277,-4.8355,-4.9008,-5.0159,-5.11,-5.157,-5.1596,-5.1596,-5.1858,-5.2302,-5.2537,-5.3086,-5.3922,-5.4262,-5.4314,-5.4079,-5.3792,-5.3321,-5.2537,-5.2197,-5.2197,-5.2511,-5.2746,-5.2981,-5.3295,-5.3347,-5.3295,-5.3347,-5.3347,-5.3661,-5.4105,-5.4236,-5.4576,-5.4863,-5.5046,-5.5072,-5.5099,-5.5099,-5.5099,-5.5099,-5.5099,-5.5099,-5.4942,-5.4445,-5.4131,-5.4131,-5.4158,-5.4131,-5.4236,-5.4785,-5.5072,-5.5099,-5.5099,-5.5099,-5.5099,-5.5099,-5.5099,-5.5099,-5.5099,-5.5099,-5.5099,-5.5099,-5.5099,-5.5099,-5.5099,-5.5099,-5.5308,-5.5621,-5.5987,-5.6249,-5.6536,-5.6876,-5.6824,-5.6327,-5.5883,-5.57,-5.5491,-5.5229,-5.5099,-5.5099,-5.5099,-5.5099,-5.5099,-5.5099,-5.5099,-5.5099,-5.5099,-5.5099,-5.5099,-5.4889,-5.4445,-5.3975,-5.3556,-5.3217,-5.272,-5.2485,-5.2433,-5.2145,-5.1831,-5.1701,-5.1596,-5.1596,-5.1596,-5.1596,-5.1596,-5.1596,-5.1596,-5.1596,-4.8172,-4.8172,-4.8172,-4.8407,-4.8695,-4.8355,-4.8381,-4.8747,-4.8852,-4.9427,-5.0368,-5.0969,-5.1309,-5.1492,-5.1675,-5.1962,-5.2485,-5.3034,-5.3609,-5.4158,-5.455,-5.4471,-5.4158,-5.3609,-5.306,-5.2589,-5.225,-5.2223,-5.2511,-5.3086,-5.3609,-5.3949,-5.421,-5.4262,-5.4027,-5.3975,-5.421,-5.468,-5.4811,-5.4916,-5.5072,-5.5099,-5.5099,-5.5099,-5.5099,-5.5099,-5.5099,-5.5099,-5.5099,-5.5046,-5.455,-5.4288,-5.4262,-5.4262,-5.4236,-5.4341,-5.4759,-5.5072,-5.5099,-5.5099,-5.5099,-5.5099,-5.5099,-5.5099,-5.5099,-5.5099,-5.5099,-5.5099,-5.5099,-5.5099,-5.5099,-5.5099,-5.5203,-5.5595,-5.5961,-5.6484,-5.6824,-5.7137,-5.7373,-5.6981,-5.651,-5.5909,-5.5543,-5.5438,-5.5203,-5.5151,-5.5177,-5.5099,-5.5099,-5.5099,-5.5099,-5.5099,-5.5099,-5.5099,-5.5099,-5.5099,-5.5099,-5.4811,-5.4158,-5.3504,-5.3191,-5.3008,-5.2485,-5.2119,-5.1962,-5.1831,-5.1701,-5.1596,-5.1596,-5.1596,-5.1596,-5.1596,-5.1596,-5.1596,-5.1596,-4.8172,-4.8198,-4.8407,-4.8826,-4.9191,-4.8538,-4.8433,-4.8826,-4.9165,-4.9819,-5.0446,-5.0838,-5.1256,-5.1596,-5.1858,-5.2223,-5.2825,-5.34,-5.4001,-5.4497,-5.4863,-5.4524,-5.3975,-5.353,-5.2877,-5.2485,-5.2459,-5.2563,-5.2903,-5.3766,-5.4236,-5.455,-5.4889,-5.4785,-5.4602,-5.4602,-5.468,-5.4994,-5.502,-5.5046,-5.5099,-5.5099,-5.5099,-5.5099,-5.5099,-5.5099,-5.5099,-5.5099,-5.5099,-5.4968,-5.4759,-5.4497,-5.4497,-5.4497,-5.4497,-5.4654,-5.4811,-5.5099,-5.5099,-5.5099,-5.5099,-5.5099,-5.5099,-5.5099,-5.5099,-5.5099,-5.5099,-5.5099,-5.5099,-5.5229,-5.5334,-5.5334,-5.5621,-5.6013,-5.6536,-5.7059,-5.732,-5.7704,-5.7556,-5.7163,-5.6667,-5.604,-5.5386,-5.5334,-5.5203,-5.5229,-5.5255,-5.5177,-5.5125,-5.5099,-5.5099,-5.5099,-5.5099,-5.5099,-5.5099,-5.5099,-5.5099,-5.5099,-5.4393,-5.3556,-5.3478,-5.3347,-5.2589,-5.1962,-5.204,-5.2014,-5.1727,-5.1596,-5.1596,-5.1596,-5.1596,-5.1596,-5.1596,-5.1596,-5.1596,-4.8172,-4.8277,-4.8826,-4.9348,-4.9584,-4.8695,-4.825,-4.8329,-4.9348,-4.9845,-4.9976,-5.1047,-5.1544,-5.1727,-5.2197,-5.2746,-5.3295,-5.387,-5.4393,-5.4837,-5.5046,-5.4367,-5.3792,-5.3373,-5.272,-5.2223,-5.225,-5.2929,-5.34,-5.4079,-5.4628,-5.4916,-5.502,-5.502,-5.4968,-5.4968,-5.4994,-5.5072,-5.5099,-5.5099,-5.5099,-5.5099,-5.5099,-5.5099,-5.5099,-5.5099,-5.5099,-5.5099,-5.5099,-5.5072,-5.5046,-5.5046,-5.5072,-5.5072,-5.5099,-5.5099,-5.5099,-5.5177,-5.5099,-5.5125,-5.5125,-5.5125,-5.5099,-5.5099,-5.5099,-5.5099,-5.5099,-5.5151,-5.5229,-5.5517,-5.5726,-5.5961,-5.6196,-5.6693,-5.7216,-5.7529,-5.7739,-5.7817,-5.7712,-5.7346,-5.6824,-5.6196,-5.5412,-5.5177,-5.5465,-5.5491,-5.5517,-5.5412,-5.5308,-5.5125,-5.5125,-5.5099,-5.5099,-5.5099,-5.5099,-5.5099,-5.5099,-5.5099,-5.4445,-5.3739,-5.3739,-5.3426,-5.2537,-5.204,-5.2276,-5.2197,-5.1779,-5.1596,-5.1596,-5.1596,-5.1596,-5.1596,-5.1596,-5.1596,-5.1596,-4.8172,-4.825,-4.8826,-4.9165,-4.9244,-4.8982,-4.859,-4.8329,-4.9008,-4.9505,-4.9923,-5.0681,-5.1544,-5.2197,-5.1988,-5.2798,-5.3426,-5.387,-5.4341,-5.4733,-5.5072,-5.4341,-5.3766,-5.3321,-5.2616,-5.2328,-5.2485,-5.3138,-5.3556,-5.4262,-5.4811,-5.5072,-5.5099,-5.5099,-5.5099,-5.5099,-5.5099,-5.5099,-5.5099,-5.5099,-5.5099,-5.5099,-5.5099,-5.5099,-5.5099,-5.5099,-5.5151,-5.5125,-5.5099,-5.5125,-5.5099,-5.5099,-5.5099,-5.5099,-5.5099,-5.5151,-5.536,-5.5543,-5.5255,-5.5465,-5.5517,-5.5177,-5.5099,-5.5099,-5.5099,-5.5099,-5.5099,-5.5151,-5.5412,-5.5752,-5.6092,-5.6379,-5.6771,-5.732,-5.7712,-5.7869,-5.8052,-5.8131,-5.8,-5.7503,-5.6981,-5.6301,-5.5517,-5.5595,-5.583,-5.583,-5.5804,-5.57,-5.5517,-5.5308,-5.5125,-5.5099,-5.5099,-5.5099,-5.5099,-5.5099,-5.5099,-5.4994,-5.4367,-5.3818,-5.3556,-5.3112,-5.2328,-5.2014,-5.204,-5.1936,-5.1675,-5.1596,-5.1596,-5.1596,-5.1596,-5.1596,-5.1596,-5.1596,-5.1596,-4.8172,-4.8303,-4.9061,-4.9401,-4.9401,-4.9401,-4.9061,-4.8721,-4.9139,-4.9714,-5.0315,-5.1152,-5.1858,-5.2433,-5.2668,-5.3269,-5.4079,-5.4288,-5.4602,-5.4889,-5.5099,-5.4314,-5.3739,-5.3295,-5.2642,-5.238,-5.2459,-5.306,-5.3609,-5.4445,-5.5099,-5.5099,-5.5099,-5.5099,-5.5099,-5.5099,-5.5099,-5.5099,-5.5099,-5.5099,-5.5099,-5.5099,-5.5099,-5.5099,-5.5099,-5.5177,-5.5308,-5.5255,-5.5203,-5.5282,-5.5308,-5.5099,-5.5177,-5.5255,-5.5412,-5.5569,-5.5935,-5.5909,-5.5647,-5.57,-5.5543,-5.5282,-5.5099,-5.5099,-5.5099,-5.5099,-5.5099,-5.5151,-5.5595,-5.6013,-5.6405,-5.6798,-5.7373,-5.7948,-5.8052,-5.8157,-5.8314,-5.847,-5.8131,-5.7634,-5.7033,-5.6405,-5.6092,-5.6196,-5.6327,-5.6484,-5.6379,-5.6066,-5.5804,-5.5491,-5.5255,-5.5099,-5.5099,-5.5099,-5.5099,-5.5099,-5.5099,-5.4942,-5.4445,-5.3922,-5.3504,-5.2955,-5.2302,-5.191,-5.1675,-5.1596,-5.1596,-5.1596,-5.1596,-5.1596,-5.1596,-5.1596,-5.1596,-5.1596,-5.1596,-4.8172,-4.825,-4.9322,-4.9714,-4.9871,-4.9793,-4.9505,-4.9244,-4.9714,-5.0263,-5.089,-5.1962,-5.2459,-5.2798,-5.3295,-5.387,-5.4367,-5.4576,-5.4707,-5.5072,-5.5099,-5.4497,-5.3818,-5.3347,-5.2772,-5.225,-5.2276,-5.2929,-5.3583,-5.4314,-5.4863,-5.502,-5.5099,-5.5099,-5.5099,-5.5099,-5.5099,-5.5099,-5.5099,-5.5099,-5.5099,-5.5099,-5.5099,-5.5099,-5.5151,-5.5255,-5.5517,-5.5517,-5.5334,-5.5543,-5.5543,-5.5229,-5.5517,-5.5726,-5.5935,-5.617,-5.6562,-5.6301,-5.6066,-5.6013,-5.5647,-5.5386,-5.5151,-5.5255,-5.5308,-5.5151,-5.5099,-5.5282,-5.57,-5.6223,-5.6641,-5.7294,-5.7921,-5.8209,-5.8314,-5.8366,-5.8418,-5.847,-5.8209,-5.7739,-5.7346,-5.6745,-5.6536,-5.6615,-5.6902,-5.7137,-5.6902,-5.6458,-5.6092,-5.57,-5.5334,-5.5099,-5.5099,-5.5099,-5.5099,-5.5099,-5.5099,-5.4863,-5.4471,-5.421,-5.3896,-5.3164,-5.2328,-5.204,-5.1805,-5.1648,-5.1596,-5.1596,-5.1596,-5.1596,-5.1596,-5.1596,-5.1596,-5.1596,-5.1596,-4.8172,-4.8198,-4.8486,-4.9061,-4.9793,-4.9453,-4.9479,-4.974,-5.0315,-5.0681,-5.0995,-5.1962,-5.2772,-5.3191,-5.3504,-5.4027,-5.4628,-5.4445,-5.4707,-5.4889,-5.4994,-5.4524,-5.3949,-5.3426,-5.2877,-5.2563,-5.2537,-5.2798,-5.3373,-5.4001,-5.4471,-5.4497,-5.4785,-5.5099,-5.5099,-5.5099,-5.5099,-5.5099,-5.5099,-5.5099,-5.5099,-5.5099,-5.5099,-5.5099,-5.5151,-5.5177,-5.5334,-5.5255,-5.5438,-5.5726,-5.5778,-5.5961,-5.6379,-5.651,-5.6562,-5.6693,-5.6981,-5.6771,-5.6432,-5.6275,-5.6118,-5.5647,-5.5465,-5.5647,-5.5621,-5.5282,-5.5255,-5.5491,-5.5883,-5.6432,-5.7007,-5.7739,-5.8314,-5.8418,-5.8523,-5.8523,-5.8523,-5.8392,-5.8235,-5.7948,-5.7582,-5.7346,-5.7111,-5.7163,-5.7451,-5.7346,-5.6981,-5.6615,-5.6275,-5.5883,-5.5334,-5.5099,-5.5099,-5.5099,-5.5099,-5.5099,-5.5099,-5.4968,-5.4628,-5.4419,-5.4236,-5.34,-5.2563,-5.2276,-5.2014,-5.1779,-5.1596,-5.1596,-5.1596,-5.1596,-5.1596,-5.1596,-5.1596,-5.1596,-5.1596,-4.8329,-4.8564,-4.859,-4.9087,-4.974,-4.9557,-4.961,-5.0002,-5.0786,-5.1309,-5.1648,-5.2459,-5.3086,-5.3478,-5.3635,-5.3739,-5.4341,-5.4001,-5.421,-5.4524,-5.4471,-5.4131,-5.3713,-5.3295,-5.2616,-5.225,-5.2459,-5.272,-5.3112,-5.3818,-5.4262,-5.4314,-5.4759,-5.5125,-5.5125,-5.5099,-5.5151,-5.5099,-5.5151,-5.5151,-5.5151,-5.5099,-5.5099,-5.5099,-5.5099,-5.5151,-5.5308,-5.5334,-5.5621,-5.6066,-5.6301,-5.6144,-5.6405,-5.6562,-5.6588,-5.6693,-5.6928,-5.7242,-5.6771,-5.6615,-5.6693,-5.6223,-5.604,-5.6301,-5.6327,-5.6066,-5.604,-5.6301,-5.6719,-5.7242,-5.7425,-5.8,-5.8314,-5.8497,-5.8523,-5.8523,-5.8523,-5.847,-5.8366,-5.8261,-5.8052,-5.8,-5.7843,-5.7869,-5.8052,-5.7869,-5.7451,-5.6824,-5.6458,-5.5909,-5.5386,-5.5099,-5.5099,-5.5099,-5.5099,-5.5099,-5.5099,-5.4916,-5.4759,-5.455,-5.4288,-5.353,-5.2851,-5.2511,-5.2145,-5.1727,-5.1596,-5.1596,-5.1596,-5.1596,-5.1596,-5.1596,-5.1596,-5.1596,-5.1596,-4.8564,-4.9139,-4.9113,-4.9401,-4.9845,-4.9871,-4.9871,-5.008,-5.1178,-5.2067,-5.2589,-5.3217,-5.3452,-5.3583,-5.3922,-5.3713,-5.3583,-5.3609,-5.3818,-5.3896,-5.3713,-5.3635,-5.3373,-5.2851,-5.2302,-5.2014,-5.2119,-5.2354,-5.2642,-5.3452,-5.4079,-5.4314,-5.4759,-5.5229,-5.5229,-5.5334,-5.5491,-5.5543,-5.5569,-5.5438,-5.5308,-5.5072,-5.4942,-5.4942,-5.5046,-5.5255,-5.536,-5.5569,-5.5726,-5.6353,-5.6798,-5.6641,-5.6458,-5.6615,-5.651,-5.6615,-5.7137,-5.7216,-5.6981,-5.719,-5.7085,-5.6902,-5.6902,-5.6902,-5.6902,-5.6981,-5.6954,-5.7137,-5.7556,-5.773,-5.7843,-5.8078,-5.8366,-5.8523,-5.8523,-5.8523,-5.8523,-5.8523,-5.8497,-5.847,-5.847,-5.8444,-5.8444,-5.847,-5.8392,-5.8235,-5.7791,-5.7216,-5.6588,-5.5883,-5.5229,-5.5099,-5.5099,-5.5099,-5.5099,-5.5099,-5.5099,-5.5046,-5.4916,-5.4707,-5.4367,-5.3661,-5.3112,-5.272,-5.2328,-5.1779,-5.1596,-5.1596,-5.1596,-5.1596,-5.1596,-5.1596,-5.1596,-5.1596,-5.1596,-4.8799,-4.9714,-4.927,-4.9401,-4.9845,-4.9897,-4.9897,-5.0159,-5.1622,-5.2668,-5.3217,-5.3713,-5.3844,-5.3426,-5.3949,-5.3818,-5.3164,-5.3191,-5.3347,-5.3478,-5.3243,-5.3295,-5.3164,-5.2616,-5.2145,-5.191,-5.1831,-5.204,-5.2511,-5.3217,-5.3844,-5.4288,-5.5334,-5.5726,-5.583,-5.6013,-5.6301,-5.6275,-5.6275,-5.6275,-5.5883,-5.5412,-5.4471,-5.4367,-5.4393,-5.4445,-5.4576,-5.4916,-5.5726,-5.6536,-5.7111,-5.6954,-5.6719,-5.6536,-5.6484,-5.6458,-5.7007,-5.7111,-5.7085,-5.7373,-5.7294,-5.7216,-5.7242,-5.7503,-5.7608,-5.7869,-5.7869,-5.7869,-5.8052,-5.7791,-5.7895,-5.8235,-5.8497,-5.8523,-5.8523,-5.8523,-5.8523,-5.8523,-5.8497,-5.8497,-5.8497,-5.8497,-5.8497,-5.8497,-5.8497,-5.8183,-5.7503,-5.6981,-5.6719,-5.5935,-5.5099,-5.5099,-5.5099,-5.5099,-5.5099,-5.5099,-5.5099,-5.5099,-5.5072,-5.4916,-5.455,-5.3922,-5.34,-5.3008,-5.2328,-5.1701,-5.1596,-5.1596,-5.1596,-5.1596,-5.1596,-5.1596,-5.1596,-5.1596,-5.1596]},{"header":{"parameterUnit":"m.s-1","parameterCategory":1,"la1":31.0,"la2":29.5877,"lo1":-88.7671,"lo2":-86.6584,"dx":0.0162,"dy":0.0185,"nx":115,"ny":88,"refTime":"2022-12-02T18:00:00:Z","depth":0,"parameterNumber":3,"parameterNumberName":"V-component_of_WINDS"},"data":[0.0,0.0,0.0,0.0,0.0,0.0,0.0,0.0,0.0,0.0,0.0,0.0,0.0,0.0,0.0,0.0,0.0,0.0,0.0,0.0,0.0,0.0,0.0,0.0,0.0,0.0,0.0,0.0,0.0,0.0,0.0,0.0,0.0,0.0,0.0,0.0,0.0,0.0,0.0,0.0,0.0,0.0,0.0,0.0,0.0,0.0,0.0,0.0,0.0,0.0,0.0,0.0,0.0,0.0,0.0,0.0,0.0,0.0,0.0,0.0,0.0,0.0,0.0,0.0,0.0,0.0,0.0,0.0,0.0,0.0,0.0,0.0,0.0,0.0,0.0,0.0,0.0,0.0,0.0,0.0,0.0,0.0,0.0,0.0,0.0,0.0,0.0,0.0,0.0,0.0,0.0,0.0,0.0,0.0,0.0,0.0,0.0,0.0,0.0,0.0,0.0,0.0,0.0,0.0,0.0,0.0,0.0,0.0,0.0,0.0,0.0,0.0,0.0,0.0,0.0,0.0,0.0,0.0,0.0,0.0,0.0,0.0,0.0,0.0,0.0,0.0,0.0,0.0,0.0,0.0,0.0,0.0,0.0,0.0,0.0,0.0,0.0,0.0,0.0,0.0,0.0,0.0,0.0,0.0,0.0,0.0,0.0,0.0,0.0,0.0,0.0,0.0,0.0,0.0,0.0,0.0,0.0,0.0,0.0,0.0,0.0,0.0,0.0,0.0,0.0,0.0,0.0,0.0,0.0,0.0,0.0,0.0,0.0,0.0,0.0,0.0,0.0,0.0,0.0,0.0,0.0,0.0,0.0,0.0,0.0,0.0,0.0,0.0,0.0,0.0,0.0,0.0,0.0,0.0,0.0,0.0,0.0,0.0,0.0,0.0,0.0,0.0,0.0,0.0,0.0,0.0,0.0,0.0,0.0,0.0,0.0,0.0,0.0,0.0,0.0,0.0,0.0,0.0,0.0,0.0,0.0,0.0,0.0,0.0,0.0,0.0,0.0,0.0,0.0,0.0,0.0,0.0,0.0,0.0,0.0,0.0,0.0,0.0,0.0,0.0,0.0,0.0,0.0,0.0,0.0,0.0,0.0,0.0,0.0,0.0,0.0,0.0,0.0,0.0,0.0,0.0,0.0,0.0,0.0,0.0,0.0,0.0,0.0,0.0,0.0,0.0,0.0,0.0,0.0,0.0,0.0,0.0,0.0,0.0,0.0,0.0,0.0,0.0,0.0,0.0,0.0,0.0,0.0,0.0,0.0,0.0,0.0,0.0,0.0,0.0,0.0,0.0,0.0,0.0,0.0,0.0,0.0,0.0,0.0,0.0,0.0,0.0,0.0,0.0,0.0,0.0,0.0,0.0,0.0,0.0,0.0,0.0,0.0,0.0,0.0,0.0,0.0,0.0,0.0,0.0,0.0,0.0,0.0,0.0,0.0,0.0,0.0,0.0,0.0,0.0,0.0,0.0,0.0,0.0,0.0,0.0,0.0,0.0,0.0,0.0,0.0,0.0,0.0,0.0,0.0,0.0,0.0,0.0,0.0,0.0,0.0,0.0,0.0,0.0,0.0,0.0,0.0,0.0,0.0,0.0,0.0,0.0,0.0,0.0,0.0,0.0,0.0,0.0,0.0,0.0,0.0,0.0,0.0,0.0,0.0,0.0,0.0,0.0,0.0,0.0,0.0,0.0,0.0,0.0,0.0,0.0,0.0,0.0,0.0,0.0,0.0,0.0,0.0,0.0,0.0,0.0,0.0,0.0,0.0,0.0,0.0,0.0,0.0,0.0,0.0,0.0,0.0,0.0,0.0,0.0,0.0,0.0,0.0,0.0,0.0,0.0,0.0,0.0,0.0,0.0,0.0,0.0,0.0,0.0,0.0,0.0,0.0,0.0,0.0,0.0,0.0,0.0,0.0,0.0,0.0,0.0,0.0,0.0,0.0,0.0,0.0,0.0,0.0,0.0,0.0,0.0,0.0,0.0,0.0,0.0,0.0,0.0,0.0,0.0,0.0,0.0,0.0,0.0,0.0,0.0,0.0,0.0,0.0,0.0,0.0,0.0,0.0,0.0,0.0,0.0,0.0,0.0,0.0,0.0,0.0,0.0,0.0,0.0,0.0,0.0,0.0,0.0,0.0,0.0,0.0,0.0,0.0,0.0,0.0,0.0,0.0,0.0,0.0,0.0,0.0,0.0,0.0,0.0,0.0,0.0,0.0,0.0,0.0,0.0,0.0,0.0,0.0,0.0,0.0,0.0,0.0,0.0,0.0,0.0,0.0,0.0,0.0,0.0,0.0,0.0,0.0,0.0,0.0,0.0,0.0,0.0,0.0,0.0,0.0,0.0,0.0,0.0,0.0,0.0,0.0,0.0,0.0,0.0,0.0,0.0,0.0,0.0,0.0,0.0,0.0,0.0,0.0,0.0,0.0,0.0,0.0,0.0,0.0,0.0,0.0,0.0,0.0,0.0,0.0,0.0,0.0,0.0,0.0,0.0,0.0,0.0,0.0,0.0,0.0,0.0,0.0,0.0,0.0,0.0,0.0,0.0,0.0,0.0,0.0,0.0,0.0,0.0,0.0,0.0,0.0,0.0,0.0,0.0,0.0,0.0,0.0,0.0,0.0,0.0,0.0,0.0,0.0,0.0,0.0,0.0,0.0,0.0,0.0,0.0,0.0,0.0,0.0,0.0,0.0,0.0,0.0,0.0,0.0,0.0,0.0,0.0,0.0,0.0,0.0,0.0,0.0,0.0,0.0,0.0,0.0,0.0,0.0,0.0,0.0,0.0,0.0,0.0,0.0,0.0,0.0,0.0,0.0,0.0,0.0,0.0,0.0,0.0,0.0,0.0,0.0,0.0,0.0,0.0,0.0,0.0,0.0,0.0,0.0,0.0,0.0,0.0,0.0,0.0,0.0,0.0,0.0,0.0,0.0,0.0,0.0,0.0,0.0,0.0,0.0,0.0,0.0,0.0,0.0,0.0,0.0,0.0,0.0,0.0,0.0,0.0,0.0,0.0,0.0,0.0,0.0,0.0,0.0,0.0,0.0,0.0,0.0,0.0,0.0,0.0,0.0,0.0,0.0,0.0,0.0,0.0,0.0,0.0,0.0,0.0,0.0,0.0,0.0,0.0,0.0,0.0,0.0,0.0,0.0,0.0,0.0,0.0,0.0,0.0,0.0,0.0,0.0,0.0,0.0,0.0,0.0,0.0,0.0,0.0,0.0,0.0,0.0,0.0,0.0,0.0,0.0,0.0,0.0,0.0,0.0,0.0,0.0,0.0,0.0,0.0,0.0,0.0,0.0,0.0,0.0,0.0,0.0,0.0,0.0,0.0,0.0,0.0,0.0,0.0,0.0,0.0,0.0,0.0,0.0,0.0,0.0,0.0,0.0,0.0,0.0,0.0,0.0,0.0,0.0,0.0,0.0,0.0,0.0,0.0,0.0,0.0,0.0,0.0,0.0,0.0,0.0,0.0,0.0,0.0,0.0,0.0,0.0,0.0,0.0,0.0,0.0,0.0,0.0,0.0,0.0,0.0,0.0,0.0,0.0,0.0,0.0,0.0,0.0,0.0,0.0,0.0,0.0,0.0,0.0,0.0,0.0,0.0,0.0,0.0,0.0,0.0,0.0,0.0,0.0,0.0,0.0,0.0,0.0,0.0,0.0,0.0,0.0,0.0,0.0,0.0,0.0,0.0,0.0,0.0,0.0,0.0,0.0,0.0,0.0,0.0,0.0,0.0,0.0,0.0,0.0,0.0,0.0,0.0,0.0,0.0,0.0,0.0,0.0,0.0,0.0,0.0,0.0,0.0,0.0,0.0,0.0,0.0,0.0,0.0,0.0,0.0,0.0,0.0,0.0,0.0,0.0,0.0,0.0,0.0,0.0,0.0,0.0,0.0,0.0,0.0,0.0,0.0,0.0,0.0,0.0,0.0,0.0,0.0,0.0,0.0,0.0,0.0,0.0,0.0,0.0,0.0,0.0,0.0,0.0,0.0,0.0,0.0,0.0,0.0,0.0,0.0,0.0,0.0,0.0,0.0,0.0,0.0,0.0,0.0,0.0,0.0,0.0,0.0,0.0,0.0,0.0,0.0,0.0,0.0,0.0,0.0,0.0,0.0,0.0,0.0,0.0,0.0,0.0,0.0,0.0,0.0,0.0,0.0,0.0,0.0,0.0,0.0,0.0,0.0,0.0,0.0,0.0,0.0,0.0,0.0,0.0,0.0,0.0,0.0,0.0,0.0,0.0,0.0,1.6501,0.0,0.0,0.0,1.5925,0.0,0.0,0.0,0.0,0.0,0.0,0.0,0.0,0.0,0.0,0.0,0.0,0.0,0.0,0.0,0.0,0.0,0.0,0.0,0.0,0.0,0.0,0.0,0.0,0.0,0.0,0.0,0.0,0.0,0.0,0.0,0.0,0.0,0.0,0.0,0.0,0.0,0.0,0.0,0.0,0.0,0.0,0.0,0.0,0.0,0.0,0.0,0.0,0.0,0.0,0.0,0.0,0.0,0.0,0.0,0.0,0.0,0.0,0.0,0.0,0.0,0.0,0.0,0.0,0.0,0.0,0.0,0.0,0.0,0.0,0.0,0.0,0.0,0.0,0.0,0.0,0.0,0.0,0.0,0.0,0.0,0.0,0.0,0.0,0.0,0.0,0.0,0.0,0.0,0.0,0.0,0.0,0.0,0.0,0.0,0.0,0.0,0.0,0.0,0.0,0.0,0.0,0.0,0.0,0.0,0.0,0.0,0.0,0.0,0.0,1.6696,1.6026,1.5982,1.5982,1.5982,0.0,0.0,0.0,0.0,0.0,0.0,0.0,0.0,0.0,0.0,0.0,0.0,0.0,0.0,0.0,0.0,0.0,0.0,0.0,0.0,0.0,0.0,0.0,0.0,0.0,0.0,0.0,0.0,0.0,0.0,0.0,0.0,0.0,0.0,0.0,0.0,0.0,0.0,0.0,0.0,0.0,0.0,0.0,0.0,0.0,0.0,0.0,0.0,0.0,0.0,0.0,0.0,0.0,0.0,0.0,0.0,0.0,0.0,0.0,0.0,0.0,0.0,0.0,0.0,0.0,0.0,0.0,0.0,0.0,0.0,0.0,0.0,0.0,0.0,0.0,0.0,0.0,0.0,0.0,0.0,0.0,0.0,0.0,0.0,0.0,0.0,0.0,0.0,0.0,0.0,0.0,0.0,0.0,0.0,0.0,0.0,0.0,0.0,0.0,0.0,0.0,0.0,0.0,0.0,0.0,0.0,0.0,0.0,0.0,0.0,0.0,0.0,1.6155,1.608,1.608,0.0,0.0,0.0,0.0,0.0,0.0,0.0,0.0,0.0,0.0,0.0,0.0,0.0,0.0,0.0,0.0,0.0,0.0,0.0,0.0,0.0,0.0,0.0,0.0,0.0,0.0,0.0,0.0,0.0,0.0,0.0,0.0,0.0,0.0,0.0,0.0,0.0,0.0,0.0,0.0,0.0,0.0,0.0,0.0,0.0,0.0,0.0,0.0,0.0,0.0,0.0,0.0,0.0,0.0,0.0,0.0,0.0,0.0,0.0,0.0,0.0,0.0,0.0,0.0,0.0,0.0,0.0,0.0,0.0,0.0,0.0,0.0,0.0,0.0,0.0,0.0,0.0,0.0,0.0,0.0,0.0,0.0,0.0,0.0,0.0,0.0,0.0,0.0,0.0,0.0,0.0,0.0,0.0,0.0,0.0,0.0,0.0,0.0,0.0,0.0,0.0,0.0,0.0,0.0,0.0,0.0,0.0,0.0,0.0,0.0,1.8004,1.7377,1.6711,0.0,1.6355,0.0,0.0,0.0,0.0,0.0,0.0,0.0,0.0,0.0,0.0,0.0,0.0,0.0,0.0,0.0,0.0,0.0,0.0,0.0,0.0,0.0,0.0,0.0,0.0,0.0,0.0,0.0,0.0,0.0,0.0,0.0,0.0,0.0,0.0,0.0,0.0,0.0,0.0,0.0,0.0,0.0,0.0,0.0,0.0,0.0,0.0,0.0,0.0,0.0,0.0,0.0,0.0,0.0,0.0,0.0,0.0,0.0,0.0,0.0,0.0,0.0,0.0,0.0,0.0,0.0,0.0,0.0,0.0,0.0,0.0,0.0,0.0,0.0,0.0,0.0,0.0,0.0,0.0,0.0,0.0,0.0,0.0,0.0,0.0,0.0,0.0,0.0,0.0,0.0,0.0,0.0,0.0,0.0,0.0,0.0,0.0,0.0,0.0,0.0,0.0,0.0,0.0,0.0,0.0,0.0,0.0,0.0,0.0,0.0,0.0,1.8142,1.7513,1.6784,1.6396,0.0,0.0,0.0,0.0,0.0,0.0,0.0,0.0,0.0,0.0,0.0,0.0,0.0,0.0,0.0,0.0,0.0,0.0,0.0,0.0,0.0,0.0,0.0,0.0,0.0,0.0,0.0,0.0,0.0,0.0,0.0,0.0,0.0,0.0,0.0,0.0,0.0,0.0,0.0,0.0,0.0,0.0,0.0,0.0,0.0,0.0,0.0,0.0,0.0,0.0,0.0,0.0,0.0,0.0,0.0,0.0,0.0,0.0,0.0,0.0,0.0,0.0,0.0,0.0,0.0,0.0,0.0,0.0,0.0,0.0,0.0,0.0,0.0,0.0,0.0,0.0,0.0,0.0,0.0,0.0,0.0,0.0,0.0,0.0,0.0,0.0,0.0,0.0,0.0,0.0,0.0,0.0,0.0,0.0,0.0,0.0,0.0,0.0,0.0,0.0,0.0,0.0,0.0,0.0,0.0,0.0,0.0,0.0,0.0,0.0,1.9139,1.8419,1.763,1.6907,1.6611,1.6813,0.0,0.0,0.0,0.0,0.0,0.0,0.0,0.0,0.0,0.0,0.0,0.0,0.0,0.0,0.0,0.0,0.0,0.0,0.0,0.0,0.0,0.0,0.0,0.0,0.0,0.0,0.0,0.0,0.0,0.0,0.0,0.0,0.0,0.0,0.0,0.0,0.0,0.0,0.0,0.0,0.0,0.0,0.0,0.0,0.0,0.0,0.0,0.0,0.0,0.0,0.0,0.0,0.0,0.0,0.0,0.0,0.0,0.0,0.0,0.0,0.0,0.0,0.0,0.0,0.0,0.0,0.0,0.0,0.0,0.0,0.0,0.0,0.0,0.0,0.0,0.0,0.0,0.0,0.0,0.0,0.0,0.0,0.0,0.0,0.0,0.0,0.0,0.0,0.0,0.0,0.0,0.0,0.0,0.0,0.0,0.0,0.0,0.0,0.0,0.0,0.0,0.0,0.0,0.0,0.0,0.0,0.0,0.0,2.063,1.9892,1.8996,1.7844,1.7194,1.717,0.0,0.0,0.0,0.0,0.0,0.0,0.0,0.0,0.0,0.0,0.0,0.0,0.0,0.0,0.0,0.0,0.0,0.0,0.0,0.0,0.0,0.0,0.0,0.0,0.0,0.0,0.0,0.0,0.0,0.0,0.0,0.0,0.0,0.0,0.0,0.0,0.0,0.0,0.0,0.0,0.0,0.0,0.0,0.0,0.0,0.0,0.0,0.0,0.0,0.0,0.0,0.0,0.0,0.0,0.0,0.0,0.0,0.0,0.0,0.0,0.0,0.0,0.0,0.0,0.0,0.0,0.0,0.0,0.0,0.0,0.0,0.0,0.0,0.0,0.0,0.0,0.0,0.0,0.0,0.0,0.0,0.0,0.0,0.0,0.0,0.0,0.0,0.0,0.0,0.0,0.0,0.0,0.0,0.0,0.0,0.0,0.0,0.0,0.0,0.0,0.0,0.0,0.0,0.0,0.0,0.0,0.0,0.0,0.0,2.071,2.0115,1.94,1.8609,1.8363,1.8377,0.0,0.0,0.0,0.0,0.0,0.0,0.0,0.0,0.0,0.0,0.0,0.0,0.0,0.0,0.0,0.0,0.0,0.0,0.0,0.0,0.0,0.0,0.0,0.0,0.0,0.0,0.0,0.0,0.0,0.0,0.0,0.0,0.0,0.0,0.0,0.0,0.0,0.0,0.0,0.0,0.0,0.0,0.0,0.0,0.0,0.0,0.0,0.0,0.0,0.0,0.0,0.0,0.0,0.0,0.0,0.0,0.0,0.0,0.0,0.0,0.0,0.0,0.0,0.0,0.0,0.0,0.0,0.0,0.0,0.0,0.0,0.0,0.0,0.0,0.0,0.0,0.0,0.0,0.0,0.0,0.0,0.0,0.0,0.0,0.0,0.0,0.0,0.0,0.0,0.0,0.0,0.0,0.0,0.0,0.0,0.0,0.0,0.0,0.0,0.0,0.0,0.0,0.0,0.0,0.0,0.0,0.0,0.0,0.0,2.0774,2.0178,1.9714,1.9356,1.9129,1.9158,0.0,0.0,0.0,0.0,0.0,0.0,0.0,0.0,0.0,0.0,0.0,0.0,0.0,0.0,0.0,0.0,0.0,0.0,0.0,0.0,0.0,0.0,0.0,0.0,0.0,0.0,0.0,0.0,0.0,0.0,0.0,0.0,0.0,0.0,0.0,0.0,0.0,0.0,0.0,0.0,0.0,0.0,0.0,0.0,0.0,0.0,0.0,0.0,0.0,0.0,0.0,0.0,0.0,0.0,0.0,0.0,0.0,0.0,0.0,0.0,0.0,0.0,0.0,0.0,0.0,0.0,0.0,0.0,0.0,0.0,0.0,0.0,0.0,0.0,0.0,0.0,0.0,0.0,0.0,0.0,0.0,0.0,0.0,0.0,0.0,0.0,0.0,0.0,0.0,0.0,0.0,0.0,0.0,0.0,0.0,0.0,0.0,0.0,0.0,0.0,0.0,0.0,0.0,0.0,0.0,0.0,0.0,0.0,2.2266,2.0906,2.0337,2.0113,2.0031,1.9608,1.9585,0.0,0.0,0.0,0.0,0.0,0.0,0.0,0.0,0.0,0.0,0.0,0.0,0.0,0.0,0.0,0.0,0.0,0.0,0.0,0.0,0.0,0.0,0.0,0.0,0.0,0.0,0.0,0.0,0.0,0.0,0.0,0.0,0.0,0.0,0.0,0.0,0.0,0.0,0.0,0.0,0.0,0.0,0.0,0.0,0.0,0.0,0.0,0.0,0.0,0.0,0.0,0.0,0.0,0.0,0.0,0.0,0.0,0.0,0.0,0.0,0.0,0.0,0.0,0.0,0.0,0.0,0.0,0.0,0.0,0.0,0.0,0.0,0.0,0.0,0.0,0.0,0.0,0.0,0.0,0.0,0.0,0.0,0.0,0.0,0.0,0.0,0.0,0.0,0.0,0.0,0.0,0.0,0.0,0.0,0.0,0.0,0.0,0.0,0.0,0.0,0.0,0.0,0.0,0.0,0.0,0.0,0.0,0.0,0.0,2.3115,2.2968,2.2896,2.2948,2.2876,2.2524,0.0,0.0,0.0,0.0,0.0,0.0,0.0,0.0,0.0,0.0,0.0,0.0,0.0,0.0,0.0,0.0,0.0,0.0,0.0,0.0,0.0,0.0,0.0,0.0,0.0,0.0,0.0,0.0,0.0,0.0,0.0,0.0,0.0,0.0,0.0,0.0,0.0,0.0,0.0,0.0,0.0,0.0,0.0,0.0,0.0,0.0,0.0,0.0,0.0,0.0,0.0,0.0,0.0,0.0,0.0,0.0,0.0,0.0,0.0,0.0,0.0,0.0,0.0,0.0,0.0,0.0,0.0,0.0,0.0,0.0,0.0,0.0,0.0,0.0,0.0,0.0,0.0,0.0,0.0,0.0,0.0,0.0,0.0,0.0,0.0,0.0,0.0,0.0,0.0,0.0,0.0,0.0,0.0,0.0,0.0,0.0,0.0,0.0,0.0,0.0,0.0,0.0,0.0,0.0,0.0,0.0,0.0,0.0,0.0,2.6777,2.6134,2.5869,2.5928,2.5508,2.4612,2.3371,0.0,0.0,0.0,0.0,0.0,0.0,0.0,0.0,0.0,0.0,0.0,0.0,0.0,0.0,0.0,0.0,0.0,0.0,0.0,0.0,0.0,0.0,0.0,0.0,0.0,0.0,0.0,0.0,0.0,0.0,0.0,0.0,0.0,0.0,0.0,0.0,0.0,0.0,0.0,0.0,0.0,0.0,0.0,0.0,0.0,0.0,0.0,0.0,0.0,0.0,0.0,0.0,0.0,0.0,0.0,0.0,0.0,0.0,0.0,0.0,0.0,0.0,0.0,0.0,0.0,0.0,0.0,0.0,0.0,0.0,0.0,0.0,0.0,0.0,0.0,0.0,0.0,0.0,0.0,0.0,0.0,0.0,0.0,0.0,0.0,0.0,0.0,0.0,0.0,0.0,0.0,0.0,0.0,0.0,0.0,0.0,0.0,0.0,0.0,0.0,0.0,0.0,0.0,0.0,0.0,0.0,0.0,0.0,3.1603,2.995,2.9058,2.8952,2.761,2.6173,0.0,0.0,0.0,0.0,0.0,0.0,0.0,0.0,0.0,0.0,0.0,0.0,0.0,0.0,0.0,0.0,0.0,0.0,0.0,0.0,0.0,0.0,0.0,0.0,0.0,0.0,0.0,0.0,0.0,0.0,0.0,0.0,0.0,0.0,0.0,0.0,0.0,0.0,0.0,0.0,0.0,0.0,0.0,0.0,0.0,0.0,0.0,0.0,0.0,0.0,0.0,0.0,0.0,0.0,0.0,0.0,0.0,0.0,0.0,0.0,0.0,0.0,0.0,0.0,0.0,0.0,0.0,0.0,0.0,0.0,0.0,0.0,0.0,0.0,0.0,0.0,0.0,0.0,0.0,0.0,0.0,0.0,0.0,0.0,0.0,0.0,0.0,0.0,0.0,0.0,0.0,0.0,0.0,0.0,0.0,0.0,0.0,0.0,0.0,0.0,0.0,0.0,0.0,0.0,0.0,0.0,0.0,0.0,0.0,3.4695,3.5465,3.4723,3.2488,3.1209,2.948,0.0,0.0,0.0,0.0,0.0,0.0,0.0,0.0,0.0,0.0,0.0,0.0,0.0,0.0,0.0,0.0,0.0,0.0,0.0,0.0,0.0,0.0,0.0,0.0,0.0,0.0,0.0,0.0,0.0,0.0,0.0,0.0,0.0,0.0,0.0,0.0,0.0,0.0,0.0,0.0,0.0,0.0,0.0,0.0,0.0,0.0,0.0,0.0,0.0,0.0,0.0,0.0,0.0,0.0,0.0,0.0,0.0,0.0,0.0,0.0,0.0,0.0,0.0,0.0,0.0,0.0,0.0,0.0,0.0,0.0,0.0,0.0,0.0,0.0,0.0,0.0,0.0,0.0,0.0,0.0,0.0,0.0,0.0,0.0,0.0,0.0,0.0,0.0,0.0,0.0,0.0,0.0,0.0,0.0,0.0,0.0,0.0,0.0,0.0,0.0,0.0,0.0,0.0,0.0,0.0,0.0,0.0,0.0,3.4041,3.6749,3.8656,3.8566,3.6414,3.4401,3.196,0.0,0.0,0.0,0.0,0.0,0.0,0.0,0.0,0.0,0.0,0.0,0.0,0.0,0.0,0.0,0.0,0.0,0.0,0.0,0.0,0.0,0.0,0.0,0.0,0.0,0.0,0.0,0.0,0.0,0.0,0.0,0.0,0.0,0.0,0.0,0.0,0.0,0.0,0.0,0.0,0.0,0.0,0.0,0.0,0.0,0.0,0.0,0.0,0.0,0.0,0.0,0.0,0.0,0.0,0.0,0.0,0.0,0.0,0.0,0.0,0.0,0.0,0.0,0.0,0.0,0.0,0.0,0.0,0.0,0.0,0.0,0.0,0.0,0.0,0.0,0.0,0.0,0.0,0.0,0.0,0.0,0.0,0.0,0.0,0.0,0.0,0.0,0.0,0.0,0.0,0.0,0.0,0.0,0.0,0.0,0.0,0.0,0.0,0.0,0.0,0.0,0.0,0.0,0.0,0.0,0.0,0.0,0.0,3.5401,3.7982,4.0182,4.0921,4.0094,3.7104,3.3868,0.0,0.0,0.0,0.0,0.0,0.0,0.0,0.0,0.0,0.0,0.0,0.0,0.0,0.0,0.0,0.0,0.0,0.0,0.0,0.0,0.0,0.0,0.0,0.0,0.0,0.0,0.0,0.0,0.0,0.0,0.0,0.0,0.0,0.0,0.0,0.0,0.0,0.0,0.0,0.0,0.0,0.0,0.0,0.0,0.0,0.0,0.0,0.0,0.0,0.0,0.0,0.0,0.0,0.0,0.0,0.0,0.0,0.0,0.0,0.0,0.0,0.0,0.0,0.0,0.0,0.0,0.0,0.0,0.0,0.0,0.0,0.0,0.0,0.0,0.0,0.0,0.0,0.0,0.0,0.0,0.0,0.0,0.0,0.0,0.0,0.0,0.0,0.0,0.0,0.0,0.0,0.0,0.0,0.0,0.0,0.0,0.0,0.0,0.0,0.0,0.0,0.0,0.0,0.0,0.0,0.0,0.0,0.0,3.6644,3.8865,4.0468,4.1207,4.1016,3.844,3.5668,0.0,0.0,0.0,0.0,0.0,0.0,0.0,0.0,0.0,0.0,0.0,0.0,0.0,0.0,0.0,0.0,0.0,0.0,0.0,0.0,0.0,0.0,0.0,0.0,0.0,0.0,0.0,0.0,0.0,0.0,0.0,0.0,0.0,0.0,0.0,0.0,0.0,0.0,0.0,0.0,0.0,0.0,0.0,0.0,0.0,0.0,0.0,0.0,2.2749,0.0,0.0,0.0,0.0,0.0,0.0,0.0,0.0,0.0,0.0,0.0,0.0,0.0,0.0,0.0,0.0,0.0,0.0,0.0,0.0,0.0,0.0,0.0,0.0,0.0,0.0,0.0,0.0,0.0,0.0,0.0,0.0,0.0,0.0,0.0,0.0,0.0,0.0,0.0,0.0,0.0,0.0,0.0,0.0,0.0,0.0,0.0,0.0,0.0,0.0,0.0,0.0,0.0,0.0,0.0,0.0,0.0,0.0,0.0,3.7427,3.9512,4.0954,4.1532,4.1178,3.9534,3.7116,0.0,0.0,0.0,0.0,0.0,0.0,0.0,0.0,0.0,0.0,0.0,0.0,0.0,0.0,0.0,0.0,0.0,0.0,0.0,0.0,0.0,0.0,0.0,0.0,0.0,0.0,0.0,0.0,0.0,0.0,0.0,0.0,0.0,0.0,0.0,0.0,0.0,0.0,0.0,0.0,0.0,0.0,0.0,0.0,0.0,0.0,0.0,0.0,0.0,0.0,0.0,0.0,0.0,0.0,0.0,0.0,0.0,0.0,0.0,0.0,0.0,0.0,0.0,0.0,0.0,0.0,0.0,0.0,0.0,0.0,0.0,0.0,0.0,0.0,0.0,0.0,0.0,0.0,0.0,0.0,0.0,0.0,0.0,0.0,0.0,0.0,0.0,0.0,0.0,0.0,0.0,0.0,0.0,0.0,0.0,0.0,0.0,0.0,0.0,0.0,0.0,0.0,0.0,0.0,0.0,0.0,0.0,3.5888,3.8115,4.0127,4.1565,4.1949,4.1309,4.0599,3.8504,3.4848,0.0,0.0,0.0,0.0,0.0,0.0,0.0,0.0,0.0,0.0,0.0,0.0,0.0,0.0,0.0,0.0,0.0,0.0,0.0,0.0,0.0,0.0,0.0,0.0,0.0,0.0,0.0,0.0,0.0,0.0,0.0,0.0,0.0,0.0,0.0,0.0,0.0,0.0,2.1535,2.2974,0.0,0.0,0.0,0.0,0.0,0.0,0.0,0.0,2.5524,0.0,0.0,0.0,0.0,0.0,0.0,0.0,0.0,0.0,0.0,0.0,0.0,0.0,0.0,0.0,0.0,0.0,0.0,0.0,0.0,0.0,0.0,0.0,0.0,0.0,0.0,0.0,0.0,0.0,0.0,0.0,0.0,0.0,0.0,0.0,0.0,0.0,0.0,0.0,0.0,0.0,0.0,0.0,0.0,0.0,0.0,0.0,0.0,0.0,0.0,0.0,0.0,0.0,0.0,0.0,0.0,3.5535,3.7527,3.9328,4.0894,4.2301,4.2751,4.2205,4.1829,3.9944,3.6378,0.0,0.0,0.0,0.0,0.0,0.0,0.0,0.0,0.0,0.0,0.0,0.0,0.0,0.0,0.0,0.0,0.0,0.0,0.0,0.0,0.0,0.0,0.0,0.0,0.0,0.0,0.0,0.0,0.0,0.0,0.0,0.0,0.0,0.0,0.0,0.0,0.0,0.0,0.0,2.529,2.6344,0.0,0.0,0.0,0.0,0.0,0.0,0.0,0.0,2.751,0.0,0.0,0.0,0.0,0.0,0.0,0.0,0.0,0.0,0.0,0.0,0.0,0.0,0.0,0.0,0.0,0.0,0.0,0.0,0.0,0.0,0.0,0.0,0.0,0.0,0.0,0.0,0.0,0.0,0.0,0.0,0.0,0.0,0.0,0.0,0.0,0.0,0.0,0.0,0.0,0.0,0.0,0.0,0.0,0.0,0.0,0.0,0.0,0.0,0.0,0.0,0.0,0.0,0.0,0.0,3.5996,3.8267,4.0128,4.1502,4.294,4.3422,4.2848,4.2226,4.041,0.0,0.0,0.0,0.0,0.0,0.0,0.0,0.0,0.0,0.0,0.0,0.0,0.0,0.0,0.0,0.0,0.0,0.0,0.0,0.0,0.0,0.0,0.0,0.0,0.0,0.0,0.0,0.0,0.0,0.0,0.0,0.0,0.0,0.0,0.0,0.0,0.0,0.0,0.0,0.0,2.6205,2.7504,2.7631,0.0,0.0,0.0,0.0,0.0,0.0,2.943,2.928,0.0,0.0,0.0,0.0,0.0,0.0,0.0,0.0,0.0,0.0,0.0,0.0,0.0,0.0,0.0,0.0,0.0,0.0,0.0,0.0,0.0,0.0,0.0,0.0,0.0,0.0,0.0,0.0,0.0,0.0,0.0,0.0,0.0,0.0,0.0,0.0,0.0,0.0,0.0,0.0,0.0,0.0,0.0,0.0,0.0,0.0,0.0,0.0,0.0,0.0,0.0,0.0,0.0,0.0,0.0,3.6777,3.9196,4.1023,4.2263,4.3671,4.4028,4.3229,4.2457,4.0649,0.0,0.0,0.0,0.0,0.0,0.0,0.0,0.0,0.0,0.0,0.0,0.0,0.0,0.0,0.0,0.0,0.0,0.0,0.0,0.0,0.0,0.0,0.0,0.0,0.0,0.0,0.0,0.0,0.0,0.0,0.0,0.0,0.0,0.0,0.0,0.0,0.0,0.0,0.0,0.0,0.0,2.8428,2.929,3.0171,0.0,0.0,0.0,0.0,3.1155,3.1254,0.0,0.0,0.0,0.0,0.0,0.0,0.0,0.0,0.0,0.0,0.0,0.0,0.0,0.0,0.0,0.0,0.0,0.0,0.0,0.0,0.0,0.0,0.0,0.0,0.0,0.0,0.0,0.0,0.0,0.0,0.0,0.0,0.0,0.0,0.0,0.0,0.0,0.0,0.0,0.0,0.0,0.0,0.0,0.0,0.0,0.0,0.0,0.0,0.0,0.0,0.0,0.0,0.0,0.0,0.0,0.0,3.9454,4.1086,4.2394,4.3456,4.4594,4.4541,4.3261,4.291,4.1108,0.0,0.0,0.0,0.0,0.0,0.0,0.0,0.0,0.0,0.0,0.0,0.0,0.0,0.0,0.0,0.0,0.0,0.0,0.0,0.0,0.0,0.0,0.0,0.0,0.0,0.0,0.0,0.0,0.0,0.0,0.0,0.0,0.0,0.0,0.0,0.0,0.0,0.0,0.0,0.0,0.0,2.9777,3.1031,3.1748,3.1956,0.0,0.0,3.2816,3.3333,3.2793,0.0,0.0,0.0,0.0,0.0,0.0,0.0,0.0,0.0,0.0,0.0,0.0,0.0,0.0,0.0,0.0,0.0,0.0,0.0,0.0,0.0,0.0,0.0,0.0,0.0,0.0,0.0,0.0,0.0,0.0,0.0,0.0,0.0,0.0,0.0,0.0,0.0,0.0,0.0,0.0,0.0,0.0,0.0,0.0,0.0,0.0,0.0,0.0,0.0,0.0,0.0,0.0,0.0,0.0,0.0,3.7034,3.978,4.1629,4.3121,4.4243,4.5324,4.5405,4.4413,4.3719,4.1703,0.0,0.0,0.0,0.0,0.0,0.0,0.0,0.0,0.0,0.0,0.0,0.0,0.0,0.0,0.0,0.0,0.0,0.0,0.0,0.0,0.0,0.0,0.0,0.0,0.0,0.0,0.0,0.0,0.0,0.0,0.0,0.0,0.0,0.0,0.0,0.0,0.0,0.0,0.0,0.0,0.0,0.0,3.2794,3.3864,0.0,0.0,0.0,3.4767,3.4969,0.0,0.0,0.0,0.0,0.0,0.0,0.0,0.0,0.0,0.0,0.0,0.0,0.0,0.0,0.0,0.0,0.0,0.0,0.0,0.0,0.0,0.0,0.0,0.0,0.0,0.0,0.0,0.0,0.0,0.0,0.0,0.0,0.0,0.0,0.0,0.0,0.0,0.0,0.0,0.0,0.0,0.0,0.0,0.0,0.0,0.0,0.0,0.0,0.0,0.0,0.0,0.0,0.0,0.0,0.0,0.0,0.0,4.0229,4.2517,4.4161,4.5191,4.6311,4.6461,4.5565,4.4524,0.0,0.0,0.0,0.0,0.0,0.0,0.0,0.0,0.0,0.0,0.0,0.0,0.0,0.0,0.0,0.0,0.0,0.0,0.0,0.0,0.0,0.0,0.0,0.0,0.0,0.0,0.0,2.5512,0.0,0.0,0.0,0.0,0.0,0.0,0.0,0.0,0.0,0.0,0.0,0.0,0.0,0.0,3.2377,3.4567,3.5773,3.6296,0.0,0.0,3.6714,3.657,3.6123,3.5264,0.0,0.0,0.0,0.0,0.0,0.0,0.0,0.0,0.0,0.0,0.0,0.0,0.0,0.0,0.0,0.0,0.0,0.0,0.0,0.0,0.0,0.0,0.0,0.0,0.0,0.0,0.0,0.0,0.0,0.0,0.0,0.0,0.0,0.0,0.0,0.0,0.0,0.0,0.0,0.0,0.0,0.0,0.0,0.0,0.0,0.0,0.0,0.0,0.0,0.0,0.0,0.0,0.0,0.0,3.9196,4.1755,4.4424,4.6031,4.6645,4.7781,4.7677,4.6266,4.5266,4.3362,0.0,0.0,0.0,0.0,0.0,0.0,0.0,0.0,0.0,0.0,0.0,0.0,0.0,0.0,0.0,0.0,0.0,0.0,0.0,0.0,0.0,0.0,0.0,0.0,0.0,0.0,0.0,0.0,0.0,0.0,0.0,0.0,0.0,0.0,0.0,0.0,0.0,0.0,0.0,0.0,0.0,3.3171,3.6197,3.7051,3.7587,0.0,3.8444,3.8576,3.8362,3.7198,3.5938,3.4783,0.0,0.0,0.0,0.0,0.0,0.0,0.0,0.0,0.0,0.0,0.0,0.0,0.0,0.0,0.0,0.0,0.0,0.0,0.0,0.0,0.0,0.0,0.0,0.0,0.0,0.0,0.0,0.0,0.0,0.0,0.0,0.0,0.0,0.0,0.0,0.0,0.0,0.0,0.0,0.0,0.0,0.0,0.0,0.0,0.0,0.0,0.0,0.0,0.0,0.0,0.0,0.0,0.0,3.9786,4.2614,4.4526,4.6039,4.7183,4.7908,4.8041,4.7677,4.662,4.4949,0.0,0.0,0.0,0.0,0.0,0.0,0.0,0.0,0.0,0.0,0.0,0.0,0.0,0.0,0.0,0.0,0.0,0.0,0.0,0.0,0.0,0.0,0.0,0.0,0.0,0.0,0.0,0.0,3.1794,3.2374,3.2012,0.0,0.0,0.0,0.0,0.0,0.0,0.0,0.0,0.0,0.0,3.5322,3.7527,3.8535,0.0,0.0,3.9662,3.9689,3.9174,3.8516,3.7754,3.6808,3.4695,0.0,0.0,0.0,0.0,0.0,0.0,0.0,0.0,0.0,0.0,0.0,0.0,0.0,0.0,0.0,0.0,0.0,0.0,0.0,0.0,0.0,0.0,0.0,0.0,0.0,0.0,0.0,0.0,0.0,0.0,0.0,0.0,0.0,0.0,0.0,0.0,0.0,0.0,0.0,0.0,0.0,0.0,0.0,0.0,0.0,0.0,0.0,0.0,0.0,0.0,0.0,0.0,4.013,4.2869,4.4707,4.6205,4.7403,4.8159,4.8504,4.8471,4.7798,4.6401,0.0,0.0,0.0,0.0,0.0,0.0,0.0,0.0,0.0,0.0,0.0,0.0,0.0,0.0,0.0,0.0,0.0,0.0,0.0,0.0,0.0,0.0,0.0,0.0,0.0,0.0,0.0,0.0,3.3373,3.3822,3.3105,0.0,0.0,0.0,0.0,0.0,0.0,0.0,0.0,0.0,0.0,3.7228,3.9199,4.0062,4.0585,4.084,4.1017,4.0871,4.0021,3.9609,3.9086,3.8224,0.0,0.0,0.0,0.0,0.0,0.0,0.0,0.0,0.0,0.0,0.0,0.0,0.0,0.0,0.0,0.0,0.0,0.0,0.0,0.0,0.0,0.0,0.0,0.0,0.0,0.0,0.0,2.6515,0.0,0.0,2.5449,0.0,0.0,0.0,0.0,0.0,0.0,0.0,0.0,0.0,0.0,0.0,0.0,0.0,0.0,0.0,0.0,0.0,0.0,0.0,0.0,0.0,0.0,4.0235,4.2431,4.518,4.676,4.7272,4.8733,4.9236,4.8577,4.8584,4.7641,4.5518,0.0,0.0,0.0,0.0,0.0,0.0,0.0,0.0,0.0,0.0,0.0,0.0,0.0,0.0,0.0,0.0,0.0,0.0,0.0,0.0,0.0,0.0,0.0,0.0,0.0,0.0,3.3339,3.3827,3.3799,0.0,0.0,0.0,0.0,0.0,0.0,0.0,0.0,0.0,0.0,3.7558,3.8694,4.1204,4.1458,4.1653,4.2471,4.2629,4.2187,4.0958,4.0402,3.9765,0.0,0.0,0.0,0.0,0.0,0.0,0.0,0.0,0.0,0.0,0.0,0.0,0.0,0.0,0.0,0.0,0.0,0.0,0.0,0.0,0.0,0.0,0.0,0.0,0.0,0.0,0.0,3.2053,3.0885,0.0,0.0,0.0,0.0,0.0,0.0,0.0,0.0,0.0,0.0,0.0,3.8203,3.8533,0.0,0.0,0.0,0.0,0.0,0.0,0.0,0.0,0.0,0.0,0.0,0.0,4.13,4.3819,4.5938,4.757,4.8672,4.9132,4.945,4.9603,4.9226,4.8047,4.6123,0.0,0.0,0.0,0.0,0.0,0.0,0.0,0.0,0.0,0.0,0.0,0.0,0.0,0.0,0.0,0.0,0.0,0.0,0.0,0.0,0.0,0.0,0.0,0.0,0.0,3.3906,0.0,0.0,0.0,0.0,0.0,0.0,0.0,0.0,0.0,0.0,0.0,3.5863,3.7817,3.9047,4.0127,4.1341,4.1938,4.2372,0.0,0.0,0.0,0.0,0.0,0.0,0.0,0.0,0.0,0.0,0.0,0.0,0.0,0.0,3.6014,3.3985,3.4537,3.54,3.5482,0.0,0.0,0.0,0.0,0.0,0.0,0.0,0.0,0.0,0.0,0.0,0.0,0.0,0.0,3.5491,0.0,3.4028,0.0,0.0,0.0,0.0,0.0,0.0,0.0,0.0,4.0226,4.1144,4.1486,4.1782,4.1688,0.0,4.0874,3.9181,0.0,0.0,0.0,0.0,0.0,0.0,0.0,0.0,4.1954,4.4627,4.6211,4.7614,4.8924,4.9131,4.9443,4.9928,4.9493,4.8621,4.7297,4.6581,4.5113,0.0,0.0,0.0,0.0,0.0,0.0,0.0,0.0,0.0,0.0,0.0,0.0,0.0,0.0,0.0,0.0,0.0,0.0,0.0,0.0,0.0,0.0,0.0,3.5483,0.0,0.0,0.0,0.0,0.0,0.0,0.0,0.0,0.0,3.5869,3.6747,3.8026,3.9434,4.045,4.1293,4.1871,0.0,0.0,0.0,0.0,0.0,0.0,0.0,4.286,4.2269,4.2291,4.2488,4.291,4.2413,4.1862,4.1398,0.0,0.0,3.7996,3.8028,3.865,3.8707,3.8673,3.864,3.864,3.8575,3.8541,0.0,0.0,0.0,0.0,0.0,0.0,0.0,0.0,3.9471,3.8775,0.0,3.7643,0.0,0.0,0.0,0.0,3.7796,3.9787,0.0,0.0,4.3245,4.4315,4.5389,4.5536,4.5112,4.4122,4.3902,4.3125,4.1775,3.8994,0.0,0.0,0.0,0.0,0.0,0.0,4.2248,4.4887,4.6136,4.7182,4.8155,4.883,4.9299,4.9523,4.9552,4.9409,4.905,4.8343,4.7158,4.5342,4.3809,0.0,0.0,0.0,0.0,0.0,0.0,0.0,0.0,0.0,0.0,0.0,0.0,0.0,0.0,0.0,0.0,0.0,0.0,0.0,0.0,3.669,0.0,0.0,0.0,0.0,0.0,0.0,0.0,0.0,0.0,0.0,3.84,3.921,4.0291,4.1587,0.0,0.0,0.0,0.0,4.3388,4.4206,4.4336,4.4127,4.3459,4.3947,4.4075,4.3278,0.0,0.0,4.4273,4.4436,4.4528,4.4528,4.5458,4.5453,4.2218,4.1479,4.1523,4.2071,4.2112,4.2038,4.2038,4.1919,4.1836,4.561,0.0,0.0,0.0,0.0,4.3616,4.384,4.3839,4.4013,4.3409,4.226,4.2085,0.0,0.0,0.0,0.0,0.0,0.0,4.4242,4.4637,4.5508,4.6238,4.6687,4.6885,4.6674,4.6121,4.6305,4.5815,4.4732,4.3656,4.2051,3.9964,0.0,0.0,0.0,0.0,4.4537,4.5845,4.7303,4.8446,4.9213,4.9157,4.9337,4.9761,5.0236,5.0276,4.9796,4.9909,4.9147,4.7395,4.5961,0.0,0.0,0.0,0.0,0.0,0.0,0.0,0.0,0.0,0.0,0.0,0.0,0.0,0.0,0.0,0.0,0.0,0.0,0.0,3.6915,3.7009,3.7243,0.0,0.0,0.0,0.0,0.0,0.0,0.0,0.0,0.0,4.1097,4.14,4.2012,0.0,0.0,4.3617,4.3877,4.4074,4.4364,4.5128,4.5247,0.0,4.4908,4.5441,4.5782,4.5561,4.6447,4.7037,4.6432,4.6904,4.7185,4.6697,4.7125,4.7273,4.643,4.562,4.5198,4.5263,4.5208,4.5196,4.5196,4.5154,4.5082,4.9677,4.8497,4.677,4.6127,4.6332,4.6786,4.698,4.6977,4.7009,4.6475,4.5546,4.5285,4.4143,4.231,4.294,0.0,0.0,0.0,4.6377,4.6619,4.7334,4.7843,4.8159,4.8189,4.8019,4.7675,4.7848,4.751,4.6801,4.6534,4.5387,4.3379,0.0,0.0,4.2862,4.4448,4.5827,4.6969,4.8108,4.903,4.9688,4.9562,4.9604,4.987,5.0421,5.0611,5.0429,5.0509,5.0076,4.8923,4.7512,4.6164,0.0,0.0,0.0,0.0,0.0,0.0,0.0,0.0,0.0,0.0,0.0,3.8515,3.9012,0.0,0.0,0.0,3.7922,3.8103,3.8477,3.8392,0.0,0.0,0.0,0.0,0.0,0.0,0.0,4.1525,4.2246,4.2972,4.3738,4.399,4.421,4.4458,4.4574,4.4762,4.5141,0.0,4.5593,4.6241,4.6359,4.6329,4.6329,4.6815,4.7344,4.7519,4.7867,4.8173,4.7899,4.8255,4.8436,4.8126,4.8354,4.8745,4.8745,4.829,4.7724,4.7148,4.6985,4.6985,4.6985,4.6985,4.703,5.2959,5.3311,5.0492,4.9394,4.9505,4.9296,4.9192,4.9155,4.8822,4.837,4.7823,4.7559,4.6748,4.5602,4.5492,0.0,4.58,4.7048,4.7884,4.8286,4.8667,4.9084,4.9584,4.9314,4.9088,4.8814,4.8689,4.8458,4.8138,4.8039,4.7748,4.7261,4.524,4.4477,4.5023,4.5446,4.646,4.8033,4.8439,4.903,4.9717,4.9941,4.9985,4.9838,5.0255,5.0577,5.0765,5.0474,5.0153,4.9812,4.8559,4.7308,4.6163,0.0,0.0,0.0,0.0,0.0,0.0,0.0,0.0,0.0,0.0,0.0,0.0,0.0,0.0,0.0,3.9906,0.0,4.0263,4.045,0.0,0.0,0.0,4.1498,4.2061,4.2169,4.2662,4.3708,0.0,0.0,4.6092,4.6641,4.655,4.5697,4.5464,4.5727,4.6549,4.6667,4.6917,4.7711,4.774,4.777,4.7959,4.8446,4.8928,4.919,4.8621,4.8468,4.8885,4.9001,4.8972,4.9001,4.9436,4.9863,4.9814,4.9805,4.9465,4.8381,4.8061,4.7974,4.7974,4.7974,4.7974,5.3103,5.3082,5.2365,5.1862,5.1469,5.1094,5.083,5.0644,5.0235,5.0062,5.0056,4.9562,4.885,4.8067,4.7794,4.7752,4.7825,4.8498,4.8848,4.8953,4.8835,4.9072,4.9512,4.9449,4.928,4.9075,4.9479,4.9307,4.8632,4.9049,4.8962,4.8294,4.7357,4.6531,4.5947,4.6958,4.7595,4.7876,4.8391,4.903,4.9669,4.9766,4.9854,5.0044,5.0301,5.0206,4.9849,5.0105,4.9889,4.9169,4.8488,4.7801,4.7114,4.5793,0.0,0.0,0.0,0.0,0.0,0.0,0.0,0.0,0.0,4.1874,4.3301,0.0,4.2626,0.0,4.1911,4.1698,4.2237,4.2024,0.0,0.0,4.3301,4.3808,4.3956,4.4683,4.5288,4.5581,4.5974,4.6318,4.6608,4.7218,4.7811,4.8486,4.7788,4.7439,4.8068,4.8184,4.8592,4.9659,4.9892,5.0126,5.0426,5.0746,5.0863,5.1017,5.0772,5.0772,5.0888,5.0946,5.0946,5.0946,5.1033,5.1149,5.112,5.1149,5.1062,5.0714,4.993,4.9233,4.9282,4.9282,4.9204,5.3865,5.389,5.36,5.3214,5.2835,5.2236,5.1907,5.1642,5.1327,5.1118,5.1006,5.0198,4.9552,4.8996,4.8686,4.8477,4.8567,4.9353,4.9753,4.9736,5.0065,5.0394,5.0573,5.0505,5.0184,4.9824,5.0204,4.9931,4.9204,4.9494,4.9494,4.9146,4.8798,4.8225,4.7357,4.7474,4.7631,4.7782,4.8391,4.903,4.964,4.9407,4.9311,4.9455,4.945,4.9356,4.9089,4.9118,4.9031,4.8645,4.8129,4.7579,4.7004,4.6414,4.5463,0.0,0.0,0.0,0.0,0.0,0.0,0.0,0.0,0.0,0.0,0.0,4.4238,4.4134,4.3943,4.3921,4.4269,4.4036,4.418,4.4778,4.5288,4.5727,4.599,4.6544,4.6891,4.692,4.7335,4.7735,4.8072,4.8653,4.9436,5.0394,4.993,4.9611,4.993,4.9968,5.0278,5.0975,5.1091,5.1207,5.1585,5.1643,5.173,5.1962,5.1817,5.1701,5.1962,5.1817,5.1643,5.1643,5.1643,5.1643,5.1643,5.1643,5.1643,5.1527,5.1062,5.0481,5.0211,4.9872,4.9746,5.4648,5.4966,5.4274,5.3894,5.3665,5.2945,5.2504,5.2222,5.1976,5.1633,5.1146,5.0194,4.9659,4.9312,4.89,4.8715,4.8803,4.9846,5.0346,5.0434,5.1365,5.1821,5.1821,5.1686,5.1323,5.0801,5.0714,5.0365,4.9814,4.9776,4.9746,4.9669,4.9611,4.9262,4.8663,4.755,4.723,4.7782,4.8478,4.9117,4.9688,4.9146,4.8798,4.8711,4.8424,4.8278,4.8303,4.8028,4.7897,4.8073,4.7491,4.701,4.6581,4.6701,4.6092,0.0,4.4572,0.0,0.0,0.0,0.0,0.0,0.0,0.0,0.0,4.5404,4.5798,4.5537,4.5869,4.6127,4.6127,4.6127,4.6359,4.6882,4.6981,4.7288,4.7811,4.7956,4.8072,4.813,4.8653,4.9204,4.9843,5.0452,5.1033,5.1585,5.1759,5.1817,5.1962,5.1788,5.1701,5.1846,5.1846,5.1962,5.1962,5.1933,5.2107,5.2514,5.231,5.2049,5.2601,5.2252,5.1904,5.1904,5.1962,5.1933,5.1875,5.1904,5.1904,5.1911,5.1817,5.1497,5.0917,5.0394,4.9959,5.4453,5.4465,5.3988,5.3753,5.3742,5.3196,5.2531,5.1913,5.1361,5.0987,5.0743,5.0832,5.0653,5.0183,4.9897,4.9831,4.9783,4.9795,4.996,5.0164,5.0679,5.093,5.0988,5.1381,5.1556,5.141,5.0946,5.0676,5.0531,4.9979,4.9746,4.9717,4.9146,4.8827,4.8634,0.0,0.0,0.0,4.8914,4.9553,4.9717,4.9553,4.9233,4.874,4.8671,0.0,4.7499,4.7369,4.7227,4.6948,4.6801,0.0,0.0,0.0,0.0,0.0,0.0,0.0,0.0,0.0,0.0,0.0,4.7199,4.7156,4.69,4.7347,4.7545,4.7323,4.7393,4.7433,4.7404,4.7433,4.7462,4.7608,4.8043,4.8373,4.8566,4.9001,4.9524,5.0075,5.0249,5.054,5.112,5.1381,5.1701,5.2339,5.2833,5.3355,5.3878,5.3065,5.263,5.3036,5.3152,5.3152,5.3152,5.3123,5.3123,5.3297,5.3268,5.3181,5.3239,5.3239,5.3123,5.3094,5.3152,5.3123,5.3123,5.3152,5.3065,5.3123,5.2746,5.2194,5.1585,5.1352,5.1236,5.3997,5.3899,5.3509,5.329,0.0,5.2667,5.2192,5.1752,5.1621,5.1347,5.0889,5.0845,5.0614,5.0279,5.0038,4.9863,4.9892,5.0115,5.0261,5.0417,5.0909,5.1149,5.1149,5.1788,5.1933,5.1614,5.1614,5.1294,5.0734,5.0386,5.0017,4.9669,4.9349,4.9204,4.9175,4.8885,4.8566,4.8246,4.8885,4.9349,4.964,4.9378,4.9059,4.874,4.842,0.0,0.0,0.0,0.0,0.0,0.0,0.0,0.0,0.0,0.0,4.6844,4.6648,4.6675,4.7103,4.7076,4.7257,4.7911,4.8249,4.8276,4.7837,4.8177,4.8388,4.8246,4.8537,4.874,4.8759,4.8711,4.8711,4.874,4.9291,4.9669,4.9756,5.0249,5.0772,5.1062,5.1149,5.1381,5.202,5.2397,5.2804,5.3442,5.4052,5.4575,5.4836,5.4429,5.4139,5.44,5.4458,5.4342,5.4081,5.3994,5.3849,5.3617,5.35,5.35,5.35,5.35,5.35,5.35,5.35,5.35,5.35,5.35,5.35,5.35,5.3268,5.2949,5.2572,5.2078,5.1643,5.3302,5.3157,5.2846,5.2622,5.2487,5.1911,5.1572,5.1433,0.0,0.0,0.0,5.0567,5.0279,5.0038,4.9766,4.9746,4.9776,5.0299,5.0511,5.0589,5.1149,5.1468,5.1497,5.2223,5.2281,5.1817,5.231,5.202,5.1083,5.0888,5.0569,5.0075,5.0017,5.0066,5.0017,5.0017,4.9756,4.9214,4.9001,4.9146,4.964,4.9175,4.8827,4.8711,4.8217,4.7898,4.7782,4.7782,4.7782,4.7782,4.7782,4.7782,4.7829,4.794,4.78,4.7332,4.7457,4.7607,4.7695,4.7695,4.8047,4.8828,4.9267,4.9172,4.8267,4.8719,4.9088,4.9088,4.964,5.0017,5.0017,5.0017,5.0017,5.0017,5.0511,5.083,5.0859,5.1294,5.1614,5.1759,5.1904,5.2223,5.2862,5.3471,5.4023,5.4604,5.5126,5.5591,5.5562,5.5387,5.5242,5.5271,5.5097,5.4981,5.4633,5.4313,5.4139,5.3617,5.35,5.35,5.35,5.35,5.35,5.35,5.35,5.35,5.35,5.35,5.35,5.35,5.35,5.35,5.3413,5.2688,5.2049,5.2306,5.2397,5.1711,5.1572,5.1711,5.1199,5.0822,5.0662,5.0739,5.0567,5.0279,5.0183,5.0038,4.9766,4.9717,4.9746,4.9746,4.9756,4.9863,4.9892,5.0511,5.0801,5.0888,5.2071,5.2514,5.2507,5.2543,5.2484,5.2304,5.1759,5.1439,5.1352,5.1352,5.1323,5.1352,5.1352,5.1294,5.1157,5.0104,4.9582,4.9669,4.963,4.9291,4.874,4.8653,4.8333,4.7811,4.7811,4.7782,4.7782,4.7782,4.7782,4.7782,4.7887,4.7771,4.7759,4.773,4.7963,4.8515,4.8545,4.9068,5.0261,5.0909,5.0531,4.8846,4.9746,5.0394,5.0423,5.0917,5.1352,5.1352,5.1294,5.1265,5.1294,5.141,5.1497,5.1497,5.1614,5.1904,5.2426,5.292,5.3471,5.4052,5.4691,5.5039,5.53,5.5649,5.62,5.6055,5.5765,5.5445,5.5329,5.4952,5.4662,5.4487,5.4023,5.3733,5.353,5.35,5.35,5.35,5.35,5.35,5.35,5.35,5.35,5.35,5.35,5.35,5.35,5.35,5.35,5.35,5.3268,5.3152,5.1356,5.1433,5.0994,5.0899,5.0994,5.0585,5.025,5.0086,5.0038,5.0086,5.0086,4.9941,4.9815,4.9746,4.9746,4.9746,4.9746,4.9746,4.9746,4.9746,4.9988,5.0182,5.0249,5.1468,5.2049,5.2078,5.2775,5.292,5.2623,5.2333,5.1962,5.1643,5.1643,5.1643,5.1643,5.1643,5.1643,5.1614,5.1033,5.0743,5.0743,5.0743,5.0598,5.0258,5.0278,5.0162,4.9872,4.9524,4.9398,4.9398,4.9349,4.9398,4.9349,4.9669,4.9872,4.9872,4.9872,4.9988,5.0278,5.0278,5.0569,5.1149,5.1439,5.1265,5.0316,5.083,5.1178,5.1207,5.1468,5.1643,5.1643,5.1643,5.1643,5.1643,5.1904,5.2136,5.2165,5.2455,5.2891,5.35,5.3878,5.4168,5.4458,5.5039,5.5242,5.5068,5.5474,5.5852,5.5881,5.562,5.5387,5.5387,5.5184,5.4865,5.4575,5.4284,5.3936,5.3588,5.35,5.35,5.35,5.35,5.35,5.35,5.35,5.35,5.35,5.35,5.35,5.35,5.35,5.35,5.35,5.35,5.35,5.0603,5.0632,5.0423,5.0357,5.0279,5.0086,4.9863,4.9717,4.9746,4.9844,4.999,4.9766,4.9746,4.9746,4.9746,4.9746,4.9746,4.9746,4.9746,4.9746,4.9746,4.9756,5.0017,5.1091,5.1701,5.1933,5.2978,5.3268,5.2833,5.2775,5.2543,5.2078,5.2049,5.2049,5.1998,5.2049,5.2049,5.2049,5.2049,5.1904,5.1643,5.1643,5.1614,5.1643,5.1614,5.1643,5.1614,5.1149,5.0888,5.0888,5.0888,5.0888,5.0917,5.1352,5.1643,5.1643,5.1643,5.1643,5.1643,5.1759,5.1846,5.1846,5.1962,5.2049,5.2049,5.2049,5.1991,5.1875,5.1991,5.2078,5.2107,5.2078,5.2049,5.2078,5.2484,5.2775,5.2833,5.321,5.3704,5.4197,5.44,5.4517,5.4604,5.5039,5.5213,5.4952,5.5039,5.5184,5.5213,5.5097,5.4981,5.501,5.5097,5.501,5.4575,5.4342,5.4023,5.3559,5.35,5.35,5.35,5.35,5.35,5.35,5.35,5.35,5.35,5.35,5.35,5.35,5.35,5.35,5.35,5.35,5.35,5.0183,5.0135,4.9941,4.9766,4.9795,4.9795,4.9746,4.9746,4.9746,4.9717,4.9717,4.9717,4.9746,4.9746,4.9746,4.9746,4.9746,4.9746,4.9746,4.9746,4.9746,5.0037,5.0569,5.1294,5.1933,5.2484,5.3181,5.3471,5.3384,5.3384,5.3384,5.3355,5.3326,5.3297,5.3297,5.3297,5.3326,5.3326,5.3355,5.2775,5.1701,5.1643,5.1643,5.1643,5.1643,5.1643,5.1701,5.1556,5.1527,5.1527,5.1527,5.1527,5.1527,5.1614,5.1643,5.1672,5.1643,5.1643,5.1672,5.2165,5.2536,5.2514,5.2978,5.3268,5.3268,5.3297,5.3065,5.2688,5.3007,5.3239,5.3326,5.3268,5.321,5.3152,5.3297,5.3442,5.3413,5.3471,5.353,5.3588,5.4197,5.4517,5.4575,5.4952,5.5271,5.5039,5.4836,5.472,5.4662,5.4371,5.4081,5.3994,5.4226,5.4604,5.4429,5.3965,5.3704,5.353,5.353,5.3588,5.3617,5.3646,5.353,5.3704,5.3588,5.3617,5.35,5.35,5.35,5.35,5.35,5.35,5.35,5.35,5.35,5.0126,5.0397,5.0328,5.0299,5.0278,5.0328,5.0095,4.9746,4.9746,4.9746,4.9746,4.9746,4.9746,4.9746,4.9746,4.9746,4.9746,4.9746,4.9746,4.9776,5.0124,5.0423,5.0793,5.173,5.2339,5.2652,5.321,5.35,5.35,5.35,5.35,5.35,5.35,5.35,5.35,5.35,5.35,5.35,5.35,5.3239,5.2833,5.2746,5.2746,5.2746,5.2746,5.2746,5.2688,5.2397,5.2194,5.2194,5.2165,5.2194,5.2194,5.2543,5.2746,5.2746,5.2746,5.2746,5.2746,5.2978,5.3123,5.3123,5.3355,5.35,5.35,5.35,5.3384,5.321,5.3355,5.35,5.35,5.35,5.35,5.35,5.35,5.35,5.35,5.35,5.3646,5.4023,5.4342,5.4517,5.4487,5.4371,5.4313,5.4342,5.4371,5.4633,5.4546,5.4546,5.4662,5.472,5.5213,5.5039,5.4255,5.3733,5.3559,5.3588,5.3849,5.4081,5.4139,5.4458,5.4546,5.4168,5.411,5.3907,5.3559,5.353,5.35,5.3559,5.353,5.35,5.35,5.35,5.35,5.0336,5.0888,5.0917,5.0917,5.0946,5.0917,5.0656,5.0249,5.022,5.0191,5.022,5.0191,5.0191,5.0162,4.9843,4.9746,4.9746,4.9746,4.9834,5.0037,5.0502,5.0859,5.1316,5.2158,5.271,5.2891,5.3297,5.35,5.35,5.35,5.35,5.35,5.35,5.35,5.35,5.35,5.3617,5.3762,5.3617,5.3588,5.3733,5.3617,5.35,5.35,5.35,5.35,5.35,5.3065,5.2833,5.2833,5.2833,5.2833,5.2862,5.3268,5.35,5.35,5.35,5.35,5.35,5.35,5.35,5.35,5.35,5.35,5.35,5.35,5.35,5.35,5.3675,5.3762,5.353,5.35,5.35,5.35,5.35,5.35,5.35,5.35,5.3675,5.4139,5.4139,5.4313,5.4429,5.4313,5.4255,5.4546,5.4981,5.5271,5.5329,5.5678,5.5939,5.5939,5.6229,5.562,5.4197,5.4284,5.4168,5.3965,5.4313,5.4749,5.4749,5.5184,5.5358,5.4778,5.4749,5.4691,5.44,5.4168,5.3994,5.3994,5.3936,5.382,5.3878,5.3704,5.353,5.1004,5.1556,5.1585,5.1614,5.1585,5.1585,5.1556,5.1381,5.1468,5.1497,5.1439,5.1468,5.1497,5.1381,5.0278,4.9776,4.9776,4.9834,5.0104,5.0598,5.0763,5.1403,5.2478,5.2572,5.2891,5.3355,5.3442,5.35,5.35,5.35,5.35,5.35,5.35,5.353,5.3559,5.3588,5.3849,5.4342,5.3936,5.3849,5.4313,5.3878,5.3588,5.3559,5.35,5.35,5.35,5.35,5.3442,5.3471,5.3471,5.3471,5.3471,5.353,5.3588,5.3588,5.3588,5.3559,5.3559,5.3559,5.3559,5.35,5.35,5.35,5.353,5.3588,5.3617,5.353,5.4139,5.4226,5.3762,5.3762,5.3675,5.3646,5.3588,5.3617,5.3588,5.3704,5.353,5.3704,5.3878,5.4197,5.4546,5.501,5.5533,5.6055,5.6723,5.7071,5.7013,5.7129,5.7158,5.7042,5.6752,5.5997,5.4894,5.4952,5.5213,5.501,5.4894,5.5358,5.5358,5.5387,5.5416,5.5416,5.5387,5.5387,5.5329,5.5242,5.5126,5.4981,5.4633,5.4487,5.4429,5.3878,5.3704,5.1643,5.2252,5.2659,5.2601,5.2223,5.2223,5.1991,5.1643,5.1643,5.1643,5.1643,5.1643,5.1643,5.1585,5.1149,5.0917,5.0917,5.0917,5.1062,5.1323,5.1701,5.2187,5.2594,5.2978,5.3268,5.3471,5.35,5.35,5.35,5.35,5.35,5.35,5.35,5.3704,5.4081,5.4139,5.4458,5.501,5.4836,5.4865,5.5039,5.4865,5.4546,5.4139,5.3733,5.35,5.35,5.35,5.35,5.35,5.3907,5.4168,5.4197,5.4517,5.472,5.472,5.472,5.4546,5.4226,5.4139,5.3965,5.3559,5.35,5.353,5.3588,5.3907,5.4168,5.4255,5.472,5.4923,5.4807,5.472,5.472,5.472,5.472,5.4662,5.472,5.472,5.472,5.4778,5.5068,5.5474,5.5678,5.6258,5.6694,5.6984,5.7536,5.7884,5.7942,5.7942,5.7942,5.7913,5.7739,5.7187,5.5939,5.5591,5.5562,5.5503,5.5533,5.591,5.6055,5.6345,5.6461,5.6113,5.6055,5.5881,5.5823,5.5649,5.5649,5.5533,5.5213,5.5126,5.5097,5.4546,5.4255,5.2484,5.292,5.3326,5.3268,5.2891,5.2862,5.263,5.2252,5.2223,5.2223,5.2223,5.2223,5.2223,5.2223,5.2252,5.2223,5.2165,5.1846,5.173,5.1962,5.2368,5.271,5.292,5.3297,5.35,5.35,5.35,5.3617,5.382,5.3849,5.3936,5.4139,5.4139,5.4342,5.4749,5.4807,5.5126,5.5591,5.5533,5.5474,5.5678,5.5503,5.5242,5.4807,5.4342,5.3907,5.3559,5.3704,5.3849,5.3907,5.4458,5.4807,5.4865,5.5184,5.5416,5.5387,5.5213,5.4952,5.4546,5.4313,5.4081,5.3878,5.3849,5.3907,5.411,5.4546,5.4778,5.4923,5.5358,5.5736,5.5765,5.5881,5.5852,5.5533,5.5416,5.5416,5.5416,5.5387,5.5474,5.5707,5.6026,5.6403,5.6723,5.7245,5.7536,5.7623,5.8203,5.8581,5.8639,5.8639,5.8639,5.861,5.8377,5.7913,5.71,5.6665,5.6171,5.6026,5.6171,5.652,5.6694,5.7071,5.7158,5.681,5.6578,5.6403,5.6229,5.6055,5.5997,5.5939,5.5852,5.5765,5.5533,5.5213,5.4952,5.3471,5.3471,5.35,5.35,5.3413,5.3413,5.3471,5.3384,5.3384,5.3297,5.3268,5.3413,5.3297,5.3413,5.3297,5.3413,5.3152,5.2281,5.2107,5.2543,5.263,5.2949,5.3413,5.3471,5.35,5.35,5.35,5.3849,5.44,5.4429,5.4691,5.5242,5.5242,5.5242,5.5416,5.5445,5.5736,5.6171,5.5881,5.5852,5.6229,5.5881,5.5562,5.5445,5.5358,5.4807,5.3675,5.4197,5.4517,5.4575,5.5097,5.5416,5.5474,5.5562,5.5503,5.5503,5.4981,5.4662,5.4546,5.4139,5.4197,5.4371,5.4517,5.472,5.5068,5.5329,5.5416,5.5503,5.5997,5.6403,5.649,5.681,5.6723,5.5707,5.5649,5.5649,5.5562,5.5474,5.5678,5.6258,5.6549,5.6694,5.7274,5.7884,5.829,5.8406,5.8784,5.9161,5.9103,5.9045,5.919,5.9045,5.8552,5.7855,5.7797,5.771,5.71,5.6636,5.6897,5.7129,5.7071,5.7303,5.7303,5.7042,5.7042,5.6868,5.6868,5.6723,5.6839,5.6781,5.6607,5.6374,5.62,5.5939,5.5591,5.35,5.35,5.35,5.35,5.35,5.35,5.35,5.35,5.35,5.35,5.35,5.35,5.35,5.35,5.35,5.35,5.3471,5.3065,5.3036,5.3181,5.321,5.3297,5.3471,5.35,5.35,5.35,5.35,5.3849,5.4429,5.4546,5.4807,5.53,5.5416,5.5649,5.6084,5.6113,5.6403,5.6926,5.681,5.6839,5.7013,5.681,5.652,5.6142,5.6084,5.5678,5.4894,5.501,5.5126,5.5155,5.5765,5.6287,5.6607,5.6723,5.6723,5.6694,5.6549,5.6229,5.5852,5.5591,5.5271,5.5213,5.5126,5.5213,5.5416,5.5852,5.6084,5.6142,5.6665,5.7013,5.7071,5.7158,5.71,5.6752,5.6723,5.6636,5.6607,5.6665,5.681,5.7013,5.7419,5.7768,5.8029,5.8552,5.8842,5.8813,5.9074,5.9219,5.919,5.8813,5.8639,5.8552,5.8029,5.771,5.7623,5.7565,5.7274,5.6955,5.7158,5.7303,5.7303,5.7303,5.7303,5.7303,5.7303,5.7303,5.7303,5.7303,5.7303,5.7303,5.7042,5.6926,5.6926,5.6665,5.6229,5.35,5.35,5.35,5.35,5.35,5.35,5.35,5.35,5.35,5.35,5.35,5.35,5.35,5.35,5.35,5.35,5.35,5.35,5.35,5.35,5.35,5.35,5.3559,5.3791,5.3878,5.3936,5.411,5.4546,5.5184,5.5242,5.5533,5.6026,5.6113,5.6316,5.6723,5.6752,5.6955,5.7274,5.7303,5.7303,5.7303,5.7303,5.71,5.681,5.6752,5.652,5.6142,5.6113,5.5997,5.5939,5.6403,5.6926,5.7274,5.7303,5.7303,5.7274,5.7042,5.6752,5.6432,5.6055,5.6026,5.5794,5.5765,5.591,5.6113,5.6549,5.6723,5.681,5.7042,5.739,5.7623,5.7681,5.7681,5.7681,5.739,5.7332,5.7303,5.7303,5.7448,5.7623,5.8,5.8232,5.8406,5.8581,5.8813,5.8668,5.8552,5.8552,5.8493,5.8203,5.8058,5.7913,5.7652,5.7448,5.7361,5.7332,5.7332,5.7274,5.7274,5.7303,5.7303,5.7303,5.7303,5.7303,5.7303,5.7303,5.7303,5.7303,5.7303,5.7303,5.7303,5.7245,5.7129,5.7042,5.6723,5.35,5.35,5.35,5.35,5.35,5.35,5.35,5.35,5.35,5.35,5.35,5.35,5.35,5.35,5.35,5.35,5.35,5.35,5.3588,5.3646,5.3646,5.3675,5.3733,5.4284,5.4546,5.4633,5.5039,5.5649,5.6171,5.62,5.6723,5.71,5.71,5.7245,5.7216,5.7274,5.7245,5.7303,5.7303,5.7303,5.7303,5.7303,5.7303,5.7245,5.7245,5.7187,5.7129,5.71,5.6926,5.6607,5.6955,5.7245,5.7303,5.7303,5.7303,5.7274,5.6781,5.6636,5.6374,5.6142,5.5968,5.6403,5.6461,5.6665,5.7042,5.7129,5.7245,5.7361,5.7419,5.7681,5.8203,5.8348,5.8377,5.829,5.7739,5.7361,5.7303,5.7303,5.7507,5.7971,5.8232,5.8232,5.8145,5.8203,5.7971,5.7652,5.7507,5.7565,5.7565,5.7565,5.739,5.7332,5.7361,5.7361,5.7303,5.7303,5.7303,5.7303,5.7303,5.7303,5.7303,5.7303,5.7303,5.7303,5.7303,5.7303,5.7303,5.7303,5.7303,5.7303,5.7303,5.7303,5.7245,5.7158,5.71,5.35,5.35,5.35,5.35,5.35,5.35,5.35,5.35,5.35,5.35,5.35,5.35,5.35,5.35,5.35,5.35,5.35,5.353,5.382,5.4197,5.4255,5.4255,5.4371,5.4865,5.5184,5.5213,5.5416,5.5765,5.6374,5.6461,5.6752,5.7303,5.7303,5.7303,5.7303,5.7303,5.7303,5.7303,5.7303,5.7303,5.7303,5.7303,5.7303,5.7303,5.7303,5.7303,5.7303,5.7303,5.7245,5.71,5.7187,5.7303,5.7303,5.7303,5.7303,5.7274,5.7158,5.7071,5.7013,5.6868,5.6897,5.7013,5.7013,5.7129,5.7274,5.7303,5.7536,5.7855,5.8058,5.8319,5.8871,5.9045,5.9045,5.89,5.8087,5.7419,5.7419,5.7332,5.739,5.7536,5.7652,5.771,5.771,5.7681,5.7565,5.739,5.7303,5.7303,5.7303,5.7303,5.7303,5.7303,5.7332,5.7332,5.7303,5.7303,5.7303,5.7303,5.7303,5.7303,5.7303,5.7303,5.7303,5.7303,5.7303,5.7303,5.7303,5.7303,5.7303,5.7303,5.7303,5.7303,5.7303,5.7245,5.7245,5.35,5.35,5.35,5.35,5.35,5.35,5.35,5.35,5.35,5.35,5.35,5.35,5.35,5.35,5.35,5.35,5.353,5.382,5.4168,5.4546,5.5068,5.5155,5.5126,5.5533,5.5823,5.5881,5.6084,5.6403,5.6752,5.6781,5.6984,5.7245,5.7303,5.7303,5.7303,5.7303,5.7303,5.7303,5.7303,5.7303,5.7303,5.7303,5.7303,5.7303,5.7303,5.7303,5.7303,5.7303,5.7303,5.7303,5.7303,5.7303,5.7303,5.7303,5.7303,5.7303,5.7303,5.7303,5.7303,5.7303,5.7303,5.7303,5.7303,5.7303,5.739,5.7536,5.7971,5.8203,5.8552,5.9016,5.9539,5.9684,5.9684,5.9568,5.8755,5.8174,5.8145,5.8203,5.8145,5.8145,5.8145,5.8,5.7797,5.771,5.7565,5.739,5.7303,5.7303,5.7303,5.7332,5.7303,5.7303,5.7303,5.7303,5.7303,5.7303,5.7303,5.7303,5.7303,5.7303,5.7303,5.7303,5.7303,5.7303,5.7303,5.7303,5.7303,5.7303,5.7303,5.7303,5.7303,5.7303,5.7303,5.7303,5.7303,5.35,5.35,5.35,5.35,5.35,5.35,5.35,5.35,5.35,5.35,5.35,5.35,5.35,5.35,5.35,5.35,5.3559,5.4139,5.4575,5.5097,5.5765,5.6171,5.5823,5.6229,5.6461,5.6549,5.7071,5.7187,5.7216,5.7245,5.7274,5.7303,5.7303,5.7303,5.7303,5.7303,5.7303,5.7303,5.7303,5.7303,5.7303,5.7332,5.7361,5.7536,5.7536,5.7507,5.7477,5.739,5.7303,5.7303,5.7303,5.7303,5.7303,5.7303,5.7303,5.7303,5.7303,5.7303,5.7303,5.7303,5.7303,5.7332,5.739,5.7419,5.7594,5.8029,5.8493,5.8726,5.9074,5.9655,6.0177,6.0293,6.0293,6.0235,5.9771,5.9539,5.948,5.9393,5.9306,5.9277,5.9219,5.8871,5.861,5.8261,5.8029,5.8058,5.7855,5.7652,5.7652,5.7681,5.7536,5.7303,5.7303,5.7303,5.7303,5.7303,5.7303,5.7303,5.7303,5.7303,5.7303,5.7303,5.7303,5.7303,5.7303,5.7303,5.7303,5.7303,5.7303,5.7303,5.7303,5.7303,5.7303,5.7303,5.7303,5.35,5.35,5.35,5.35,5.35,5.35,5.35,5.35,5.35,5.35,5.35,5.35,5.35,5.35,5.35,5.35,5.3675,5.4342,5.4981,5.6084,5.6723,5.7042,5.6868,5.7042,5.7071,5.7129,5.7216,5.7303,5.7303,5.7303,5.7332,5.7332,5.7419,5.7332,5.739,5.7419,5.7332,5.7303,5.7303,5.7303,5.7303,5.7332,5.7507,5.7884,5.8029,5.8058,5.7971,5.7594,5.7332,5.7303,5.7303,5.7303,5.7303,5.7303,5.7303,5.7303,5.7303,5.7303,5.7332,5.7361,5.7332,5.7477,5.7855,5.8087,5.8116,5.8697,5.9277,5.9655,5.9945,6.0293,6.0787,6.0961,6.0903,6.0845,6.0787,6.07,6.0613,5.9916,5.948,5.9306,5.9016,5.8697,5.8987,5.8145,5.8116,5.8581,5.8464,5.8145,5.8087,5.8087,5.7942,5.7768,5.7739,5.7797,5.7768,5.7681,5.7448,5.7361,5.7303,5.7303,5.7303,5.7303,5.7303,5.7303,5.7303,5.7303,5.7303,5.7303,5.7303,5.7303,5.7303,5.7303,5.7303,5.7303,5.7303,5.35,5.35,5.35,5.35,5.35,5.35,5.35,5.35,5.35,5.35,5.35,5.35,5.35,5.35,5.353,5.3646,5.4168,5.4981,5.591,5.6723,5.7187,5.7303,5.7303,5.7303,5.7303,5.7332,5.7303,5.7303,5.7303,5.7361,5.7477,5.7768,5.7768,5.8029,5.8116,5.7942,5.7797,5.771,5.7448,5.7303,5.7303,5.7332,5.739,5.7855,5.8087,5.8203,5.7797,5.7507,5.7332,5.7332,5.7332,5.7332,5.7303,5.7303,5.7303,5.7303,5.7303,5.7507,5.7652,5.7797,5.7942,5.8203,5.8581,5.8697,5.89,5.9364,5.98,6.0177,6.0467,6.0845,6.1135,6.1164,6.1193,6.1193,6.1193,6.1193,6.1077,6.0584,6.0177,6.0119,6.0003,5.9771,5.9393,5.8581,5.8493,5.9074,5.8581,5.829,5.8755,5.8755,5.8697,5.8552,5.8406,5.8348,5.829,5.8087,5.7681,5.7507,5.7303,5.7303,5.7303,5.7303,5.7303,5.7303,5.7303,5.7303,5.7303,5.7303,5.7303,5.7303,5.7303,5.7303,5.7303,5.7303,5.7303,5.35,5.35,5.35,5.35,5.35,5.35,5.35,5.35,5.35,5.35,5.35,5.35,5.3588,5.3675,5.3704,5.4081,5.4923,5.5736,5.6607,5.7158,5.7274,5.7303,5.7303,5.7303,5.7419,5.7419,5.7332,5.7332,5.7507,5.7507,5.7884,5.8348,5.8464,5.8639,5.8987,5.8784,5.8464,5.8377,5.8029,5.7826,5.7797,5.7768,5.7826,5.7942,5.8058,5.8232,5.7913,5.7681,5.7565,5.7594,5.7594,5.7594,5.7594,5.7477,5.7448,5.7507,5.7681,5.8029,5.8348,5.8493,5.8697,5.9277,5.9422,5.9422,5.9539,5.9974,6.0322,6.0555,6.0816,6.1106,6.1193,6.1193,6.1193,6.1193,6.1193,6.1193,6.1193,6.1193,6.1048,6.1019,6.0584,6.0235,5.9974,5.9393,5.9451,5.9393,5.8842,5.8668,5.9161,5.9393,5.9306,5.9074,5.8871,5.8523,5.8406,5.8348,5.7971,5.7536,5.7303,5.7303,5.7303,5.7303,5.7303,5.7303,5.7303,5.7303,5.7303,5.7303,5.7303,5.7303,5.7303,5.7303,5.7303,5.7303,5.7303,5.35,5.35,5.35,5.35,5.35,5.35,5.35,5.35,5.35,5.35,5.353,5.353,5.3878,5.4197,5.4342,5.4981,5.5823,5.6403,5.6781,5.7245,5.7303,5.7303,5.7303,5.7419,5.7623,5.7855,5.7681,5.7623,5.8,5.8174,5.8348,5.8929,5.9074,5.9219,5.9277,5.919,5.9132,5.9103,5.8871,5.8755,5.8755,5.8784,5.8639,5.8581,5.8377,5.8406,5.8639,5.8377,5.8406,5.89,5.8958,5.8929,5.8784,5.8406,5.8203,5.8203,5.8523,5.8842,5.9074,5.9132,5.919,5.9393,5.9713,6.0003,6.0148,6.0526,6.0642,6.0903,6.1019,6.1193,6.1193,6.1193,6.1193,6.1193,6.1193,6.1193,6.1193,6.1193,6.1193,6.1164,6.0845,6.0555,6.0322,6.0061,5.9887,5.9829,5.9568,5.951,5.9916,5.9974,5.9858,5.9568,5.9248,5.8813,5.8435,5.8377,5.8145,5.7565,5.7303,5.7303,5.7303,5.7303,5.7303,5.7303,5.7303,5.7303,5.7303,5.7303,5.7303,5.7303,5.7303,5.7303,5.7303,5.7303,5.7303,5.35,5.35,5.35,5.35,5.35,5.35,5.35,5.35,5.35,5.35,5.3617,5.3878,5.4168,5.4517,5.4865,5.5533,5.6258,5.6781,5.7013,5.7303,5.7303,5.7303,5.7419,5.7623,5.7971,5.8145,5.8,5.7942,5.8261,5.829,5.8523,5.8755,5.9103,5.9451,5.9713,5.9771,5.9742,5.9684,5.948,5.9306,5.9306,5.9306,5.9045,5.8377,5.8319,5.8319,5.8174,5.8435,5.8435,5.8755,5.9103,5.9277,5.9306,5.9335,5.9132,5.8958,5.9161,5.948,5.9684,5.9771,5.9916,6.0235,6.0293,6.0206,6.0177,6.0206,6.0467,6.0729,6.1106,6.1193,6.1193,6.1193,6.1193,6.1193,6.1193,6.1193,6.1193,6.1193,6.1193,6.1193,6.1019,6.0903,6.0874,6.0584,6.0293,6.0177,6.0148,6.0322,6.0584,6.0555,6.0409,6.0293,5.9974,5.9539,5.9074,5.8813,5.8377,5.7739,5.7419,5.7419,5.7303,5.7303,5.7303,5.7303,5.7303,5.7303,5.7303,5.7303,5.7303,5.7303,5.7303,5.7303,5.7303,5.7303,5.7303,5.35,5.35,5.35,5.35,5.35,5.35,5.35,5.35,5.35,5.35,5.3617,5.4168,5.4546,5.4865,5.5474,5.6142,5.6636,5.7129,5.7274,5.7303,5.7332,5.7361,5.7681,5.8,5.8464,5.8871,5.8581,5.8493,5.8523,5.8377,5.8377,5.8726,5.9132,5.951,5.9858,5.9829,6.0003,5.9858,5.9597,5.9335,5.9306,5.9103,5.8639,5.7652,5.8029,5.8116,5.8087,5.8581,5.8929,5.9219,5.951,5.9771,5.9771,6.0148,6.0177,5.98,5.9684,5.9974,6.0235,6.0409,6.0584,6.0932,6.0496,6.0351,6.038,6.0293,6.0061,6.0409,6.0816,6.1193,6.1193,6.1193,6.1193,6.1193,6.1193,6.1193,6.1193,6.1193,6.1193,6.1193,6.1193,6.1164,6.1106,6.0729,6.0322,6.0467,6.0467,6.0555,6.0787,6.0961,6.0932,6.1019,6.0787,6.0351,5.9916,5.951,5.8842,5.7971,5.771,5.7652,5.7477,5.7303,5.7303,5.7303,5.7303,5.7303,5.7303,5.7303,5.7303,5.7303,5.7303,5.7303,5.7303,5.7303,5.7303,5.35,5.35,5.35,5.35,5.35,5.35,5.35,5.35,5.35,5.35,5.3646,5.4255,5.4865,5.5503,5.652,5.7042,5.7187,5.7216,5.7361,5.7419,5.7448,5.771,5.8116,5.8203,5.9016,5.948,5.9277,5.9219,5.8958,5.8552,5.8552,5.8929,5.9016,5.9335,5.9364,5.951,5.9422,5.9422,5.9364,5.9335,5.9248,5.8842,5.8493,5.829,5.8319,5.8523,5.8842,5.9393,5.9945,6.0526,6.0758,6.0932,6.099,6.1019,6.1048,6.099,6.099,6.1019,6.099,6.0961,6.0961,6.1048,6.0584,6.0613,6.0555,6.0758,6.07,6.1019,6.1164,6.1193,6.1193,6.1193,6.1193,6.1193,6.1193,6.1193,6.1193,6.1222,6.1193,6.128,6.1309,6.128,6.1251,6.0758,6.038,6.0613,6.0787,6.0874,6.0932,6.1106,6.1193,6.1193,6.1106,6.0729,6.0293,5.9945,5.9219,5.8232,5.8029,5.7855,5.7536,5.7303,5.7303,5.7303,5.7303,5.7303,5.7303,5.7303,5.7303,5.7303,5.7303,5.7303,5.7303,5.7303,5.7303,5.35,5.35,5.35,5.35,5.35,5.35,5.35,5.35,5.35,5.3733,5.4139,5.4749,5.5562,5.6432,5.7158,5.7303,5.7303,5.7303,5.7536,5.7797,5.7884,5.8232,5.8813,5.919,5.9829,5.9829,5.9655,5.9277,5.9074,5.8639,5.8377,5.8203,5.8552,5.8697,5.8784,5.9103,5.9277,5.9422,5.9568,5.9626,5.9422,5.9306,5.919,5.89,5.8871,5.9045,5.9364,5.9887,6.0293,6.0642,6.0642,6.0845,6.0961,6.0903,6.0729,6.1164,6.1164,6.1164,6.1164,6.1193,6.1193,6.1048,6.0613,6.0206,6.0264,6.0496,6.0671,6.0613,6.099,6.1164,6.1193,6.1193,6.1193,6.1193,6.1193,6.1193,6.1193,6.1222,6.1251,6.1338,6.1425,6.1425,6.1396,6.1077,6.0787,6.0845,6.099,6.1019,6.1077,6.1135,6.1193,6.1193,6.1106,6.0932,6.0496,6.009,5.9422,5.8639,5.8261,5.8029,5.7536,5.7303,5.7303,5.7303,5.7303,5.7303,5.7303,5.7303,5.7303,5.7303,5.7303,5.7303,5.7303,5.7303,5.7303,5.35,5.35,5.35,5.35,5.35,5.35,5.35,5.35,5.35,5.3878,5.4604,5.53,5.6287,5.71,5.7274,5.7303,5.7303,5.7303,5.771,5.8087,5.8406,5.8755,5.9306,5.9858,5.9945,6.0177,5.9306,5.9016,5.8813,5.8377,5.7739,5.7332,5.7855,5.8029,5.8174,5.8435,5.8697,5.8987,5.9335,5.9422,5.9393,5.9684,5.9568,5.9451,5.9422,5.9539,5.9626,6.0148,6.0496,6.0526,6.0351,6.0496,6.0729,6.0526,6.0467,6.0845,6.1019,6.1193,6.1193,6.1193,6.1193,6.1048,6.0816,6.0351,5.9829,6.0061,6.0467,6.0613,6.0903,6.1164,6.1193,6.1193,6.1193,6.1193,6.1193,6.1193,6.1193,6.128,6.1425,6.16,6.1658,6.1629,6.1542,6.1367,6.1222,6.1164,6.1193,6.1193,6.1193,6.1193,6.1193,6.1193,6.1135,6.1048,6.0816,6.0293,5.9597,5.9045,5.8697,5.8145,5.7623,5.7361,5.7303,5.7303,5.7303,5.7303,5.7303,5.7303,5.7303,5.7303,5.7303,5.7303,5.7303,5.7303,5.7303,5.35,5.35,5.35,5.35,5.35,5.35,5.35,5.353,5.353,5.3994,5.4807,5.5765,5.6694,5.7158,5.7303,5.7303,5.7303,5.7303,5.7826,5.8203,5.8406,5.9161,5.9713,5.9887,5.9713,5.9916,5.9132,5.8552,5.829,5.8029,5.7565,5.7361,5.7536,5.7448,5.7536,5.7826,5.8232,5.8581,5.89,5.9161,5.9306,5.9539,5.9539,5.9597,5.9858,6.0148,6.0177,6.07,6.099,6.0961,6.038,6.0177,6.0351,6.0177,6.0206,6.0467,6.0961,6.1135,6.1193,6.1193,6.1193,6.1164,6.1048,6.0758,6.0264,6.0729,6.1048,6.1019,6.1135,6.1164,6.1193,6.1193,6.1193,6.1193,6.1222,6.1309,6.1338,6.1367,6.1542,6.1832,6.189,6.1803,6.1658,6.1454,6.128,6.1193,6.1193,6.1193,6.1193,6.1193,6.1193,6.1193,6.1193,6.1164,6.1164,6.07,6.0206,5.9626,5.9132,5.8377,5.7652,5.7477,5.7332,5.7303,5.7303,5.7303,5.7303,5.7303,5.7303,5.7303,5.7303,5.7303,5.7303,5.7303,5.7303,5.35,5.35,5.35,5.35,5.35,5.35,5.35,5.3588,5.3965,5.472,5.5678,5.6578,5.71,5.7274,5.7303,5.7303,5.739,5.7768,5.829,5.8871,5.9364,6.0003,6.038,6.0206,5.9974,5.9829,5.8929,5.829,5.8261,5.7942,5.7942,5.7826,5.7594,5.7361,5.739,5.7797,5.829,5.8842,5.9248,5.9626,5.9829,6.0293,6.0467,6.0496,6.0584,6.0816,6.0845,6.1048,6.1164,6.0932,6.0206,6.0061,6.009,5.9916,5.9945,6.0235,6.0845,6.1135,6.1193,6.1193,6.1193,6.1193,6.1164,6.1048,6.0729,6.1077,6.1164,6.1164,6.1193,6.1193,6.1193,6.1193,6.1193,6.1193,6.128,6.1425,6.1571,6.1658,6.1919,6.2325,6.2151,6.1948,6.1745,6.1542,6.1338,6.1193,6.1193,6.1193,6.1193,6.1193,6.1193,6.1193,6.1193,6.1193,6.1193,6.1019,6.0845,6.0206,5.9539,5.8842,5.8058,5.7477,5.7332,5.7332,5.7361,5.7361,5.7361,5.7332,5.7303,5.7303,5.7303,5.7303,5.7303,5.7303,5.7303,5.35,5.35,5.35,5.35,5.35,5.35,5.35,5.3588,5.3965,5.4923,5.6142,5.6897,5.7303,5.7303,5.7303,5.7477,5.7681,5.8116,5.8813,5.9393,5.9974,6.0467,6.0526,6.0235,5.9626,5.9451,5.8697,5.8,5.829,5.829,5.8406,5.8377,5.8174,5.8029,5.8087,5.8348,5.8929,5.9539,5.9916,6.0351,6.0496,6.0874,6.1135,6.1106,6.1106,6.1106,6.1106,6.1164,6.1164,6.0874,6.038,5.9945,5.9916,5.9916,5.9858,6.0264,6.0758,6.1164,6.1193,6.1193,6.1193,6.1193,6.1193,6.1193,6.1193,6.1193,6.1193,6.1193,6.1193,6.1193,6.1193,6.1193,6.1193,6.1193,6.1542,6.1745,6.2006,6.2151,6.2529,6.2877,6.2499,6.2035,6.1803,6.16,6.1338,6.1193,6.1193,6.1193,6.1193,6.1193,6.1193,6.1193,6.1193,6.1193,6.1164,6.1077,6.0903,6.038,5.9771,5.9393,5.8697,5.8029,5.7623,5.7739,5.771,5.7536,5.7419,5.7332,5.7303,5.7303,5.7303,5.7303,5.7303,5.7303,5.7303,5.35,5.35,5.35,5.353,5.3559,5.353,5.353,5.3617,5.3704,5.4429,5.5707,5.6752,5.7274,5.7303,5.7303,5.7594,5.8087,5.8348,5.8958,5.9887,6.0264,6.0322,6.0061,5.9742,5.9219,5.8348,5.7971,5.7971,5.8319,5.8581,5.8842,5.919,5.9248,5.919,5.9248,5.9248,5.9597,6.009,6.0235,6.0613,6.0932,6.1135,6.1164,6.1193,6.1193,6.1193,6.1193,6.1193,6.1193,6.1019,6.0467,6.0119,6.0119,6.0148,6.0119,6.0235,6.0845,6.1164,6.1193,6.1193,6.1193,6.1193,6.1193,6.1193,6.1193,6.1193,6.1193,6.1193,6.1193,6.1193,6.1193,6.1193,6.1193,6.1425,6.1774,6.218,6.247,6.279,6.3167,6.3109,6.2558,6.2064,6.1861,6.1629,6.1338,6.1193,6.1193,6.1193,6.1193,6.1193,6.1193,6.1193,6.1193,6.1193,6.1193,6.1193,6.0961,6.0467,5.9945,5.948,5.9103,5.8552,5.829,5.8232,5.7913,5.7565,5.7419,5.7303,5.7303,5.7303,5.7303,5.7303,5.7303,5.7303,5.7303,5.35,5.35,5.35,5.3762,5.4081,5.3704,5.3733,5.4139,5.4255,5.4894,5.5939,5.6607,5.6984,5.7187,5.739,5.771,5.829,5.89,5.9539,6.0148,6.0584,6.0496,6.0148,5.9539,5.8929,5.8406,5.8029,5.8,5.8319,5.8958,5.9539,5.9916,6.0206,6.0264,6.0003,5.9945,6.0206,6.0729,6.0874,6.099,6.1164,6.1193,6.1193,6.1193,6.1193,6.1193,6.1193,6.1193,6.1193,6.1135,6.0584,6.0293,6.0264,6.0264,6.0235,6.0351,6.0816,6.1164,6.1193,6.1193,6.1193,6.1193,6.1193,6.1193,6.1193,6.1193,6.1193,6.1193,6.1193,6.1193,6.1193,6.1193,6.1309,6.1745,6.2151,6.2732,6.3109,6.3457,6.3719,6.3283,6.2761,6.2093,6.1687,6.1571,6.1309,6.1251,6.128,6.1193,6.1193,6.1193,6.1193,6.1193,6.1193,6.1193,6.1193,6.1193,6.1193,6.0874,6.0148,5.9422,5.9074,5.8871,5.829,5.7884,5.771,5.7565,5.7419,5.7303,5.7303,5.7303,5.7303,5.7303,5.7303,5.7303,5.7303,5.35,5.353,5.3762,5.4226,5.4633,5.3907,5.3791,5.4226,5.4604,5.5329,5.6026,5.6461,5.6926,5.7303,5.7594,5.8,5.8668,5.9306,5.9974,6.0526,6.0932,6.0555,5.9945,5.9451,5.8726,5.829,5.8261,5.8377,5.8755,5.9713,6.0235,6.0584,6.0961,6.0845,6.0642,6.0642,6.0729,6.1077,6.1106,6.1135,6.1193,6.1193,6.1193,6.1193,6.1193,6.1193,6.1193,6.1193,6.1193,6.1048,6.0816,6.0526,6.0526,6.0526,6.0526,6.07,6.0874,6.1193,6.1193,6.1193,6.1193,6.1193,6.1193,6.1193,6.1193,6.1193,6.1193,6.1193,6.1193,6.1338,6.1454,6.1454,6.1774,6.2209,6.279,6.337,6.3661,6.3946,6.3922,6.3486,6.2935,6.2238,6.1513,6.1454,6.1309,6.1338,6.1367,6.128,6.1222,6.1193,6.1193,6.1193,6.1193,6.1193,6.1193,6.1193,6.1193,6.1193,6.0409,5.948,5.9393,5.9248,5.8406,5.771,5.7797,5.7768,5.7448,5.7303,5.7303,5.7303,5.7303,5.7303,5.7303,5.7303,5.7303,5.35,5.3617,5.4226,5.4807,5.5068,5.4081,5.3588,5.3675,5.4807,5.5358,5.5503,5.6694,5.7245,5.7448,5.7971,5.8581,5.919,5.9829,6.0409,6.0903,6.1135,6.038,5.9742,5.9277,5.8552,5.8,5.8029,5.8784,5.9306,6.0061,6.0671,6.099,6.1106,6.1106,6.1048,6.1048,6.1077,6.1164,6.1193,6.1193,6.1193,6.1193,6.1193,6.1193,6.1193,6.1193,6.1193,6.1193,6.1193,6.1164,6.1135,6.1135,6.1164,6.1164,6.1193,6.1193,6.1193,6.128,6.1193,6.1222,6.1222,6.1222,6.1193,6.1193,6.1193,6.1193,6.1193,6.1251,6.1338,6.1658,6.189,6.2151,6.2412,6.2964,6.3545,6.3893,6.4125,6.4212,6.4096,6.369,6.3109,6.2412,6.1542,6.128,6.16,6.1629,6.1658,6.1542,6.1425,6.1222,6.1222,6.1193,6.1193,6.1193,6.1193,6.1193,6.1193,6.1193,6.0467,5.9684,5.9684,5.9335,5.8348,5.7797,5.8058,5.7971,5.7507,5.7303,5.7303,5.7303,5.7303,5.7303,5.7303,5.7303,5.7303,5.35,5.3588,5.4226,5.4604,5.4691,5.44,5.3965,5.3675,5.4429,5.4981,5.5445,5.6287,5.7245,5.7971,5.7739,5.8639,5.9335,5.9829,6.0351,6.0787,6.1164,6.0351,5.9713,5.9219,5.8435,5.8116,5.829,5.9016,5.948,6.0264,6.0874,6.1164,6.1193,6.1193,6.1193,6.1193,6.1193,6.1193,6.1193,6.1193,6.1193,6.1193,6.1193,6.1193,6.1193,6.1193,6.1251,6.1222,6.1193,6.1222,6.1193,6.1193,6.1193,6.1193,6.1193,6.1251,6.1483,6.1687,6.1367,6.16,6.1658,6.128,6.1193,6.1193,6.1193,6.1193,6.1193,6.1251,6.1542,6.1919,6.2296,6.2616,6.3051,6.3661,6.4096,6.427,6.4473,6.4561,6.4415,6.3864,6.3283,6.2529,6.1658,6.1745,6.2006,6.2006,6.1977,6.1861,6.1658,6.1425,6.1222,6.1193,6.1193,6.1193,6.1193,6.1193,6.1193,6.1077,6.038,5.9771,5.948,5.8987,5.8116,5.7768,5.7797,5.7681,5.739,5.7303,5.7303,5.7303,5.7303,5.7303,5.7303,5.7303,5.7303,5.35,5.3646,5.4487,5.4865,5.4865,5.4865,5.4487,5.411,5.4575,5.5213,5.5881,5.681,5.7594,5.8232,5.8493,5.9161,6.0061,6.0293,6.0642,6.0961,6.1193,6.0322,5.9684,5.919,5.8464,5.8174,5.8261,5.8929,5.9539,6.0467,6.1193,6.1193,6.1193,6.1193,6.1193,6.1193,6.1193,6.1193,6.1193,6.1193,6.1193,6.1193,6.1193,6.1193,6.1193,6.128,6.1425,6.1367,6.1309,6.1396,6.1425,6.1193,6.128,6.1367,6.1542,6.1716,6.2122,6.2093,6.1803,6.1861,6.1687,6.1396,6.1193,6.1193,6.1193,6.1193,6.1193,6.1251,6.1745,6.2209,6.2645,6.308,6.3719,6.4357,6.4473,6.459,6.4764,6.4938,6.4561,6.4009,6.3341,6.2645,6.2296,6.2412,6.2558,6.2732,6.2616,6.2267,6.1977,6.1629,6.1367,6.1193,6.1193,6.1193,6.1193,6.1193,6.1193,6.1019,6.0467,5.9887,5.9422,5.8813,5.8087,5.7652,5.739,5.7303,5.7303,5.7303,5.7303,5.7303,5.7303,5.7303,5.7303,5.7303,5.7303,5.35,5.3588,5.4778,5.5213,5.5387,5.53,5.4981,5.4691,5.5213,5.5823,5.652,5.771,5.8261,5.8639,5.919,5.9829,6.038,6.0613,6.0758,6.1164,6.1193,6.0526,5.9771,5.9248,5.861,5.8029,5.8058,5.8784,5.951,6.0322,6.0932,6.1106,6.1193,6.1193,6.1193,6.1193,6.1193,6.1193,6.1193,6.1193,6.1193,6.1193,6.1193,6.1193,6.1251,6.1367,6.1658,6.1658,6.1454,6.1687,6.1687,6.1338,6.1658,6.189,6.2122,6.2383,6.2819,6.2529,6.2267,6.2209,6.1803,6.1513,6.1251,6.1367,6.1425,6.1251,6.1193,6.1396,6.1861,6.2441,6.2906,6.3632,6.4328,6.4648,6.4764,6.4822,6.488,6.4938,6.4648,6.4125,6.369,6.3022,6.279,6.2877,6.3196,6.3457,6.3196,6.2703,6.2296,6.1861,6.1454,6.1193,6.1193,6.1193,6.1193,6.1193,6.1193,6.0932,6.0496,6.0206,5.9858,5.9045,5.8116,5.7797,5.7536,5.7361,5.7303,5.7303,5.7303,5.7303,5.7303,5.7303,5.7303,5.7303,5.7303,5.35,5.353,5.3849,5.4487,5.53,5.4923,5.4952,5.5242,5.5881,5.6287,5.6636,5.771,5.861,5.9074,5.9422,6.0003,6.0671,6.0467,6.0758,6.0961,6.1077,6.0555,5.9916,5.9335,5.8726,5.8377,5.8348,5.8639,5.9277,5.9974,6.0496,6.0526,6.0845,6.1193,6.1193,6.1193,6.1193,6.1193,6.1193,6.1193,6.1193,6.1193,6.1193,6.1193,6.1251,6.128,6.1454,6.1367,6.1571,6.189,6.1948,6.2151,6.2616,6.2761,6.2819,6.2964,6.3283,6.3051,6.2674,6.2499,6.2325,6.1803,6.16,6.1803,6.1774,6.1396,6.1367,6.1629,6.2064,6.2674,6.3312,6.4125,6.4764,6.488,6.4996,6.4996,6.4996,6.4851,6.4677,6.4357,6.3951,6.369,6.3428,6.3486,6.3806,6.369,6.3283,6.2877,6.2499,6.2064,6.1454,6.1193,6.1193,6.1193,6.1193,6.1193,6.1193,6.1048,6.0671,6.0438,6.0235,5.9306,5.8377,5.8058,5.7768,5.7507,5.7303,5.7303,5.7303,5.7303,5.7303,5.7303,5.7303,5.7303,5.7303,5.3675,5.3936,5.3965,5.4517,5.5242,5.5039,5.5097,5.5533,5.6403,5.6984,5.7361,5.8261,5.8958,5.9393,5.9568,5.9684,6.0351,5.9974,6.0206,6.0555,6.0496,6.0119,5.9655,5.919,5.8435,5.8029,5.8261,5.8552,5.8987,5.9771,6.0264,6.0322,6.0816,6.1222,6.1222,6.1193,6.1251,6.1193,6.1251,6.1251,6.1251,6.1193,6.1193,6.1193,6.1193,6.1251,6.1425,6.1454,6.1774,6.2267,6.2529,6.2354,6.2645,6.2819,6.2848,6.2964,6.3225,6.3574,6.3051,6.2877,6.2964,6.2441,6.2238,6.2529,6.2558,6.2267,6.2238,6.2529,6.2993,6.3574,6.3777,6.4415,6.4764,6.4967,6.4996,6.4996,6.4996,6.4938,6.4822,6.4706,6.4473,6.4415,6.4241,6.427,6.4473,6.427,6.3806,6.3109,6.2703,6.2093,6.1513,6.1193,6.1193,6.1193,6.1193,6.1193,6.1193,6.099,6.0816,6.0584,6.0293,5.9451,5.8697,5.8319,5.7913,5.7448,5.7303,5.7303,5.7303,5.7303,5.7303,5.7303,5.7303,5.7303,5.7303,5.3936,5.4575,5.4546,5.4865,5.5358,5.5387,5.5387,5.562,5.6839,5.7826,5.8406,5.9103,5.9364,5.951,5.9887,5.9655,5.951,5.9539,5.9771,5.9858,5.9655,5.9568,5.9277,5.8697,5.8087,5.7768,5.7884,5.8145,5.8464,5.9364,6.0061,6.0322,6.0816,6.1338,6.1338,6.1454,6.1629,6.1687,6.1716,6.1571,6.1425,6.1164,6.1019,6.1019,6.1135,6.1367,6.1483,6.1716,6.189,6.2587,6.308,6.2906,6.2703,6.2877,6.2761,6.2877,6.3457,6.3545,6.3283,6.3516,6.3399,6.3196,6.3196,6.3196,6.3196,6.3283,6.3254,6.3457,6.3922,6.3975,6.4241,6.4502,6.4822,6.4996,6.4996,6.4996,6.4996,6.4996,6.4967,6.4938,6.4938,6.4909,6.4909,6.4938,6.4851,6.4677,6.4183,6.3545,6.2848,6.2064,6.1338,6.1193,6.1193,6.1193,6.1193,6.1193,6.1193,6.1135,6.099,6.0758,6.038,5.9597,5.8987,5.8552,5.8116,5.7507,5.7303,5.7303,5.7303,5.7303,5.7303,5.7303,5.7303,5.7303,5.7303,5.4197,5.5213,5.472,5.4865,5.5358,5.5416,5.5416,5.5707,5.7332,5.8493,5.9103,5.9655,5.98,5.9335,5.9916,5.9771,5.9045,5.9074,5.9248,5.9393,5.9132,5.919,5.9045,5.8435,5.7913,5.7652,5.7565,5.7797,5.8319,5.9103,5.98,6.0293,6.1454,6.189,6.2006,6.2209,6.2529,6.2499,6.2499,6.2499,6.2064,6.1542,6.0496,6.038,6.0409,6.0467,6.0613,6.099,6.189,6.279,6.3428,6.3254,6.2993,6.279,6.2732,6.2703,6.3312,6.3428,6.3399,6.3719,6.3632,6.3545,6.3574,6.3864,6.398,6.427,6.427,6.427,6.4473,6.4183,6.4299,6.4677,6.4967,6.4996,6.4996,6.4996,6.4996,6.4996,6.4967,6.4967,6.4967,6.4967,6.4967,6.4967,6.4967,6.4619,6.3864,6.3283,6.2993,6.2122,6.1193,6.1193,6.1193,6.1193,6.1193,6.1193,6.1193,6.1193,6.1164,6.099,6.0584,5.9887,5.9306,5.8871,5.8116,5.7419,5.7303,5.7303,5.7303,5.7303,5.7303,5.7303,5.7303,5.7303,5.7303]}]]